<?xml version="1.0" encoding="UTF-8" standalone="no" ?>
<gpx xmlns="http://www.topografix.com/GPX/1/1" xmlns:xsi="http://www.w3.org/2001/XMLSchema-instance" xsi:schemaLocation="http://www.topografix.com/GPX/1/1 http://www.topografix.com/GPX/1/1/gpx.xsd" version="1.1" creator="VisuGPX - https://www.visugpx.com">
  <metadata>
    <name>Sortie Escaudain</name>
    <desc><![CDATA[Sortie Escaudain 06/11/2011]]></desc>
  </metadata>
  <trk>
    <name><![CDATA[2011-11-06T07:05:52Z]]></name>
    <trkseg>
      <trkpt lat="50.33229" lon="3.3373">
        <ele>38.109375</ele>
        <time>2011-11-06T07:05:53Z</time>
      </trkpt>
      <trkpt lat="50.33233" lon="3.33724">
        <ele>37.1480713</ele>
        <time>2011-11-06T07:06:08Z</time>
      </trkpt>
      <trkpt lat="50.33238" lon="3.33716">
        <ele>36.6674805</ele>
        <time>2011-11-06T07:06:13Z</time>
      </trkpt>
      <trkpt lat="50.33239" lon="3.33716">
        <ele>36.6674805</ele>
        <time>2011-11-06T07:06:16Z</time>
      </trkpt>
      <trkpt lat="50.3323" lon="3.33725">
        <ele>36.6674805</ele>
        <time>2011-11-06T07:10:27Z</time>
      </trkpt>
      <trkpt lat="50.33227" lon="3.33735">
        <ele>36.6674805</ele>
        <time>2011-11-06T07:10:29Z</time>
      </trkpt>
      <trkpt lat="50.33223" lon="3.3376">
        <ele>37.1480713</ele>
        <time>2011-11-06T07:10:35Z</time>
      </trkpt>
      <trkpt lat="50.33217" lon="3.33799">
        <ele>37.1480713</ele>
        <time>2011-11-06T07:10:42Z</time>
      </trkpt>
      <trkpt lat="50.33206" lon="3.33856">
        <ele>36.1867676</ele>
        <time>2011-11-06T07:10:51Z</time>
      </trkpt>
      <trkpt lat="50.33194" lon="3.33909">
        <ele>36.6674805</ele>
        <time>2011-11-06T07:10:59Z</time>
      </trkpt>
      <trkpt lat="50.33172" lon="3.33949">
        <ele>36.6674805</ele>
        <time>2011-11-06T07:11:07Z</time>
      </trkpt>
      <trkpt lat="50.33169" lon="3.33968">
        <ele>36.6674805</ele>
        <time>2011-11-06T07:11:12Z</time>
      </trkpt>
      <trkpt lat="50.33173" lon="3.33976">
        <ele>36.6674805</ele>
        <time>2011-11-06T07:11:15Z</time>
      </trkpt>
      <trkpt lat="50.33179" lon="3.33987">
        <ele>35.7060547</ele>
        <time>2011-11-06T07:11:22Z</time>
      </trkpt>
      <trkpt lat="50.33183" lon="3.33999">
        <ele>36.1867676</ele>
        <time>2011-11-06T07:11:27Z</time>
      </trkpt>
      <trkpt lat="50.33187" lon="3.34012">
        <ele>35.7060547</ele>
        <time>2011-11-06T07:11:31Z</time>
      </trkpt>
      <trkpt lat="50.33192" lon="3.34034">
        <ele>35.2254639</ele>
        <time>2011-11-06T07:11:38Z</time>
      </trkpt>
      <trkpt lat="50.33192" lon="3.34036">
        <ele>35.2254639</ele>
        <time>2011-11-06T07:11:39Z</time>
      </trkpt>
      <trkpt lat="50.33193" lon="3.34038">
        <ele>35.2254639</ele>
        <time>2011-11-06T07:11:43Z</time>
      </trkpt>
      <trkpt lat="50.33197" lon="3.34047">
        <ele>32.3415527</ele>
        <time>2011-11-06T07:12:14Z</time>
      </trkpt>
      <trkpt lat="50.33206" lon="3.34068">
        <ele>31.380127</ele>
        <time>2011-11-06T07:12:20Z</time>
      </trkpt>
      <trkpt lat="50.33219" lon="3.34082">
        <ele>31.8607178</ele>
        <time>2011-11-06T07:12:26Z</time>
      </trkpt>
      <trkpt lat="50.33251" lon="3.34099">
        <ele>33.7834473</ele>
        <time>2011-11-06T07:12:35Z</time>
      </trkpt>
      <trkpt lat="50.33282" lon="3.34119">
        <ele>34.2641602</ele>
        <time>2011-11-06T07:12:43Z</time>
      </trkpt>
      <trkpt lat="50.33312" lon="3.34146">
        <ele>33.7834473</ele>
        <time>2011-11-06T07:12:51Z</time>
      </trkpt>
      <trkpt lat="50.33337" lon="3.34182">
        <ele>34.744873</ele>
        <time>2011-11-06T07:12:59Z</time>
      </trkpt>
      <trkpt lat="50.33341" lon="3.34192">
        <ele>35.2254639</ele>
        <time>2011-11-06T07:13:01Z</time>
      </trkpt>
      <trkpt lat="50.33351" lon="3.34226">
        <ele>35.2254639</ele>
        <time>2011-11-06T07:13:07Z</time>
      </trkpt>
      <trkpt lat="50.33363" lon="3.34275">
        <ele>35.2254639</ele>
        <time>2011-11-06T07:13:15Z</time>
      </trkpt>
      <trkpt lat="50.33378" lon="3.34335">
        <ele>36.1867676</ele>
        <time>2011-11-06T07:13:24Z</time>
      </trkpt>
      <trkpt lat="50.33395" lon="3.34394">
        <ele>36.6674805</ele>
        <time>2011-11-06T07:13:33Z</time>
      </trkpt>
      <trkpt lat="50.33408" lon="3.34409">
        <ele>36.6674805</ele>
        <time>2011-11-06T07:13:37Z</time>
      </trkpt>
      <trkpt lat="50.3343" lon="3.3442">
        <ele>36.6674805</ele>
        <time>2011-11-06T07:13:42Z</time>
      </trkpt>
      <trkpt lat="50.33452" lon="3.34416">
        <ele>37.6286621</ele>
        <time>2011-11-06T07:13:47Z</time>
      </trkpt>
      <trkpt lat="50.33497" lon="3.3439">
        <ele>39.5512695</ele>
        <time>2011-11-06T07:13:57Z</time>
      </trkpt>
      <trkpt lat="50.33526" lon="3.3439">
        <ele>40.9934082</ele>
        <time>2011-11-06T07:14:03Z</time>
      </trkpt>
      <trkpt lat="50.33536" lon="3.34391">
        <ele>41.473999</ele>
        <time>2011-11-06T07:14:05Z</time>
      </trkpt>
      <trkpt lat="50.33565" lon="3.34389">
        <ele>45.7999268</ele>
        <time>2011-11-06T07:14:11Z</time>
      </trkpt>
      <trkpt lat="50.3357" lon="3.34389">
        <ele>46.2806396</ele>
        <time>2011-11-06T07:14:12Z</time>
      </trkpt>
      <trkpt lat="50.33588" lon="3.34374">
        <ele>46.2806396</ele>
        <time>2011-11-06T07:14:16Z</time>
      </trkpt>
      <trkpt lat="50.33591" lon="3.3436">
        <ele>45.3192139</ele>
        <time>2011-11-06T07:14:18Z</time>
      </trkpt>
      <trkpt lat="50.336" lon="3.34301">
        <ele>43.3966064</ele>
        <time>2011-11-06T07:14:26Z</time>
      </trkpt>
      <trkpt lat="50.33603" lon="3.34229">
        <ele>43.3966064</ele>
        <time>2011-11-06T07:14:35Z</time>
      </trkpt>
      <trkpt lat="50.33603" lon="3.34207">
        <ele>43.3966064</ele>
        <time>2011-11-06T07:14:38Z</time>
      </trkpt>
      <trkpt lat="50.33602" lon="3.34179">
        <ele>42.4354248</ele>
        <time>2011-11-06T07:14:42Z</time>
      </trkpt>
      <trkpt lat="50.33597" lon="3.34103">
        <ele>41.9547119</ele>
        <time>2011-11-06T07:14:52Z</time>
      </trkpt>
      <trkpt lat="50.33593" lon="3.34025">
        <ele>40.0321045</ele>
        <time>2011-11-06T07:15:02Z</time>
      </trkpt>
      <trkpt lat="50.33588" lon="3.33958">
        <ele>37.6286621</ele>
        <time>2011-11-06T07:15:10Z</time>
      </trkpt>
      <trkpt lat="50.33587" lon="3.33942">
        <ele>37.1480713</ele>
        <time>2011-11-06T07:15:12Z</time>
      </trkpt>
      <trkpt lat="50.33597" lon="3.33919">
        <ele>37.1480713</ele>
        <time>2011-11-06T07:15:16Z</time>
      </trkpt>
      <trkpt lat="50.33602" lon="3.33918">
        <ele>36.6674805</ele>
        <time>2011-11-06T07:15:17Z</time>
      </trkpt>
      <trkpt lat="50.33641" lon="3.33918">
        <ele>35.2254639</ele>
        <time>2011-11-06T07:15:25Z</time>
      </trkpt>
      <trkpt lat="50.33683" lon="3.33915">
        <ele>38.109375</ele>
        <time>2011-11-06T07:15:33Z</time>
      </trkpt>
      <trkpt lat="50.33705" lon="3.33895">
        <ele>38.5900879</ele>
        <time>2011-11-06T07:15:38Z</time>
      </trkpt>
      <trkpt lat="50.33723" lon="3.33833">
        <ele>38.109375</ele>
        <time>2011-11-06T07:15:46Z</time>
      </trkpt>
      <trkpt lat="50.33741" lon="3.3376">
        <ele>36.6674805</ele>
        <time>2011-11-06T07:15:55Z</time>
      </trkpt>
      <trkpt lat="50.33755" lon="3.33703">
        <ele>36.1867676</ele>
        <time>2011-11-06T07:16:02Z</time>
      </trkpt>
      <trkpt lat="50.3377" lon="3.33636">
        <ele>36.1867676</ele>
        <time>2011-11-06T07:16:10Z</time>
      </trkpt>
      <trkpt lat="50.33791" lon="3.33563">
        <ele>37.1480713</ele>
        <time>2011-11-06T07:16:19Z</time>
      </trkpt>
      <trkpt lat="50.33812" lon="3.33493">
        <ele>37.1480713</ele>
        <time>2011-11-06T07:16:28Z</time>
      </trkpt>
      <trkpt lat="50.33833" lon="3.33422">
        <ele>36.1867676</ele>
        <time>2011-11-06T07:16:37Z</time>
      </trkpt>
      <trkpt lat="50.33847" lon="3.33373">
        <ele>36.1867676</ele>
        <time>2011-11-06T07:16:44Z</time>
      </trkpt>
      <trkpt lat="50.33853" lon="3.33376">
        <ele>35.7060547</ele>
        <time>2011-11-06T07:16:47Z</time>
      </trkpt>
      <trkpt lat="50.33854" lon="3.33386">
        <ele>34.744873</ele>
        <time>2011-11-06T07:16:49Z</time>
      </trkpt>
      <trkpt lat="50.33853" lon="3.33422">
        <ele>34.2641602</ele>
        <time>2011-11-06T07:16:54Z</time>
      </trkpt>
      <trkpt lat="50.33859" lon="3.33455">
        <ele>35.2254639</ele>
        <time>2011-11-06T07:16:58Z</time>
      </trkpt>
      <trkpt lat="50.33865" lon="3.33497">
        <ele>35.7060547</ele>
        <time>2011-11-06T07:17:03Z</time>
      </trkpt>
      <trkpt lat="50.33863" lon="3.33576">
        <ele>36.1867676</ele>
        <time>2011-11-06T07:17:12Z</time>
      </trkpt>
      <trkpt lat="50.33859" lon="3.33649">
        <ele>36.1867676</ele>
        <time>2011-11-06T07:17:20Z</time>
      </trkpt>
      <trkpt lat="50.33857" lon="3.33718">
        <ele>36.1867676</ele>
        <time>2011-11-06T07:17:27Z</time>
      </trkpt>
      <trkpt lat="50.33853" lon="3.33819">
        <ele>37.1480713</ele>
        <time>2011-11-06T07:17:37Z</time>
      </trkpt>
      <trkpt lat="50.33857" lon="3.3389">
        <ele>37.6286621</ele>
        <time>2011-11-06T07:17:44Z</time>
      </trkpt>
      <trkpt lat="50.33858" lon="3.3396">
        <ele>37.1480713</ele>
        <time>2011-11-06T07:17:51Z</time>
      </trkpt>
      <trkpt lat="50.33857" lon="3.34039">
        <ele>36.6674805</ele>
        <time>2011-11-06T07:17:59Z</time>
      </trkpt>
      <trkpt lat="50.33854" lon="3.34068">
        <ele>36.6674805</ele>
        <time>2011-11-06T07:18:02Z</time>
      </trkpt>
      <trkpt lat="50.33862" lon="3.34105">
        <ele>35.7060547</ele>
        <time>2011-11-06T07:18:06Z</time>
      </trkpt>
      <trkpt lat="50.33882" lon="3.3416">
        <ele>35.7060547</ele>
        <time>2011-11-06T07:18:13Z</time>
      </trkpt>
      <trkpt lat="50.33903" lon="3.34216">
        <ele>34.744873</ele>
        <time>2011-11-06T07:18:21Z</time>
      </trkpt>
      <trkpt lat="50.3393" lon="3.34259">
        <ele>32.3415527</ele>
        <time>2011-11-06T07:18:28Z</time>
      </trkpt>
      <trkpt lat="50.33973" lon="3.34307">
        <ele>30.8995361</ele>
        <time>2011-11-06T07:18:37Z</time>
      </trkpt>
      <trkpt lat="50.33982" lon="3.34317">
        <ele>30.4188232</ele>
        <time>2011-11-06T07:18:39Z</time>
      </trkpt>
      <trkpt lat="50.33997" lon="3.34331">
        <ele>30.4188232</ele>
        <time>2011-11-06T07:18:42Z</time>
      </trkpt>
      <trkpt lat="50.34044" lon="3.34358">
        <ele>30.8995361</ele>
        <time>2011-11-06T07:18:50Z</time>
      </trkpt>
      <trkpt lat="50.34078" lon="3.34378">
        <ele>30.8995361</ele>
        <time>2011-11-06T07:18:56Z</time>
      </trkpt>
      <trkpt lat="50.34094" lon="3.34389">
        <ele>30.8995361</ele>
        <time>2011-11-06T07:18:59Z</time>
      </trkpt>
      <trkpt lat="50.34131" lon="3.34424">
        <ele>31.8607178</ele>
        <time>2011-11-06T07:19:07Z</time>
      </trkpt>
      <trkpt lat="50.34136" lon="3.34431">
        <ele>31.380127</ele>
        <time>2011-11-06T07:19:10Z</time>
      </trkpt>
      <trkpt lat="50.34143" lon="3.34442">
        <ele>30.8995361</ele>
        <time>2011-11-06T07:19:14Z</time>
      </trkpt>
      <trkpt lat="50.34148" lon="3.34449">
        <ele>30.4188232</ele>
        <time>2011-11-06T07:19:16Z</time>
      </trkpt>
      <trkpt lat="50.3416" lon="3.34444">
        <ele>29.4575195</ele>
        <time>2011-11-06T07:19:20Z</time>
      </trkpt>
      <trkpt lat="50.34174" lon="3.34431">
        <ele>29.9381104</ele>
        <time>2011-11-06T07:19:24Z</time>
      </trkpt>
      <trkpt lat="50.34179" lon="3.34431">
        <ele>29.9381104</ele>
        <time>2011-11-06T07:19:25Z</time>
      </trkpt>
      <trkpt lat="50.34197" lon="3.34435">
        <ele>29.9381104</ele>
        <time>2011-11-06T07:19:29Z</time>
      </trkpt>
      <trkpt lat="50.34216" lon="3.34436">
        <ele>29.9381104</ele>
        <time>2011-11-06T07:19:33Z</time>
      </trkpt>
      <trkpt lat="50.34247" lon="3.34429">
        <ele>30.8995361</ele>
        <time>2011-11-06T07:19:39Z</time>
      </trkpt>
      <trkpt lat="50.34263" lon="3.34432">
        <ele>31.380127</ele>
        <time>2011-11-06T07:19:42Z</time>
      </trkpt>
      <trkpt lat="50.34288" lon="3.34426">
        <ele>32.3415527</ele>
        <time>2011-11-06T07:19:47Z</time>
      </trkpt>
      <trkpt lat="50.34305" lon="3.34422">
        <ele>32.3415527</ele>
        <time>2011-11-06T07:19:50Z</time>
      </trkpt>
      <trkpt lat="50.34316" lon="3.34429">
        <ele>32.8222656</ele>
        <time>2011-11-06T07:19:53Z</time>
      </trkpt>
      <trkpt lat="50.34321" lon="3.34444">
        <ele>32.3415527</ele>
        <time>2011-11-06T07:19:57Z</time>
      </trkpt>
      <trkpt lat="50.34324" lon="3.34445">
        <ele>32.3415527</ele>
        <time>2011-11-06T07:19:58Z</time>
      </trkpt>
      <trkpt lat="50.34358" lon="3.34443">
        <ele>31.380127</ele>
        <time>2011-11-06T07:20:06Z</time>
      </trkpt>
      <trkpt lat="50.34388" lon="3.34439">
        <ele>30.8995361</ele>
        <time>2011-11-06T07:20:12Z</time>
      </trkpt>
      <trkpt lat="50.34414" lon="3.34439">
        <ele>30.8995361</ele>
        <time>2011-11-06T07:20:18Z</time>
      </trkpt>
      <trkpt lat="50.34421" lon="3.34453">
        <ele>30.8995361</ele>
        <time>2011-11-06T07:20:21Z</time>
      </trkpt>
      <trkpt lat="50.34424" lon="3.34457">
        <ele>30.8995361</ele>
        <time>2011-11-06T07:20:22Z</time>
      </trkpt>
      <trkpt lat="50.34444" lon="3.34464">
        <ele>31.380127</ele>
        <time>2011-11-06T07:20:27Z</time>
      </trkpt>
      <trkpt lat="50.34459" lon="3.34474">
        <ele>31.8607178</ele>
        <time>2011-11-06T07:20:31Z</time>
      </trkpt>
      <trkpt lat="50.34471" lon="3.34475">
        <ele>31.380127</ele>
        <time>2011-11-06T07:20:34Z</time>
      </trkpt>
      <trkpt lat="50.34487" lon="3.34483">
        <ele>31.8607178</ele>
        <time>2011-11-06T07:20:38Z</time>
      </trkpt>
      <trkpt lat="50.34492" lon="3.34484">
        <ele>32.3415527</ele>
        <time>2011-11-06T07:20:39Z</time>
      </trkpt>
      <trkpt lat="50.3453" lon="3.34501">
        <ele>33.7834473</ele>
        <time>2011-11-06T07:20:47Z</time>
      </trkpt>
      <trkpt lat="50.34554" lon="3.34513">
        <ele>34.744873</ele>
        <time>2011-11-06T07:20:52Z</time>
      </trkpt>
      <trkpt lat="50.34558" lon="3.34515">
        <ele>35.2254639</ele>
        <time>2011-11-06T07:20:53Z</time>
      </trkpt>
      <trkpt lat="50.34575" lon="3.34523">
        <ele>37.6286621</ele>
        <time>2011-11-06T07:20:58Z</time>
      </trkpt>
      <trkpt lat="50.34572" lon="3.34531">
        <ele>38.5900879</ele>
        <time>2011-11-06T07:21:01Z</time>
      </trkpt>
      <trkpt lat="50.34573" lon="3.34546">
        <ele>40.5128174</ele>
        <time>2011-11-06T07:21:05Z</time>
      </trkpt>
      <trkpt lat="50.34575" lon="3.34549">
        <ele>41.473999</ele>
        <time>2011-11-06T07:21:06Z</time>
      </trkpt>
      <trkpt lat="50.34589" lon="3.34563">
        <ele>41.473999</ele>
        <time>2011-11-06T07:21:13Z</time>
      </trkpt>
      <trkpt lat="50.34602" lon="3.34567">
        <ele>42.4354248</ele>
        <time>2011-11-06T07:21:18Z</time>
      </trkpt>
      <trkpt lat="50.34616" lon="3.34568">
        <ele>42.4354248</ele>
        <time>2011-11-06T07:21:23Z</time>
      </trkpt>
      <trkpt lat="50.3463" lon="3.34574">
        <ele>41.9547119</ele>
        <time>2011-11-06T07:21:28Z</time>
      </trkpt>
      <trkpt lat="50.34647" lon="3.34586">
        <ele>42.9160156</ele>
        <time>2011-11-06T07:21:35Z</time>
      </trkpt>
      <trkpt lat="50.34658" lon="3.34596">
        <ele>42.9160156</ele>
        <time>2011-11-06T07:21:40Z</time>
      </trkpt>
      <trkpt lat="50.3467" lon="3.34609">
        <ele>42.9160156</ele>
        <time>2011-11-06T07:21:45Z</time>
      </trkpt>
      <trkpt lat="50.3468" lon="3.34598">
        <ele>43.3966064</ele>
        <time>2011-11-06T07:21:50Z</time>
      </trkpt>
      <trkpt lat="50.34691" lon="3.3457">
        <ele>41.9547119</ele>
        <time>2011-11-06T07:21:53Z</time>
      </trkpt>
      <trkpt lat="50.34691" lon="3.34548">
        <ele>40.9934082</ele>
        <time>2011-11-06T07:21:56Z</time>
      </trkpt>
      <trkpt lat="50.34693" lon="3.34531">
        <ele>40.0321045</ele>
        <time>2011-11-06T07:21:59Z</time>
      </trkpt>
      <trkpt lat="50.34704" lon="3.34529">
        <ele>37.6286621</ele>
        <time>2011-11-06T07:22:03Z</time>
      </trkpt>
      <trkpt lat="50.34703" lon="3.34542">
        <ele>36.6674805</ele>
        <time>2011-11-06T07:22:06Z</time>
      </trkpt>
      <trkpt lat="50.34701" lon="3.34553">
        <ele>37.6286621</ele>
        <time>2011-11-06T07:22:10Z</time>
      </trkpt>
      <trkpt lat="50.34706" lon="3.34574">
        <ele>36.1867676</ele>
        <time>2011-11-06T07:22:13Z</time>
      </trkpt>
      <trkpt lat="50.3471" lon="3.3459">
        <ele>36.6674805</ele>
        <time>2011-11-06T07:22:16Z</time>
      </trkpt>
      <trkpt lat="50.34708" lon="3.34596">
        <ele>36.1867676</ele>
        <time>2011-11-06T07:22:19Z</time>
      </trkpt>
      <trkpt lat="50.34702" lon="3.34602">
        <ele>36.6674805</ele>
        <time>2011-11-06T07:22:21Z</time>
      </trkpt>
      <trkpt lat="50.34692" lon="3.34609">
        <ele>40.5128174</ele>
        <time>2011-11-06T07:22:26Z</time>
      </trkpt>
      <trkpt lat="50.34691" lon="3.34618">
        <ele>42.4354248</ele>
        <time>2011-11-06T07:22:30Z</time>
      </trkpt>
      <trkpt lat="50.34695" lon="3.34642">
        <ele>43.8773193</ele>
        <time>2011-11-06T07:22:37Z</time>
      </trkpt>
      <trkpt lat="50.34699" lon="3.3467">
        <ele>44.3580322</ele>
        <time>2011-11-06T07:22:44Z</time>
      </trkpt>
      <trkpt lat="50.34706" lon="3.34689">
        <ele>44.3580322</ele>
        <time>2011-11-06T07:22:49Z</time>
      </trkpt>
      <trkpt lat="50.34711" lon="3.34697">
        <ele>44.3580322</ele>
        <time>2011-11-06T07:22:51Z</time>
      </trkpt>
      <trkpt lat="50.3471" lon="3.34717">
        <ele>44.838623</ele>
        <time>2011-11-06T07:22:55Z</time>
      </trkpt>
      <trkpt lat="50.34704" lon="3.34724">
        <ele>45.7999268</ele>
        <time>2011-11-06T07:22:57Z</time>
      </trkpt>
      <trkpt lat="50.34699" lon="3.34741">
        <ele>47.2418213</ele>
        <time>2011-11-06T07:23:03Z</time>
      </trkpt>
      <trkpt lat="50.34699" lon="3.34762">
        <ele>46.7612305</ele>
        <time>2011-11-06T07:23:06Z</time>
      </trkpt>
      <trkpt lat="50.34704" lon="3.3477">
        <ele>45.7999268</ele>
        <time>2011-11-06T07:23:09Z</time>
      </trkpt>
      <trkpt lat="50.34709" lon="3.34759">
        <ele>45.7999268</ele>
        <time>2011-11-06T07:23:12Z</time>
      </trkpt>
      <trkpt lat="50.34714" lon="3.34728">
        <ele>45.3192139</ele>
        <time>2011-11-06T07:23:19Z</time>
      </trkpt>
      <trkpt lat="50.34722" lon="3.34727">
        <ele>42.9160156</ele>
        <time>2011-11-06T07:23:23Z</time>
      </trkpt>
      <trkpt lat="50.34724" lon="3.3473">
        <ele>42.9160156</ele>
        <time>2011-11-06T07:23:24Z</time>
      </trkpt>
      <trkpt lat="50.34742" lon="3.34737">
        <ele>42.9160156</ele>
        <time>2011-11-06T07:23:30Z</time>
      </trkpt>
      <trkpt lat="50.3475" lon="3.34728">
        <ele>43.3966064</ele>
        <time>2011-11-06T07:23:34Z</time>
      </trkpt>
      <trkpt lat="50.34766" lon="3.34709">
        <ele>42.9160156</ele>
        <time>2011-11-06T07:23:38Z</time>
      </trkpt>
      <trkpt lat="50.34796" lon="3.34663">
        <ele>42.4354248</ele>
        <time>2011-11-06T07:23:44Z</time>
      </trkpt>
      <trkpt lat="50.34808" lon="3.34631">
        <ele>43.3966064</ele>
        <time>2011-11-06T07:23:48Z</time>
      </trkpt>
      <trkpt lat="50.34815" lon="3.3461">
        <ele>44.3580322</ele>
        <time>2011-11-06T07:23:53Z</time>
      </trkpt>
      <trkpt lat="50.34821" lon="3.34613">
        <ele>43.8773193</ele>
        <time>2011-11-06T07:23:56Z</time>
      </trkpt>
      <trkpt lat="50.34832" lon="3.34608">
        <ele>42.4354248</ele>
        <time>2011-11-06T07:23:59Z</time>
      </trkpt>
      <trkpt lat="50.34836" lon="3.34588">
        <ele>40.5128174</ele>
        <time>2011-11-06T07:24:02Z</time>
      </trkpt>
      <trkpt lat="50.34826" lon="3.3455">
        <ele>38.5900879</ele>
        <time>2011-11-06T07:24:08Z</time>
      </trkpt>
      <trkpt lat="50.34823" lon="3.34544">
        <ele>38.5900879</ele>
        <time>2011-11-06T07:24:09Z</time>
      </trkpt>
      <trkpt lat="50.3481" lon="3.3453">
        <ele>39.0706787</ele>
        <time>2011-11-06T07:24:13Z</time>
      </trkpt>
      <trkpt lat="50.34801" lon="3.3454">
        <ele>39.5512695</ele>
        <time>2011-11-06T07:24:16Z</time>
      </trkpt>
      <trkpt lat="50.348" lon="3.34546">
        <ele>39.5512695</ele>
        <time>2011-11-06T07:24:17Z</time>
      </trkpt>
      <trkpt lat="50.34798" lon="3.34589">
        <ele>39.5512695</ele>
        <time>2011-11-06T07:24:24Z</time>
      </trkpt>
      <trkpt lat="50.34804" lon="3.34599">
        <ele>40.5128174</ele>
        <time>2011-11-06T07:24:26Z</time>
      </trkpt>
      <trkpt lat="50.34807" lon="3.34618">
        <ele>41.473999</ele>
        <time>2011-11-06T07:24:31Z</time>
      </trkpt>
      <trkpt lat="50.34802" lon="3.3463">
        <ele>41.473999</ele>
        <time>2011-11-06T07:24:33Z</time>
      </trkpt>
      <trkpt lat="50.34791" lon="3.34658">
        <ele>40.5128174</ele>
        <time>2011-11-06T07:24:36Z</time>
      </trkpt>
      <trkpt lat="50.34774" lon="3.34683">
        <ele>40.9934082</ele>
        <time>2011-11-06T07:24:41Z</time>
      </trkpt>
      <trkpt lat="50.34769" lon="3.34692">
        <ele>41.473999</ele>
        <time>2011-11-06T07:24:43Z</time>
      </trkpt>
      <trkpt lat="50.3476" lon="3.34702">
        <ele>42.4354248</ele>
        <time>2011-11-06T07:24:46Z</time>
      </trkpt>
      <trkpt lat="50.34734" lon="3.34712">
        <ele>43.8773193</ele>
        <time>2011-11-06T07:24:53Z</time>
      </trkpt>
      <trkpt lat="50.34722" lon="3.34705">
        <ele>44.838623</ele>
        <time>2011-11-06T07:24:57Z</time>
      </trkpt>
      <trkpt lat="50.34721" lon="3.34686">
        <ele>44.3580322</ele>
        <time>2011-11-06T07:25:01Z</time>
      </trkpt>
      <trkpt lat="50.34724" lon="3.34675">
        <ele>43.3966064</ele>
        <time>2011-11-06T07:25:03Z</time>
      </trkpt>
      <trkpt lat="50.34742" lon="3.34667">
        <ele>41.473999</ele>
        <time>2011-11-06T07:25:07Z</time>
      </trkpt>
      <trkpt lat="50.34766" lon="3.34653">
        <ele>38.109375</ele>
        <time>2011-11-06T07:25:11Z</time>
      </trkpt>
      <trkpt lat="50.34779" lon="3.34635">
        <ele>38.109375</ele>
        <time>2011-11-06T07:25:15Z</time>
      </trkpt>
      <trkpt lat="50.34781" lon="3.34631">
        <ele>37.6286621</ele>
        <time>2011-11-06T07:25:16Z</time>
      </trkpt>
      <trkpt lat="50.3479" lon="3.34599">
        <ele>36.6674805</ele>
        <time>2011-11-06T07:25:21Z</time>
      </trkpt>
      <trkpt lat="50.3479" lon="3.34585">
        <ele>36.1867676</ele>
        <time>2011-11-06T07:25:23Z</time>
      </trkpt>
      <trkpt lat="50.34787" lon="3.34565">
        <ele>35.7060547</ele>
        <time>2011-11-06T07:25:26Z</time>
      </trkpt>
      <trkpt lat="50.34784" lon="3.34551">
        <ele>35.7060547</ele>
        <time>2011-11-06T07:25:28Z</time>
      </trkpt>
      <trkpt lat="50.34775" lon="3.34532">
        <ele>37.6286621</ele>
        <time>2011-11-06T07:25:32Z</time>
      </trkpt>
      <trkpt lat="50.34772" lon="3.34532">
        <ele>38.109375</ele>
        <time>2011-11-06T07:25:33Z</time>
      </trkpt>
      <trkpt lat="50.34744" lon="3.3454">
        <ele>39.0706787</ele>
        <time>2011-11-06T07:25:39Z</time>
      </trkpt>
      <trkpt lat="50.3473" lon="3.34544">
        <ele>38.5900879</ele>
        <time>2011-11-06T07:25:43Z</time>
      </trkpt>
      <trkpt lat="50.34723" lon="3.34538">
        <ele>38.109375</ele>
        <time>2011-11-06T07:25:45Z</time>
      </trkpt>
      <trkpt lat="50.34723" lon="3.34521">
        <ele>38.5900879</ele>
        <time>2011-11-06T07:25:48Z</time>
      </trkpt>
      <trkpt lat="50.34729" lon="3.34491">
        <ele>38.5900879</ele>
        <time>2011-11-06T07:25:54Z</time>
      </trkpt>
      <trkpt lat="50.34717" lon="3.34467">
        <ele>37.6286621</ele>
        <time>2011-11-06T07:25:59Z</time>
      </trkpt>
      <trkpt lat="50.34708" lon="3.34439">
        <ele>38.109375</ele>
        <time>2011-11-06T07:26:04Z</time>
      </trkpt>
      <trkpt lat="50.34708" lon="3.34433">
        <ele>38.109375</ele>
        <time>2011-11-06T07:26:05Z</time>
      </trkpt>
      <trkpt lat="50.3471" lon="3.34421">
        <ele>38.5900879</ele>
        <time>2011-11-06T07:26:07Z</time>
      </trkpt>
      <trkpt lat="50.34722" lon="3.34402">
        <ele>40.5128174</ele>
        <time>2011-11-06T07:26:12Z</time>
      </trkpt>
      <trkpt lat="50.34729" lon="3.34401">
        <ele>40.9934082</ele>
        <time>2011-11-06T07:26:14Z</time>
      </trkpt>
      <trkpt lat="50.34753" lon="3.34411">
        <ele>40.5128174</ele>
        <time>2011-11-06T07:26:21Z</time>
      </trkpt>
      <trkpt lat="50.34768" lon="3.34415">
        <ele>40.9934082</ele>
        <time>2011-11-06T07:26:27Z</time>
      </trkpt>
      <trkpt lat="50.34777" lon="3.34419">
        <ele>40.5128174</ele>
        <time>2011-11-06T07:26:32Z</time>
      </trkpt>
      <trkpt lat="50.34798" lon="3.34425">
        <ele>40.0321045</ele>
        <time>2011-11-06T07:26:38Z</time>
      </trkpt>
      <trkpt lat="50.34813" lon="3.3444">
        <ele>38.109375</ele>
        <time>2011-11-06T07:26:42Z</time>
      </trkpt>
      <trkpt lat="50.34827" lon="3.34456">
        <ele>36.6674805</ele>
        <time>2011-11-06T07:26:45Z</time>
      </trkpt>
      <trkpt lat="50.34845" lon="3.34459">
        <ele>35.7060547</ele>
        <time>2011-11-06T07:26:50Z</time>
      </trkpt>
      <trkpt lat="50.34863" lon="3.34455">
        <ele>34.744873</ele>
        <time>2011-11-06T07:26:54Z</time>
      </trkpt>
      <trkpt lat="50.34877" lon="3.34438">
        <ele>33.7834473</ele>
        <time>2011-11-06T07:26:59Z</time>
      </trkpt>
      <trkpt lat="50.34871" lon="3.34431">
        <ele>33.7834473</ele>
        <time>2011-11-06T07:27:01Z</time>
      </trkpt>
      <trkpt lat="50.3486" lon="3.34406">
        <ele>32.8222656</ele>
        <time>2011-11-06T07:27:06Z</time>
      </trkpt>
      <trkpt lat="50.34859" lon="3.34374">
        <ele>33.3028564</ele>
        <time>2011-11-06T07:27:10Z</time>
      </trkpt>
      <trkpt lat="50.34852" lon="3.3436">
        <ele>33.7834473</ele>
        <time>2011-11-06T07:27:14Z</time>
      </trkpt>
      <trkpt lat="50.34834" lon="3.34353">
        <ele>34.2641602</ele>
        <time>2011-11-06T07:27:19Z</time>
      </trkpt>
      <trkpt lat="50.34827" lon="3.34334">
        <ele>34.744873</ele>
        <time>2011-11-06T07:27:23Z</time>
      </trkpt>
      <trkpt lat="50.34827" lon="3.34327">
        <ele>34.744873</ele>
        <time>2011-11-06T07:27:24Z</time>
      </trkpt>
      <trkpt lat="50.34829" lon="3.34262">
        <ele>35.7060547</ele>
        <time>2011-11-06T07:27:33Z</time>
      </trkpt>
      <trkpt lat="50.3483" lon="3.34241">
        <ele>36.1867676</ele>
        <time>2011-11-06T07:27:36Z</time>
      </trkpt>
      <trkpt lat="50.34838" lon="3.3423">
        <ele>35.7060547</ele>
        <time>2011-11-06T07:27:40Z</time>
      </trkpt>
      <trkpt lat="50.34866" lon="3.34232">
        <ele>35.2254639</ele>
        <time>2011-11-06T07:27:46Z</time>
      </trkpt>
      <trkpt lat="50.34908" lon="3.34243">
        <ele>33.7834473</ele>
        <time>2011-11-06T07:27:54Z</time>
      </trkpt>
      <trkpt lat="50.34953" lon="3.34263">
        <ele>32.8222656</ele>
        <time>2011-11-06T07:28:03Z</time>
      </trkpt>
      <trkpt lat="50.34996" lon="3.34283">
        <ele>32.8222656</ele>
        <time>2011-11-06T07:28:12Z</time>
      </trkpt>
      <trkpt lat="50.35031" lon="3.34295">
        <ele>32.3415527</ele>
        <time>2011-11-06T07:28:20Z</time>
      </trkpt>
      <trkpt lat="50.35073" lon="3.34306">
        <ele>31.8607178</ele>
        <time>2011-11-06T07:28:30Z</time>
      </trkpt>
      <trkpt lat="50.35096" lon="3.34312">
        <ele>31.8607178</ele>
        <time>2011-11-06T07:28:35Z</time>
      </trkpt>
      <trkpt lat="50.35128" lon="3.34322">
        <ele>31.8607178</ele>
        <time>2011-11-06T07:28:40Z</time>
      </trkpt>
      <trkpt lat="50.35171" lon="3.34336">
        <ele>31.380127</ele>
        <time>2011-11-06T07:28:47Z</time>
      </trkpt>
      <trkpt lat="50.35233" lon="3.34355">
        <ele>31.380127</ele>
        <time>2011-11-06T07:28:57Z</time>
      </trkpt>
      <trkpt lat="50.35283" lon="3.34376">
        <ele>30.8995361</ele>
        <time>2011-11-06T07:29:05Z</time>
      </trkpt>
      <trkpt lat="50.35338" lon="3.34404">
        <ele>29.9381104</ele>
        <time>2011-11-06T07:29:14Z</time>
      </trkpt>
      <trkpt lat="50.35373" lon="3.34425">
        <ele>28.9769287</ele>
        <time>2011-11-06T07:29:20Z</time>
      </trkpt>
      <trkpt lat="50.3543" lon="3.34464">
        <ele>28.4962158</ele>
        <time>2011-11-06T07:29:30Z</time>
      </trkpt>
      <trkpt lat="50.35466" lon="3.34497">
        <ele>28.4962158</ele>
        <time>2011-11-06T07:29:37Z</time>
      </trkpt>
      <trkpt lat="50.355" lon="3.34532">
        <ele>28.4962158</ele>
        <time>2011-11-06T07:29:44Z</time>
      </trkpt>
      <trkpt lat="50.35538" lon="3.34557">
        <ele>28.0155029</ele>
        <time>2011-11-06T07:29:51Z</time>
      </trkpt>
      <trkpt lat="50.35587" lon="3.34591">
        <ele>27.5349121</ele>
        <time>2011-11-06T07:30:00Z</time>
      </trkpt>
      <trkpt lat="50.35645" lon="3.34629">
        <ele>27.0543213</ele>
        <time>2011-11-06T07:30:10Z</time>
      </trkpt>
      <trkpt lat="50.35689" lon="3.34666">
        <ele>26.0928955</ele>
        <time>2011-11-06T07:30:18Z</time>
      </trkpt>
      <trkpt lat="50.35723" lon="3.3469">
        <ele>25.1317139</ele>
        <time>2011-11-06T07:30:24Z</time>
      </trkpt>
      <trkpt lat="50.35764" lon="3.3471">
        <ele>24.651001</ele>
        <time>2011-11-06T07:30:31Z</time>
      </trkpt>
      <trkpt lat="50.35813" lon="3.34737">
        <ele>23.6895752</ele>
        <time>2011-11-06T07:30:39Z</time>
      </trkpt>
      <trkpt lat="50.35867" lon="3.34778">
        <ele>22.7282715</ele>
        <time>2011-11-06T07:30:49Z</time>
      </trkpt>
      <trkpt lat="50.35872" lon="3.34782">
        <ele>22.7282715</ele>
        <time>2011-11-06T07:30:50Z</time>
      </trkpt>
      <trkpt lat="50.35899" lon="3.34819">
        <ele>22.7282715</ele>
        <time>2011-11-06T07:30:56Z</time>
      </trkpt>
      <trkpt lat="50.35912" lon="3.34853">
        <ele>22.2475586</ele>
        <time>2011-11-06T07:31:00Z</time>
      </trkpt>
      <trkpt lat="50.35919" lon="3.34895">
        <ele>22.2475586</ele>
        <time>2011-11-06T07:31:04Z</time>
      </trkpt>
      <trkpt lat="50.35915" lon="3.34962">
        <ele>22.2475586</ele>
        <time>2011-11-06T07:31:10Z</time>
      </trkpt>
      <trkpt lat="50.35901" lon="3.3503">
        <ele>21.286377</ele>
        <time>2011-11-06T07:31:16Z</time>
      </trkpt>
      <trkpt lat="50.35878" lon="3.35135">
        <ele>20.3249512</ele>
        <time>2011-11-06T07:31:25Z</time>
      </trkpt>
      <trkpt lat="50.35859" lon="3.35237">
        <ele>20.3249512</ele>
        <time>2011-11-06T07:31:34Z</time>
      </trkpt>
      <trkpt lat="50.35845" lon="3.35301">
        <ele>20.8056641</ele>
        <time>2011-11-06T07:31:40Z</time>
      </trkpt>
      <trkpt lat="50.35826" lon="3.35396">
        <ele>21.286377</ele>
        <time>2011-11-06T07:31:49Z</time>
      </trkpt>
      <trkpt lat="50.35807" lon="3.35485">
        <ele>21.7669678</ele>
        <time>2011-11-06T07:31:58Z</time>
      </trkpt>
      <trkpt lat="50.35792" lon="3.35566">
        <ele>22.2475586</ele>
        <time>2011-11-06T07:32:06Z</time>
      </trkpt>
      <trkpt lat="50.35777" lon="3.35644">
        <ele>22.7282715</ele>
        <time>2011-11-06T07:32:14Z</time>
      </trkpt>
      <trkpt lat="50.35761" lon="3.35716">
        <ele>24.1702881</ele>
        <time>2011-11-06T07:32:22Z</time>
      </trkpt>
      <trkpt lat="50.35749" lon="3.35758">
        <ele>25.1317139</ele>
        <time>2011-11-06T07:32:28Z</time>
      </trkpt>
      <trkpt lat="50.35732" lon="3.35791">
        <ele>25.6123047</ele>
        <time>2011-11-06T07:32:34Z</time>
      </trkpt>
      <trkpt lat="50.3572" lon="3.35817">
        <ele>25.6123047</ele>
        <time>2011-11-06T07:32:38Z</time>
      </trkpt>
      <trkpt lat="50.35714" lon="3.35855">
        <ele>25.6123047</ele>
        <time>2011-11-06T07:32:43Z</time>
      </trkpt>
      <trkpt lat="50.35712" lon="3.35871">
        <ele>25.6123047</ele>
        <time>2011-11-06T07:32:45Z</time>
      </trkpt>
      <trkpt lat="50.35705" lon="3.35955">
        <ele>26.5736084</ele>
        <time>2011-11-06T07:32:55Z</time>
      </trkpt>
      <trkpt lat="50.35702" lon="3.3598">
        <ele>26.0928955</ele>
        <time>2011-11-06T07:32:58Z</time>
      </trkpt>
      <trkpt lat="50.35684" lon="3.36052">
        <ele>27.5349121</ele>
        <time>2011-11-06T07:33:07Z</time>
      </trkpt>
      <trkpt lat="50.35664" lon="3.36118">
        <ele>28.4962158</ele>
        <time>2011-11-06T07:33:15Z</time>
      </trkpt>
      <trkpt lat="50.35647" lon="3.36175">
        <ele>28.9769287</ele>
        <time>2011-11-06T07:33:22Z</time>
      </trkpt>
      <trkpt lat="50.35632" lon="3.3624">
        <ele>28.9769287</ele>
        <time>2011-11-06T07:33:30Z</time>
      </trkpt>
      <trkpt lat="50.35624" lon="3.36316">
        <ele>29.9381104</ele>
        <time>2011-11-06T07:33:38Z</time>
      </trkpt>
      <trkpt lat="50.35615" lon="3.36377">
        <ele>30.4188232</ele>
        <time>2011-11-06T07:33:44Z</time>
      </trkpt>
      <trkpt lat="50.35606" lon="3.36451">
        <ele>31.380127</ele>
        <time>2011-11-06T07:33:51Z</time>
      </trkpt>
      <trkpt lat="50.35599" lon="3.36513">
        <ele>32.3415527</ele>
        <time>2011-11-06T07:33:57Z</time>
      </trkpt>
      <trkpt lat="50.35601" lon="3.36574">
        <ele>33.7834473</ele>
        <time>2011-11-06T07:34:03Z</time>
      </trkpt>
      <trkpt lat="50.35608" lon="3.36635">
        <ele>34.2641602</ele>
        <time>2011-11-06T07:34:09Z</time>
      </trkpt>
      <trkpt lat="50.35613" lon="3.36684">
        <ele>34.2641602</ele>
        <time>2011-11-06T07:34:14Z</time>
      </trkpt>
      <trkpt lat="50.35618" lon="3.36761">
        <ele>33.7834473</ele>
        <time>2011-11-06T07:34:22Z</time>
      </trkpt>
      <trkpt lat="50.35619" lon="3.36789">
        <ele>33.7834473</ele>
        <time>2011-11-06T07:34:25Z</time>
      </trkpt>
      <trkpt lat="50.35618" lon="3.36844">
        <ele>33.3028564</ele>
        <time>2011-11-06T07:34:31Z</time>
      </trkpt>
      <trkpt lat="50.35609" lon="3.36902">
        <ele>33.7834473</ele>
        <time>2011-11-06T07:34:38Z</time>
      </trkpt>
      <trkpt lat="50.35596" lon="3.3699">
        <ele>34.2641602</ele>
        <time>2011-11-06T07:34:49Z</time>
      </trkpt>
      <trkpt lat="50.3558" lon="3.37052">
        <ele>35.7060547</ele>
        <time>2011-11-06T07:34:57Z</time>
      </trkpt>
      <trkpt lat="50.35552" lon="3.3714">
        <ele>37.6286621</ele>
        <time>2011-11-06T07:35:09Z</time>
      </trkpt>
      <trkpt lat="50.35524" lon="3.37225">
        <ele>40.0321045</ele>
        <time>2011-11-06T07:35:21Z</time>
      </trkpt>
      <trkpt lat="50.35508" lon="3.37283">
        <ele>41.473999</ele>
        <time>2011-11-06T07:35:29Z</time>
      </trkpt>
      <trkpt lat="50.355" lon="3.37334">
        <ele>41.9547119</ele>
        <time>2011-11-06T07:35:36Z</time>
      </trkpt>
      <trkpt lat="50.35487" lon="3.37398">
        <ele>42.9160156</ele>
        <time>2011-11-06T07:35:44Z</time>
      </trkpt>
      <trkpt lat="50.35477" lon="3.37456">
        <ele>43.3966064</ele>
        <time>2011-11-06T07:35:51Z</time>
      </trkpt>
      <trkpt lat="50.35468" lon="3.37524">
        <ele>43.3966064</ele>
        <time>2011-11-06T07:35:59Z</time>
      </trkpt>
      <trkpt lat="50.35463" lon="3.37594">
        <ele>42.4354248</ele>
        <time>2011-11-06T07:36:07Z</time>
      </trkpt>
      <trkpt lat="50.35462" lon="3.37628">
        <ele>41.9547119</ele>
        <time>2011-11-06T07:36:11Z</time>
      </trkpt>
      <trkpt lat="50.35458" lon="3.37714">
        <ele>41.9547119</ele>
        <time>2011-11-06T07:36:21Z</time>
      </trkpt>
      <trkpt lat="50.35455" lon="3.37802">
        <ele>41.473999</ele>
        <time>2011-11-06T07:36:31Z</time>
      </trkpt>
      <trkpt lat="50.35451" lon="3.37874">
        <ele>40.5128174</ele>
        <time>2011-11-06T07:36:39Z</time>
      </trkpt>
      <trkpt lat="50.35444" lon="3.37971">
        <ele>39.5512695</ele>
        <time>2011-11-06T07:36:49Z</time>
      </trkpt>
      <trkpt lat="50.35436" lon="3.38078">
        <ele>39.0706787</ele>
        <time>2011-11-06T07:36:59Z</time>
      </trkpt>
      <trkpt lat="50.35429" lon="3.38183">
        <ele>38.5900879</ele>
        <time>2011-11-06T07:37:09Z</time>
      </trkpt>
      <trkpt lat="50.35429" lon="3.38239">
        <ele>38.5900879</ele>
        <time>2011-11-06T07:37:15Z</time>
      </trkpt>
      <trkpt lat="50.35429" lon="3.38262">
        <ele>38.109375</ele>
        <time>2011-11-06T07:37:19Z</time>
      </trkpt>
      <trkpt lat="50.3543" lon="3.38264">
        <ele>37.6286621</ele>
        <time>2011-11-06T07:37:22Z</time>
      </trkpt>
      <trkpt lat="50.35429" lon="3.38265">
        <ele>38.109375</ele>
        <time>2011-11-06T07:38:18Z</time>
      </trkpt>
      <trkpt lat="50.3543" lon="3.38285">
        <ele>38.109375</ele>
        <time>2011-11-06T07:38:23Z</time>
      </trkpt>
      <trkpt lat="50.35431" lon="3.38325">
        <ele>37.1480713</ele>
        <time>2011-11-06T07:38:29Z</time>
      </trkpt>
      <trkpt lat="50.35433" lon="3.38402">
        <ele>36.1867676</ele>
        <time>2011-11-06T07:38:38Z</time>
      </trkpt>
      <trkpt lat="50.35434" lon="3.38421">
        <ele>35.7060547</ele>
        <time>2011-11-06T07:38:40Z</time>
      </trkpt>
      <trkpt lat="50.35432" lon="3.38485">
        <ele>34.2641602</ele>
        <time>2011-11-06T07:38:47Z</time>
      </trkpt>
      <trkpt lat="50.35428" lon="3.38561">
        <ele>33.3028564</ele>
        <time>2011-11-06T07:38:55Z</time>
      </trkpt>
      <trkpt lat="50.35423" lon="3.38637">
        <ele>32.8222656</ele>
        <time>2011-11-06T07:39:03Z</time>
      </trkpt>
      <trkpt lat="50.35415" lon="3.38725">
        <ele>31.8607178</ele>
        <time>2011-11-06T07:39:13Z</time>
      </trkpt>
      <trkpt lat="50.35407" lon="3.38816">
        <ele>31.380127</ele>
        <time>2011-11-06T07:39:23Z</time>
      </trkpt>
      <trkpt lat="50.354" lon="3.38898">
        <ele>30.4188232</ele>
        <time>2011-11-06T07:39:32Z</time>
      </trkpt>
      <trkpt lat="50.35392" lon="3.3901">
        <ele>29.4575195</ele>
        <time>2011-11-06T07:39:44Z</time>
      </trkpt>
      <trkpt lat="50.35384" lon="3.39122">
        <ele>28.9769287</ele>
        <time>2011-11-06T07:39:56Z</time>
      </trkpt>
      <trkpt lat="50.35381" lon="3.39204">
        <ele>28.4962158</ele>
        <time>2011-11-06T07:40:05Z</time>
      </trkpt>
      <trkpt lat="50.35377" lon="3.39288">
        <ele>28.4962158</ele>
        <time>2011-11-06T07:40:14Z</time>
      </trkpt>
      <trkpt lat="50.35361" lon="3.39371">
        <ele>27.5349121</ele>
        <time>2011-11-06T07:40:23Z</time>
      </trkpt>
      <trkpt lat="50.35341" lon="3.39469">
        <ele>27.5349121</ele>
        <time>2011-11-06T07:40:34Z</time>
      </trkpt>
      <trkpt lat="50.35323" lon="3.39555">
        <ele>27.5349121</ele>
        <time>2011-11-06T07:40:44Z</time>
      </trkpt>
      <trkpt lat="50.3531" lon="3.3961">
        <ele>28.0155029</ele>
        <time>2011-11-06T07:40:51Z</time>
      </trkpt>
      <trkpt lat="50.35301" lon="3.39655">
        <ele>28.0155029</ele>
        <time>2011-11-06T07:40:57Z</time>
      </trkpt>
      <trkpt lat="50.35295" lon="3.39698">
        <ele>28.4962158</ele>
        <time>2011-11-06T07:41:02Z</time>
      </trkpt>
      <trkpt lat="50.35287" lon="3.39773">
        <ele>28.4962158</ele>
        <time>2011-11-06T07:41:10Z</time>
      </trkpt>
      <trkpt lat="50.35281" lon="3.39823">
        <ele>28.4962158</ele>
        <time>2011-11-06T07:41:15Z</time>
      </trkpt>
      <trkpt lat="50.35268" lon="3.39854">
        <ele>28.0155029</ele>
        <time>2011-11-06T07:41:19Z</time>
      </trkpt>
      <trkpt lat="50.35265" lon="3.3988">
        <ele>27.5349121</ele>
        <time>2011-11-06T07:41:22Z</time>
      </trkpt>
      <trkpt lat="50.35266" lon="3.39889">
        <ele>27.5349121</ele>
        <time>2011-11-06T07:41:23Z</time>
      </trkpt>
      <trkpt lat="50.35274" lon="3.39948">
        <ele>27.5349121</ele>
        <time>2011-11-06T07:41:29Z</time>
      </trkpt>
      <trkpt lat="50.35277" lon="3.40043">
        <ele>26.5736084</ele>
        <time>2011-11-06T07:41:38Z</time>
      </trkpt>
      <trkpt lat="50.35276" lon="3.40144">
        <ele>26.5736084</ele>
        <time>2011-11-06T07:41:47Z</time>
      </trkpt>
      <trkpt lat="50.35276" lon="3.40225">
        <ele>27.0543213</ele>
        <time>2011-11-06T07:41:54Z</time>
      </trkpt>
      <trkpt lat="50.35279" lon="3.40252">
        <ele>27.0543213</ele>
        <time>2011-11-06T07:41:57Z</time>
      </trkpt>
      <trkpt lat="50.3529" lon="3.40269">
        <ele>28.0155029</ele>
        <time>2011-11-06T07:42:01Z</time>
      </trkpt>
      <trkpt lat="50.35296" lon="3.4027">
        <ele>28.4962158</ele>
        <time>2011-11-06T07:42:02Z</time>
      </trkpt>
      <trkpt lat="50.35338" lon="3.40284">
        <ele>29.4575195</ele>
        <time>2011-11-06T07:42:10Z</time>
      </trkpt>
      <trkpt lat="50.35344" lon="3.40286">
        <ele>29.9381104</ele>
        <time>2011-11-06T07:42:11Z</time>
      </trkpt>
      <trkpt lat="50.3538" lon="3.40306">
        <ele>29.4575195</ele>
        <time>2011-11-06T07:42:18Z</time>
      </trkpt>
      <trkpt lat="50.35413" lon="3.40315">
        <ele>29.4575195</ele>
        <time>2011-11-06T07:42:24Z</time>
      </trkpt>
      <trkpt lat="50.35427" lon="3.40338">
        <ele>30.8995361</ele>
        <time>2011-11-06T07:42:28Z</time>
      </trkpt>
      <trkpt lat="50.35436" lon="3.40404">
        <ele>29.4575195</ele>
        <time>2011-11-06T07:42:36Z</time>
      </trkpt>
      <trkpt lat="50.35456" lon="3.40492">
        <ele>29.4575195</ele>
        <time>2011-11-06T07:42:46Z</time>
      </trkpt>
      <trkpt lat="50.35475" lon="3.40573">
        <ele>28.0155029</ele>
        <time>2011-11-06T07:42:55Z</time>
      </trkpt>
      <trkpt lat="50.35497" lon="3.40671">
        <ele>26.5736084</ele>
        <time>2011-11-06T07:43:06Z</time>
      </trkpt>
      <trkpt lat="50.35501" lon="3.40687">
        <ele>26.0928955</ele>
        <time>2011-11-06T07:43:08Z</time>
      </trkpt>
      <trkpt lat="50.35497" lon="3.40713">
        <ele>25.6123047</ele>
        <time>2011-11-06T07:43:12Z</time>
      </trkpt>
      <trkpt lat="50.35493" lon="3.40717">
        <ele>25.6123047</ele>
        <time>2011-11-06T07:43:13Z</time>
      </trkpt>
      <trkpt lat="50.35471" lon="3.40739">
        <ele>24.651001</ele>
        <time>2011-11-06T07:43:18Z</time>
      </trkpt>
      <trkpt lat="50.3546" lon="3.40763">
        <ele>24.651001</ele>
        <time>2011-11-06T07:43:22Z</time>
      </trkpt>
      <trkpt lat="50.35462" lon="3.40774">
        <ele>24.651001</ele>
        <time>2011-11-06T07:43:24Z</time>
      </trkpt>
      <trkpt lat="50.35464" lon="3.40781">
        <ele>25.1317139</ele>
        <time>2011-11-06T07:43:27Z</time>
      </trkpt>
      <trkpt lat="50.35462" lon="3.40789">
        <ele>24.651001</ele>
        <time>2011-11-06T07:43:32Z</time>
      </trkpt>
      <trkpt lat="50.35461" lon="3.40813">
        <ele>24.651001</ele>
        <time>2011-11-06T07:43:39Z</time>
      </trkpt>
      <trkpt lat="50.35464" lon="3.40844">
        <ele>24.651001</ele>
        <time>2011-11-06T07:43:47Z</time>
      </trkpt>
      <trkpt lat="50.35468" lon="3.40879">
        <ele>24.651001</ele>
        <time>2011-11-06T07:43:55Z</time>
      </trkpt>
      <trkpt lat="50.35474" lon="3.40917">
        <ele>25.6123047</ele>
        <time>2011-11-06T07:44:03Z</time>
      </trkpt>
      <trkpt lat="50.35476" lon="3.40947">
        <ele>24.651001</ele>
        <time>2011-11-06T07:44:08Z</time>
      </trkpt>
      <trkpt lat="50.35484" lon="3.41005">
        <ele>23.6895752</ele>
        <time>2011-11-06T07:44:16Z</time>
      </trkpt>
      <trkpt lat="50.35501" lon="3.41103">
        <ele>21.286377</ele>
        <time>2011-11-06T07:44:29Z</time>
      </trkpt>
      <trkpt lat="50.35504" lon="3.41127">
        <ele>21.286377</ele>
        <time>2011-11-06T07:44:32Z</time>
      </trkpt>
      <trkpt lat="50.35505" lon="3.4114">
        <ele>20.8056641</ele>
        <time>2011-11-06T07:44:34Z</time>
      </trkpt>
      <trkpt lat="50.3551" lon="3.41154">
        <ele>20.8056641</ele>
        <time>2011-11-06T07:44:38Z</time>
      </trkpt>
      <trkpt lat="50.35512" lon="3.41165">
        <ele>21.286377</ele>
        <time>2011-11-06T07:44:44Z</time>
      </trkpt>
      <trkpt lat="50.35512" lon="3.41164">
        <ele>20.8056641</ele>
        <time>2011-11-06T07:44:45Z</time>
      </trkpt>
      <trkpt lat="50.35519" lon="3.4116">
        <ele>28.0155029</ele>
        <time>2011-11-06T07:45:09Z</time>
      </trkpt>
      <trkpt lat="50.35519" lon="3.41161">
        <ele>29.4575195</ele>
        <time>2011-11-06T07:45:10Z</time>
      </trkpt>
      <trkpt lat="50.35512" lon="3.4118">
        <ele>29.9381104</ele>
        <time>2011-11-06T07:45:51Z</time>
      </trkpt>
      <trkpt lat="50.35517" lon="3.41206">
        <ele>28.0155029</ele>
        <time>2011-11-06T07:45:56Z</time>
      </trkpt>
      <trkpt lat="50.35523" lon="3.41247">
        <ele>25.6123047</ele>
        <time>2011-11-06T07:46:03Z</time>
      </trkpt>
      <trkpt lat="50.35527" lon="3.4128">
        <ele>24.651001</ele>
        <time>2011-11-06T07:46:08Z</time>
      </trkpt>
      <trkpt lat="50.35537" lon="3.4129">
        <ele>23.6895752</ele>
        <time>2011-11-06T07:46:12Z</time>
      </trkpt>
      <trkpt lat="50.35545" lon="3.41287">
        <ele>22.7282715</ele>
        <time>2011-11-06T07:46:14Z</time>
      </trkpt>
      <trkpt lat="50.35566" lon="3.41277">
        <ele>21.7669678</ele>
        <time>2011-11-06T07:46:19Z</time>
      </trkpt>
      <trkpt lat="50.35608" lon="3.41263">
        <ele>20.3249512</ele>
        <time>2011-11-06T07:46:27Z</time>
      </trkpt>
      <trkpt lat="50.35625" lon="3.41231">
        <ele>20.3249512</ele>
        <time>2011-11-06T07:46:32Z</time>
      </trkpt>
      <trkpt lat="50.35639" lon="3.41189">
        <ele>18.8830566</ele>
        <time>2011-11-06T07:46:37Z</time>
      </trkpt>
      <trkpt lat="50.35661" lon="3.41172">
        <ele>18.8830566</ele>
        <time>2011-11-06T07:46:41Z</time>
      </trkpt>
      <trkpt lat="50.35679" lon="3.41176">
        <ele>18.8830566</ele>
        <time>2011-11-06T07:46:44Z</time>
      </trkpt>
      <trkpt lat="50.35696" lon="3.41169">
        <ele>19.8443604</ele>
        <time>2011-11-06T07:46:47Z</time>
      </trkpt>
      <trkpt lat="50.357" lon="3.41162">
        <ele>20.3249512</ele>
        <time>2011-11-06T07:46:48Z</time>
      </trkpt>
      <trkpt lat="50.35724" lon="3.41139">
        <ele>21.286377</ele>
        <time>2011-11-06T07:46:53Z</time>
      </trkpt>
      <trkpt lat="50.35753" lon="3.41134">
        <ele>21.7669678</ele>
        <time>2011-11-06T07:46:58Z</time>
      </trkpt>
      <trkpt lat="50.35776" lon="3.41126">
        <ele>22.7282715</ele>
        <time>2011-11-06T07:47:02Z</time>
      </trkpt>
      <trkpt lat="50.35793" lon="3.41119">
        <ele>23.2089844</ele>
        <time>2011-11-06T07:47:06Z</time>
      </trkpt>
      <trkpt lat="50.35795" lon="3.41113">
        <ele>23.2089844</ele>
        <time>2011-11-06T07:47:07Z</time>
      </trkpt>
      <trkpt lat="50.3581" lon="3.41099">
        <ele>23.6895752</ele>
        <time>2011-11-06T07:47:12Z</time>
      </trkpt>
      <trkpt lat="50.35844" lon="3.41093">
        <ele>22.7282715</ele>
        <time>2011-11-06T07:47:18Z</time>
      </trkpt>
      <trkpt lat="50.35903" lon="3.41091">
        <ele>22.2475586</ele>
        <time>2011-11-06T07:47:28Z</time>
      </trkpt>
      <trkpt lat="50.35945" lon="3.41093">
        <ele>21.7669678</ele>
        <time>2011-11-06T07:47:35Z</time>
      </trkpt>
      <trkpt lat="50.35981" lon="3.41094">
        <ele>21.286377</ele>
        <time>2011-11-06T07:47:41Z</time>
      </trkpt>
      <trkpt lat="50.36015" lon="3.41095">
        <ele>20.3249512</ele>
        <time>2011-11-06T07:47:47Z</time>
      </trkpt>
      <trkpt lat="50.36025" lon="3.41096">
        <ele>19.8443604</ele>
        <time>2011-11-06T07:47:49Z</time>
      </trkpt>
      <trkpt lat="50.36037" lon="3.41082">
        <ele>18.4023438</ele>
        <time>2011-11-06T07:47:53Z</time>
      </trkpt>
      <trkpt lat="50.36059" lon="3.41051">
        <ele>17.4411621</ele>
        <time>2011-11-06T07:47:59Z</time>
      </trkpt>
      <trkpt lat="50.36079" lon="3.4103">
        <ele>17.9217529</ele>
        <time>2011-11-06T07:48:03Z</time>
      </trkpt>
      <trkpt lat="50.36095" lon="3.41016">
        <ele>18.4023438</ele>
        <time>2011-11-06T07:48:06Z</time>
      </trkpt>
      <trkpt lat="50.36117" lon="3.41011">
        <ele>18.4023438</ele>
        <time>2011-11-06T07:48:10Z</time>
      </trkpt>
      <trkpt lat="50.3618" lon="3.41028">
        <ele>20.8056641</ele>
        <time>2011-11-06T07:48:20Z</time>
      </trkpt>
      <trkpt lat="50.36232" lon="3.41041">
        <ele>21.7669678</ele>
        <time>2011-11-06T07:48:28Z</time>
      </trkpt>
      <trkpt lat="50.3627" lon="3.41054">
        <ele>20.8056641</ele>
        <time>2011-11-06T07:48:34Z</time>
      </trkpt>
      <trkpt lat="50.36301" lon="3.4106">
        <ele>21.286377</ele>
        <time>2011-11-06T07:48:39Z</time>
      </trkpt>
      <trkpt lat="50.36313" lon="3.41063">
        <ele>21.286377</ele>
        <time>2011-11-06T07:48:41Z</time>
      </trkpt>
      <trkpt lat="50.36343" lon="3.41055">
        <ele>20.8056641</ele>
        <time>2011-11-06T07:48:46Z</time>
      </trkpt>
      <trkpt lat="50.36361" lon="3.41035">
        <ele>20.8056641</ele>
        <time>2011-11-06T07:48:50Z</time>
      </trkpt>
      <trkpt lat="50.3637" lon="3.41023">
        <ele>20.3249512</ele>
        <time>2011-11-06T07:48:53Z</time>
      </trkpt>
      <trkpt lat="50.36375" lon="3.41028">
        <ele>19.8443604</ele>
        <time>2011-11-06T07:48:55Z</time>
      </trkpt>
      <trkpt lat="50.36399" lon="3.41045">
        <ele>19.3637695</ele>
        <time>2011-11-06T07:49:02Z</time>
      </trkpt>
      <trkpt lat="50.36446" lon="3.41069">
        <ele>19.8443604</ele>
        <time>2011-11-06T07:49:12Z</time>
      </trkpt>
      <trkpt lat="50.36453" lon="3.41072">
        <ele>19.8443604</ele>
        <time>2011-11-06T07:49:14Z</time>
      </trkpt>
      <trkpt lat="50.36463" lon="3.41089">
        <ele>19.8443604</ele>
        <time>2011-11-06T07:49:19Z</time>
      </trkpt>
      <trkpt lat="50.36471" lon="3.4109">
        <ele>20.8056641</ele>
        <time>2011-11-06T07:49:21Z</time>
      </trkpt>
      <trkpt lat="50.36487" lon="3.41084">
        <ele>21.7669678</ele>
        <time>2011-11-06T07:49:25Z</time>
      </trkpt>
      <trkpt lat="50.36498" lon="3.41088">
        <ele>21.286377</ele>
        <time>2011-11-06T07:49:29Z</time>
      </trkpt>
      <trkpt lat="50.36522" lon="3.41087">
        <ele>19.8443604</ele>
        <time>2011-11-06T07:49:34Z</time>
      </trkpt>
      <trkpt lat="50.36539" lon="3.41087">
        <ele>19.8443604</ele>
        <time>2011-11-06T07:49:38Z</time>
      </trkpt>
      <trkpt lat="50.36564" lon="3.41088">
        <ele>16.9604492</ele>
        <time>2011-11-06T07:49:44Z</time>
      </trkpt>
      <trkpt lat="50.36573" lon="3.41089">
        <ele>15.9990234</ele>
        <time>2011-11-06T07:49:46Z</time>
      </trkpt>
      <trkpt lat="50.36594" lon="3.41091">
        <ele>15.9990234</ele>
        <time>2011-11-06T07:49:51Z</time>
      </trkpt>
      <trkpt lat="50.36619" lon="3.41092">
        <ele>16.4797363</ele>
        <time>2011-11-06T07:49:56Z</time>
      </trkpt>
      <trkpt lat="50.36628" lon="3.41092">
        <ele>16.9604492</ele>
        <time>2011-11-06T07:49:58Z</time>
      </trkpt>
      <trkpt lat="50.36643" lon="3.41093">
        <ele>17.4411621</ele>
        <time>2011-11-06T07:50:01Z</time>
      </trkpt>
      <trkpt lat="50.3668" lon="3.41106">
        <ele>16.9604492</ele>
        <time>2011-11-06T07:50:09Z</time>
      </trkpt>
      <trkpt lat="50.36713" lon="3.41123">
        <ele>18.8830566</ele>
        <time>2011-11-06T07:50:15Z</time>
      </trkpt>
      <trkpt lat="50.36754" lon="3.41154">
        <ele>20.3249512</ele>
        <time>2011-11-06T07:50:23Z</time>
      </trkpt>
      <trkpt lat="50.36764" lon="3.41163">
        <ele>20.8056641</ele>
        <time>2011-11-06T07:50:25Z</time>
      </trkpt>
      <trkpt lat="50.36783" lon="3.41177">
        <ele>20.8056641</ele>
        <time>2011-11-06T07:50:29Z</time>
      </trkpt>
      <trkpt lat="50.36819" lon="3.41205">
        <ele>22.2475586</ele>
        <time>2011-11-06T07:50:37Z</time>
      </trkpt>
      <trkpt lat="50.36827" lon="3.41225">
        <ele>22.2475586</ele>
        <time>2011-11-06T07:50:42Z</time>
      </trkpt>
      <trkpt lat="50.36842" lon="3.41258">
        <ele>22.2475586</ele>
        <time>2011-11-06T07:50:48Z</time>
      </trkpt>
      <trkpt lat="50.36851" lon="3.41276">
        <ele>21.7669678</ele>
        <time>2011-11-06T07:50:51Z</time>
      </trkpt>
      <trkpt lat="50.36868" lon="3.41313">
        <ele>21.286377</ele>
        <time>2011-11-06T07:50:57Z</time>
      </trkpt>
      <trkpt lat="50.36893" lon="3.41372">
        <ele>18.4023438</ele>
        <time>2011-11-06T07:51:06Z</time>
      </trkpt>
      <trkpt lat="50.36917" lon="3.41424">
        <ele>17.4411621</ele>
        <time>2011-11-06T07:51:14Z</time>
      </trkpt>
      <trkpt lat="50.36935" lon="3.41468">
        <ele>15.9990234</ele>
        <time>2011-11-06T07:51:21Z</time>
      </trkpt>
      <trkpt lat="50.36949" lon="3.41499">
        <ele>16.4797363</ele>
        <time>2011-11-06T07:51:26Z</time>
      </trkpt>
      <trkpt lat="50.36956" lon="3.41517">
        <ele>16.4797363</ele>
        <time>2011-11-06T07:51:29Z</time>
      </trkpt>
      <trkpt lat="50.36981" lon="3.41564">
        <ele>19.3637695</ele>
        <time>2011-11-06T07:51:37Z</time>
      </trkpt>
      <trkpt lat="50.36984" lon="3.4157">
        <ele>19.3637695</ele>
        <time>2011-11-06T07:51:38Z</time>
      </trkpt>
      <trkpt lat="50.36998" lon="3.41595">
        <ele>19.8443604</ele>
        <time>2011-11-06T07:51:43Z</time>
      </trkpt>
      <trkpt lat="50.37002" lon="3.41601">
        <ele>19.8443604</ele>
        <time>2011-11-06T07:51:44Z</time>
      </trkpt>
      <trkpt lat="50.37012" lon="3.41616">
        <ele>21.7669678</ele>
        <time>2011-11-06T07:51:47Z</time>
      </trkpt>
      <trkpt lat="50.37031" lon="3.41648">
        <ele>23.2089844</ele>
        <time>2011-11-06T07:51:53Z</time>
      </trkpt>
      <trkpt lat="50.37037" lon="3.41659">
        <ele>23.2089844</ele>
        <time>2011-11-06T07:51:55Z</time>
      </trkpt>
      <trkpt lat="50.3705" lon="3.41679">
        <ele>23.2089844</ele>
        <time>2011-11-06T07:51:59Z</time>
      </trkpt>
      <trkpt lat="50.37063" lon="3.41698">
        <ele>22.7282715</ele>
        <time>2011-11-06T07:52:03Z</time>
      </trkpt>
      <trkpt lat="50.37075" lon="3.41719">
        <ele>21.7669678</ele>
        <time>2011-11-06T07:52:07Z</time>
      </trkpt>
      <trkpt lat="50.37108" lon="3.41769">
        <ele>20.8056641</ele>
        <time>2011-11-06T07:52:16Z</time>
      </trkpt>
      <trkpt lat="50.37134" lon="3.41808">
        <ele>20.8056641</ele>
        <time>2011-11-06T07:52:23Z</time>
      </trkpt>
      <trkpt lat="50.37158" lon="3.41845">
        <ele>22.7282715</ele>
        <time>2011-11-06T07:52:30Z</time>
      </trkpt>
      <trkpt lat="50.37179" lon="3.41872">
        <ele>22.2475586</ele>
        <time>2011-11-06T07:52:36Z</time>
      </trkpt>
      <trkpt lat="50.37182" lon="3.41892">
        <ele>22.2475586</ele>
        <time>2011-11-06T07:52:40Z</time>
      </trkpt>
      <trkpt lat="50.37168" lon="3.41924">
        <ele>24.1702881</ele>
        <time>2011-11-06T07:52:46Z</time>
      </trkpt>
      <trkpt lat="50.37143" lon="3.41963">
        <ele>24.651001</ele>
        <time>2011-11-06T07:52:53Z</time>
      </trkpt>
      <trkpt lat="50.37132" lon="3.41979">
        <ele>25.1317139</ele>
        <time>2011-11-06T07:52:56Z</time>
      </trkpt>
      <trkpt lat="50.37117" lon="3.4201">
        <ele>26.0928955</ele>
        <time>2011-11-06T07:53:01Z</time>
      </trkpt>
      <trkpt lat="50.3711" lon="3.42055">
        <ele>27.0543213</ele>
        <time>2011-11-06T07:53:07Z</time>
      </trkpt>
      <trkpt lat="50.37103" lon="3.42098">
        <ele>27.0543213</ele>
        <time>2011-11-06T07:53:13Z</time>
      </trkpt>
      <trkpt lat="50.371" lon="3.42112">
        <ele>27.0543213</ele>
        <time>2011-11-06T07:53:15Z</time>
      </trkpt>
      <trkpt lat="50.37097" lon="3.42142">
        <ele>27.5349121</ele>
        <time>2011-11-06T07:53:19Z</time>
      </trkpt>
      <trkpt lat="50.37087" lon="3.4221">
        <ele>28.4962158</ele>
        <time>2011-11-06T07:53:28Z</time>
      </trkpt>
      <trkpt lat="50.37085" lon="3.42226">
        <ele>28.9769287</ele>
        <time>2011-11-06T07:53:30Z</time>
      </trkpt>
      <trkpt lat="50.37074" lon="3.42249">
        <ele>29.4575195</ele>
        <time>2011-11-06T07:53:34Z</time>
      </trkpt>
      <trkpt lat="50.37058" lon="3.42272">
        <ele>29.9381104</ele>
        <time>2011-11-06T07:53:39Z</time>
      </trkpt>
      <trkpt lat="50.37057" lon="3.42294">
        <ele>31.380127</ele>
        <time>2011-11-06T07:53:42Z</time>
      </trkpt>
      <trkpt lat="50.37049" lon="3.42349">
        <ele>31.8607178</ele>
        <time>2011-11-06T07:53:50Z</time>
      </trkpt>
      <trkpt lat="50.37043" lon="3.42376">
        <ele>31.8607178</ele>
        <time>2011-11-06T07:53:54Z</time>
      </trkpt>
      <trkpt lat="50.37023" lon="3.42434">
        <ele>32.8222656</ele>
        <time>2011-11-06T07:54:03Z</time>
      </trkpt>
      <trkpt lat="50.37002" lon="3.42493">
        <ele>33.7834473</ele>
        <time>2011-11-06T07:54:12Z</time>
      </trkpt>
      <trkpt lat="50.36983" lon="3.42554">
        <ele>34.744873</ele>
        <time>2011-11-06T07:54:21Z</time>
      </trkpt>
      <trkpt lat="50.36965" lon="3.42602">
        <ele>35.7060547</ele>
        <time>2011-11-06T07:54:28Z</time>
      </trkpt>
      <trkpt lat="50.36954" lon="3.4263">
        <ele>37.1480713</ele>
        <time>2011-11-06T07:54:32Z</time>
      </trkpt>
      <trkpt lat="50.36949" lon="3.42642">
        <ele>37.1480713</ele>
        <time>2011-11-06T07:54:34Z</time>
      </trkpt>
      <trkpt lat="50.3695" lon="3.42661">
        <ele>37.6286621</ele>
        <time>2011-11-06T07:54:38Z</time>
      </trkpt>
      <trkpt lat="50.36954" lon="3.42667">
        <ele>37.6286621</ele>
        <time>2011-11-06T07:54:40Z</time>
      </trkpt>
      <trkpt lat="50.36974" lon="3.42688">
        <ele>38.5900879</ele>
        <time>2011-11-06T07:54:47Z</time>
      </trkpt>
      <trkpt lat="50.36994" lon="3.42698">
        <ele>38.109375</ele>
        <time>2011-11-06T07:54:52Z</time>
      </trkpt>
      <trkpt lat="50.37029" lon="3.42711">
        <ele>37.6286621</ele>
        <time>2011-11-06T07:55:00Z</time>
      </trkpt>
      <trkpt lat="50.37067" lon="3.42727">
        <ele>37.1480713</ele>
        <time>2011-11-06T07:55:08Z</time>
      </trkpt>
      <trkpt lat="50.37109" lon="3.42746">
        <ele>36.6674805</ele>
        <time>2011-11-06T07:55:16Z</time>
      </trkpt>
      <trkpt lat="50.37153" lon="3.42763">
        <ele>36.6674805</ele>
        <time>2011-11-06T07:55:24Z</time>
      </trkpt>
      <trkpt lat="50.37204" lon="3.42784">
        <ele>36.6674805</ele>
        <time>2011-11-06T07:55:33Z</time>
      </trkpt>
      <trkpt lat="50.37234" lon="3.42809">
        <ele>36.6674805</ele>
        <time>2011-11-06T07:55:39Z</time>
      </trkpt>
      <trkpt lat="50.37248" lon="3.42825">
        <ele>36.6674805</ele>
        <time>2011-11-06T07:55:42Z</time>
      </trkpt>
      <trkpt lat="50.3727" lon="3.42835">
        <ele>36.1867676</ele>
        <time>2011-11-06T07:55:46Z</time>
      </trkpt>
      <trkpt lat="50.37326" lon="3.42834">
        <ele>36.1867676</ele>
        <time>2011-11-06T07:55:55Z</time>
      </trkpt>
      <trkpt lat="50.37368" lon="3.42834">
        <ele>35.7060547</ele>
        <time>2011-11-06T07:56:02Z</time>
      </trkpt>
      <trkpt lat="50.37398" lon="3.42833">
        <ele>35.7060547</ele>
        <time>2011-11-06T07:56:07Z</time>
      </trkpt>
      <trkpt lat="50.3741" lon="3.42815">
        <ele>35.7060547</ele>
        <time>2011-11-06T07:56:10Z</time>
      </trkpt>
      <trkpt lat="50.3741" lon="3.42806">
        <ele>35.7060547</ele>
        <time>2011-11-06T07:56:11Z</time>
      </trkpt>
      <trkpt lat="50.37408" lon="3.42739">
        <ele>36.1867676</ele>
        <time>2011-11-06T07:56:18Z</time>
      </trkpt>
      <trkpt lat="50.37416" lon="3.42717">
        <ele>35.2254639</ele>
        <time>2011-11-06T07:56:21Z</time>
      </trkpt>
      <trkpt lat="50.37422" lon="3.42716">
        <ele>35.2254639</ele>
        <time>2011-11-06T07:56:22Z</time>
      </trkpt>
      <trkpt lat="50.37481" lon="3.42706">
        <ele>35.2254639</ele>
        <time>2011-11-06T07:56:32Z</time>
      </trkpt>
      <trkpt lat="50.37549" lon="3.42695">
        <ele>35.7060547</ele>
        <time>2011-11-06T07:56:44Z</time>
      </trkpt>
      <trkpt lat="50.37554" lon="3.42694">
        <ele>35.7060547</ele>
        <time>2011-11-06T07:56:45Z</time>
      </trkpt>
      <trkpt lat="50.37575" lon="3.42695">
        <ele>36.1867676</ele>
        <time>2011-11-06T07:56:49Z</time>
      </trkpt>
      <trkpt lat="50.37589" lon="3.42698">
        <ele>35.7060547</ele>
        <time>2011-11-06T07:56:52Z</time>
      </trkpt>
      <trkpt lat="50.37595" lon="3.42698">
        <ele>36.1867676</ele>
        <time>2011-11-06T07:56:54Z</time>
      </trkpt>
      <trkpt lat="50.37597" lon="3.42697">
        <ele>36.1867676</ele>
        <time>2011-11-06T07:56:58Z</time>
      </trkpt>
      <trkpt lat="50.37605" lon="3.42694">
        <ele>33.3028564</ele>
        <time>2011-11-06T07:57:14Z</time>
      </trkpt>
      <trkpt lat="50.3762" lon="3.42694">
        <ele>32.3415527</ele>
        <time>2011-11-06T07:57:19Z</time>
      </trkpt>
      <trkpt lat="50.37629" lon="3.42694">
        <ele>32.3415527</ele>
        <time>2011-11-06T07:57:23Z</time>
      </trkpt>
      <trkpt lat="50.3763" lon="3.42693">
        <ele>32.3415527</ele>
        <time>2011-11-06T07:57:26Z</time>
      </trkpt>
      <trkpt lat="50.37637" lon="3.42694">
        <ele>32.3415527</ele>
        <time>2011-11-06T07:57:37Z</time>
      </trkpt>
      <trkpt lat="50.37642" lon="3.4269">
        <ele>32.3415527</ele>
        <time>2011-11-06T07:57:40Z</time>
      </trkpt>
      <trkpt lat="50.37644" lon="3.42691">
        <ele>32.3415527</ele>
        <time>2011-11-06T07:57:45Z</time>
      </trkpt>
      <trkpt lat="50.37655" lon="3.42691">
        <ele>32.3415527</ele>
        <time>2011-11-06T07:57:53Z</time>
      </trkpt>
      <trkpt lat="50.37657" lon="3.4269">
        <ele>32.3415527</ele>
        <time>2011-11-06T07:57:55Z</time>
      </trkpt>
      <trkpt lat="50.3766" lon="3.42691">
        <ele>32.3415527</ele>
        <time>2011-11-06T07:57:59Z</time>
      </trkpt>
      <trkpt lat="50.37673" lon="3.4269">
        <ele>32.3415527</ele>
        <time>2011-11-06T07:58:07Z</time>
      </trkpt>
      <trkpt lat="50.3768" lon="3.42689">
        <ele>31.8607178</ele>
        <time>2011-11-06T07:58:09Z</time>
      </trkpt>
      <trkpt lat="50.37687" lon="3.42678">
        <ele>31.8607178</ele>
        <time>2011-11-06T07:58:13Z</time>
      </trkpt>
      <trkpt lat="50.37687" lon="3.42659">
        <ele>32.3415527</ele>
        <time>2011-11-06T07:58:16Z</time>
      </trkpt>
      <trkpt lat="50.37686" lon="3.42625">
        <ele>31.8607178</ele>
        <time>2011-11-06T07:58:22Z</time>
      </trkpt>
      <trkpt lat="50.37703" lon="3.4262">
        <ele>29.9381104</ele>
        <time>2011-11-06T07:58:26Z</time>
      </trkpt>
      <trkpt lat="50.37719" lon="3.42616">
        <ele>28.0155029</ele>
        <time>2011-11-06T07:58:29Z</time>
      </trkpt>
      <trkpt lat="50.3774" lon="3.42615">
        <ele>27.5349121</ele>
        <time>2011-11-06T07:58:33Z</time>
      </trkpt>
      <trkpt lat="50.37787" lon="3.4263">
        <ele>28.4962158</ele>
        <time>2011-11-06T07:58:41Z</time>
      </trkpt>
      <trkpt lat="50.37814" lon="3.42636">
        <ele>29.4575195</ele>
        <time>2011-11-06T07:58:46Z</time>
      </trkpt>
      <trkpt lat="50.3783" lon="3.42626">
        <ele>32.3415527</ele>
        <time>2011-11-06T07:58:51Z</time>
      </trkpt>
      <trkpt lat="50.37846" lon="3.42613">
        <ele>32.3415527</ele>
        <time>2011-11-06T07:58:55Z</time>
      </trkpt>
      <trkpt lat="50.37857" lon="3.42609">
        <ele>32.8222656</ele>
        <time>2011-11-06T07:58:57Z</time>
      </trkpt>
      <trkpt lat="50.37884" lon="3.42605">
        <ele>32.8222656</ele>
        <time>2011-11-06T07:59:02Z</time>
      </trkpt>
      <trkpt lat="50.37911" lon="3.42594">
        <ele>32.8222656</ele>
        <time>2011-11-06T07:59:07Z</time>
      </trkpt>
      <trkpt lat="50.37929" lon="3.42574">
        <ele>32.3415527</ele>
        <time>2011-11-06T07:59:11Z</time>
      </trkpt>
      <trkpt lat="50.37937" lon="3.42549">
        <ele>32.3415527</ele>
        <time>2011-11-06T07:59:15Z</time>
      </trkpt>
      <trkpt lat="50.37946" lon="3.42547">
        <ele>31.8607178</ele>
        <time>2011-11-06T07:59:17Z</time>
      </trkpt>
      <trkpt lat="50.37951" lon="3.42547">
        <ele>31.380127</ele>
        <time>2011-11-06T07:59:18Z</time>
      </trkpt>
      <trkpt lat="50.38003" lon="3.42552">
        <ele>31.380127</ele>
        <time>2011-11-06T07:59:27Z</time>
      </trkpt>
      <trkpt lat="50.38057" lon="3.42559">
        <ele>31.8607178</ele>
        <time>2011-11-06T07:59:36Z</time>
      </trkpt>
      <trkpt lat="50.38081" lon="3.42562">
        <ele>31.8607178</ele>
        <time>2011-11-06T07:59:40Z</time>
      </trkpt>
      <trkpt lat="50.38108" lon="3.42547">
        <ele>31.8607178</ele>
        <time>2011-11-06T07:59:45Z</time>
      </trkpt>
      <trkpt lat="50.38146" lon="3.42499">
        <ele>30.8995361</ele>
        <time>2011-11-06T07:59:53Z</time>
      </trkpt>
      <trkpt lat="50.38185" lon="3.42448">
        <ele>31.8607178</ele>
        <time>2011-11-06T08:00:01Z</time>
      </trkpt>
      <trkpt lat="50.3822" lon="3.42408">
        <ele>32.8222656</ele>
        <time>2011-11-06T08:00:08Z</time>
      </trkpt>
      <trkpt lat="50.38225" lon="3.42403">
        <ele>32.8222656</ele>
        <time>2011-11-06T08:00:09Z</time>
      </trkpt>
      <trkpt lat="50.38237" lon="3.42372">
        <ele>32.8222656</ele>
        <time>2011-11-06T08:00:13Z</time>
      </trkpt>
      <trkpt lat="50.38231" lon="3.42343">
        <ele>31.380127</ele>
        <time>2011-11-06T08:00:17Z</time>
      </trkpt>
      <trkpt lat="50.38222" lon="3.42302">
        <ele>30.8995361</ele>
        <time>2011-11-06T08:00:22Z</time>
      </trkpt>
      <trkpt lat="50.38232" lon="3.42283">
        <ele>29.9381104</ele>
        <time>2011-11-06T08:00:25Z</time>
      </trkpt>
      <trkpt lat="50.38245" lon="3.42246">
        <ele>29.9381104</ele>
        <time>2011-11-06T08:00:30Z</time>
      </trkpt>
      <trkpt lat="50.38244" lon="3.42235">
        <ele>29.9381104</ele>
        <time>2011-11-06T08:00:31Z</time>
      </trkpt>
      <trkpt lat="50.38234" lon="3.4215">
        <ele>28.4962158</ele>
        <time>2011-11-06T08:00:39Z</time>
      </trkpt>
      <trkpt lat="50.3822" lon="3.42035">
        <ele>27.5349121</ele>
        <time>2011-11-06T08:00:50Z</time>
      </trkpt>
      <trkpt lat="50.38211" lon="3.41965">
        <ele>27.5349121</ele>
        <time>2011-11-06T08:00:57Z</time>
      </trkpt>
      <trkpt lat="50.3821" lon="3.41955">
        <ele>27.5349121</ele>
        <time>2011-11-06T08:00:58Z</time>
      </trkpt>
      <trkpt lat="50.38213" lon="3.41928">
        <ele>27.5349121</ele>
        <time>2011-11-06T08:01:02Z</time>
      </trkpt>
      <trkpt lat="50.38217" lon="3.4192">
        <ele>27.0543213</ele>
        <time>2011-11-06T08:01:06Z</time>
      </trkpt>
      <trkpt lat="50.38226" lon="3.41911">
        <ele>26.0928955</ele>
        <time>2011-11-06T08:01:10Z</time>
      </trkpt>
      <trkpt lat="50.38229" lon="3.41906">
        <ele>26.0928955</ele>
        <time>2011-11-06T08:01:11Z</time>
      </trkpt>
      <trkpt lat="50.38251" lon="3.41862">
        <ele>24.651001</ele>
        <time>2011-11-06T08:01:18Z</time>
      </trkpt>
      <trkpt lat="50.38277" lon="3.41808">
        <ele>24.1702881</ele>
        <time>2011-11-06T08:01:25Z</time>
      </trkpt>
      <trkpt lat="50.38281" lon="3.418">
        <ele>24.1702881</ele>
        <time>2011-11-06T08:01:26Z</time>
      </trkpt>
      <trkpt lat="50.38297" lon="3.41793">
        <ele>23.2089844</ele>
        <time>2011-11-06T08:01:30Z</time>
      </trkpt>
      <trkpt lat="50.38309" lon="3.41808">
        <ele>22.7282715</ele>
        <time>2011-11-06T08:01:33Z</time>
      </trkpt>
      <trkpt lat="50.38326" lon="3.41829">
        <ele>22.7282715</ele>
        <time>2011-11-06T08:01:37Z</time>
      </trkpt>
      <trkpt lat="50.38344" lon="3.41849">
        <ele>22.7282715</ele>
        <time>2011-11-06T08:01:41Z</time>
      </trkpt>
      <trkpt lat="50.3836" lon="3.4187">
        <ele>23.2089844</ele>
        <time>2011-11-06T08:01:45Z</time>
      </trkpt>
      <trkpt lat="50.38369" lon="3.41879">
        <ele>23.6895752</ele>
        <time>2011-11-06T08:01:47Z</time>
      </trkpt>
      <trkpt lat="50.38396" lon="3.41881">
        <ele>24.1702881</ele>
        <time>2011-11-06T08:01:52Z</time>
      </trkpt>
      <trkpt lat="50.38405" lon="3.41874">
        <ele>24.1702881</ele>
        <time>2011-11-06T08:01:54Z</time>
      </trkpt>
      <trkpt lat="50.38424" lon="3.41842">
        <ele>25.6123047</ele>
        <time>2011-11-06T08:02:00Z</time>
      </trkpt>
      <trkpt lat="50.38427" lon="3.41838">
        <ele>26.0928955</ele>
        <time>2011-11-06T08:02:01Z</time>
      </trkpt>
      <trkpt lat="50.38432" lon="3.41829">
        <ele>28.4962158</ele>
        <time>2011-11-06T08:02:05Z</time>
      </trkpt>
      <trkpt lat="50.38441" lon="3.4182">
        <ele>29.4575195</ele>
        <time>2011-11-06T08:02:10Z</time>
      </trkpt>
      <trkpt lat="50.38455" lon="3.41795">
        <ele>29.9381104</ele>
        <time>2011-11-06T08:02:16Z</time>
      </trkpt>
      <trkpt lat="50.38466" lon="3.41796">
        <ele>28.0155029</ele>
        <time>2011-11-06T08:02:20Z</time>
      </trkpt>
      <trkpt lat="50.38493" lon="3.41819">
        <ele>25.6123047</ele>
        <time>2011-11-06T08:02:28Z</time>
      </trkpt>
      <trkpt lat="50.38511" lon="3.41834">
        <ele>24.1702881</ele>
        <time>2011-11-06T08:02:34Z</time>
      </trkpt>
      <trkpt lat="50.38513" lon="3.41836">
        <ele>24.1702881</ele>
        <time>2011-11-06T08:02:35Z</time>
      </trkpt>
      <trkpt lat="50.38515" lon="3.41847">
        <ele>23.2089844</ele>
        <time>2011-11-06T08:02:39Z</time>
      </trkpt>
      <trkpt lat="50.38514" lon="3.41857">
        <ele>22.7282715</ele>
        <time>2011-11-06T08:02:42Z</time>
      </trkpt>
      <trkpt lat="50.38513" lon="3.41858">
        <ele>23.2089844</ele>
        <time>2011-11-06T08:02:45Z</time>
      </trkpt>
      <trkpt lat="50.38515" lon="3.41879">
        <ele>27.0543213</ele>
        <time>2011-11-06T08:03:00Z</time>
      </trkpt>
      <trkpt lat="50.38523" lon="3.41891">
        <ele>27.5349121</ele>
        <time>2011-11-06T08:03:03Z</time>
      </trkpt>
      <trkpt lat="50.38525" lon="3.419">
        <ele>27.5349121</ele>
        <time>2011-11-06T08:03:06Z</time>
      </trkpt>
      <trkpt lat="50.38516" lon="3.41907">
        <ele>28.9769287</ele>
        <time>2011-11-06T08:03:11Z</time>
      </trkpt>
      <trkpt lat="50.38514" lon="3.41909">
        <ele>29.4575195</ele>
        <time>2011-11-06T08:03:12Z</time>
      </trkpt>
      <trkpt lat="50.38497" lon="3.41921">
        <ele>31.8607178</ele>
        <time>2011-11-06T08:03:21Z</time>
      </trkpt>
      <trkpt lat="50.38478" lon="3.41926">
        <ele>32.3415527</ele>
        <time>2011-11-06T08:03:28Z</time>
      </trkpt>
      <trkpt lat="50.38455" lon="3.41932">
        <ele>31.8607178</ele>
        <time>2011-11-06T08:03:34Z</time>
      </trkpt>
      <trkpt lat="50.38441" lon="3.41942">
        <ele>31.8607178</ele>
        <time>2011-11-06T08:03:39Z</time>
      </trkpt>
      <trkpt lat="50.38444" lon="3.41946">
        <ele>31.380127</ele>
        <time>2011-11-06T08:03:44Z</time>
      </trkpt>
      <trkpt lat="50.38446" lon="3.41944">
        <ele>31.380127</ele>
        <time>2011-11-06T08:03:48Z</time>
      </trkpt>
      <trkpt lat="50.3844" lon="3.41944">
        <ele>35.2254639</ele>
        <time>2011-11-06T08:07:30Z</time>
      </trkpt>
      <trkpt lat="50.38428" lon="3.41951">
        <ele>34.744873</ele>
        <time>2011-11-06T08:07:35Z</time>
      </trkpt>
      <trkpt lat="50.38412" lon="3.4195">
        <ele>35.2254639</ele>
        <time>2011-11-06T08:07:40Z</time>
      </trkpt>
      <trkpt lat="50.38395" lon="3.41948">
        <ele>34.744873</ele>
        <time>2011-11-06T08:07:46Z</time>
      </trkpt>
      <trkpt lat="50.38372" lon="3.41951">
        <ele>34.744873</ele>
        <time>2011-11-06T08:07:52Z</time>
      </trkpt>
      <trkpt lat="50.38361" lon="3.41967">
        <ele>35.2254639</ele>
        <time>2011-11-06T08:07:56Z</time>
      </trkpt>
      <trkpt lat="50.38351" lon="3.42002">
        <ele>34.2641602</ele>
        <time>2011-11-06T08:08:02Z</time>
      </trkpt>
      <trkpt lat="50.38346" lon="3.42026">
        <ele>33.7834473</ele>
        <time>2011-11-06T08:08:06Z</time>
      </trkpt>
      <trkpt lat="50.38343" lon="3.42077">
        <ele>32.8222656</ele>
        <time>2011-11-06T08:08:14Z</time>
      </trkpt>
      <trkpt lat="50.38343" lon="3.42084">
        <ele>32.8222656</ele>
        <time>2011-11-06T08:08:15Z</time>
      </trkpt>
      <trkpt lat="50.3834" lon="3.42119">
        <ele>31.8607178</ele>
        <time>2011-11-06T08:08:20Z</time>
      </trkpt>
      <trkpt lat="50.38341" lon="3.42147">
        <ele>31.380127</ele>
        <time>2011-11-06T08:08:24Z</time>
      </trkpt>
      <trkpt lat="50.38343" lon="3.42154">
        <ele>31.380127</ele>
        <time>2011-11-06T08:08:25Z</time>
      </trkpt>
      <trkpt lat="50.38347" lon="3.42166">
        <ele>31.380127</ele>
        <time>2011-11-06T08:08:27Z</time>
      </trkpt>
      <trkpt lat="50.38369" lon="3.42209">
        <ele>30.4188232</ele>
        <time>2011-11-06T08:08:34Z</time>
      </trkpt>
      <trkpt lat="50.38382" lon="3.42231">
        <ele>30.4188232</ele>
        <time>2011-11-06T08:08:38Z</time>
      </trkpt>
      <trkpt lat="50.38398" lon="3.42244">
        <ele>30.8995361</ele>
        <time>2011-11-06T08:08:42Z</time>
      </trkpt>
      <trkpt lat="50.3841" lon="3.42249">
        <ele>31.380127</ele>
        <time>2011-11-06T08:08:45Z</time>
      </trkpt>
      <trkpt lat="50.38425" lon="3.42261">
        <ele>31.8607178</ele>
        <time>2011-11-06T08:08:49Z</time>
      </trkpt>
      <trkpt lat="50.38433" lon="3.42268">
        <ele>32.3415527</ele>
        <time>2011-11-06T08:08:51Z</time>
      </trkpt>
      <trkpt lat="50.38448" lon="3.42278">
        <ele>32.8222656</ele>
        <time>2011-11-06T08:08:55Z</time>
      </trkpt>
      <trkpt lat="50.38454" lon="3.42292">
        <ele>33.7834473</ele>
        <time>2011-11-06T08:08:59Z</time>
      </trkpt>
      <trkpt lat="50.3845" lon="3.42297">
        <ele>34.2641602</ele>
        <time>2011-11-06T08:09:01Z</time>
      </trkpt>
      <trkpt lat="50.38436" lon="3.42304">
        <ele>34.2641602</ele>
        <time>2011-11-06T08:09:06Z</time>
      </trkpt>
      <trkpt lat="50.38418" lon="3.42315">
        <ele>33.3028564</ele>
        <time>2011-11-06T08:09:11Z</time>
      </trkpt>
      <trkpt lat="50.38412" lon="3.42331">
        <ele>34.2641602</ele>
        <time>2011-11-06T08:09:14Z</time>
      </trkpt>
      <trkpt lat="50.38405" lon="3.42349">
        <ele>33.7834473</ele>
        <time>2011-11-06T08:09:18Z</time>
      </trkpt>
      <trkpt lat="50.38385" lon="3.42349">
        <ele>35.2254639</ele>
        <time>2011-11-06T08:09:23Z</time>
      </trkpt>
      <trkpt lat="50.38372" lon="3.42333">
        <ele>36.1867676</ele>
        <time>2011-11-06T08:09:27Z</time>
      </trkpt>
      <trkpt lat="50.38367" lon="3.42332">
        <ele>36.6674805</ele>
        <time>2011-11-06T08:09:29Z</time>
      </trkpt>
      <trkpt lat="50.38352" lon="3.4234">
        <ele>36.6674805</ele>
        <time>2011-11-06T08:09:35Z</time>
      </trkpt>
      <trkpt lat="50.38342" lon="3.42354">
        <ele>38.109375</ele>
        <time>2011-11-06T08:09:40Z</time>
      </trkpt>
      <trkpt lat="50.38339" lon="3.42357">
        <ele>38.109375</ele>
        <time>2011-11-06T08:09:41Z</time>
      </trkpt>
      <trkpt lat="50.38332" lon="3.42353">
        <ele>37.6286621</ele>
        <time>2011-11-06T08:09:46Z</time>
      </trkpt>
      <trkpt lat="50.38329" lon="3.42356">
        <ele>37.6286621</ele>
        <time>2011-11-06T08:09:48Z</time>
      </trkpt>
      <trkpt lat="50.38327" lon="3.42361">
        <ele>38.109375</ele>
        <time>2011-11-06T08:09:50Z</time>
      </trkpt>
      <trkpt lat="50.38326" lon="3.42368">
        <ele>37.6286621</ele>
        <time>2011-11-06T08:09:52Z</time>
      </trkpt>
      <trkpt lat="50.38317" lon="3.42376">
        <ele>36.6674805</ele>
        <time>2011-11-06T08:09:56Z</time>
      </trkpt>
      <trkpt lat="50.383" lon="3.42388">
        <ele>33.7834473</ele>
        <time>2011-11-06T08:10:02Z</time>
      </trkpt>
      <trkpt lat="50.38282" lon="3.42399">
        <ele>34.2641602</ele>
        <time>2011-11-06T08:10:07Z</time>
      </trkpt>
      <trkpt lat="50.38279" lon="3.42416">
        <ele>34.744873</ele>
        <time>2011-11-06T08:10:11Z</time>
      </trkpt>
      <trkpt lat="50.38273" lon="3.42431">
        <ele>34.744873</ele>
        <time>2011-11-06T08:10:15Z</time>
      </trkpt>
      <trkpt lat="50.38252" lon="3.42453">
        <ele>34.2641602</ele>
        <time>2011-11-06T08:10:22Z</time>
      </trkpt>
      <trkpt lat="50.3824" lon="3.42464">
        <ele>33.3028564</ele>
        <time>2011-11-06T08:10:26Z</time>
      </trkpt>
      <trkpt lat="50.38232" lon="3.42477">
        <ele>33.3028564</ele>
        <time>2011-11-06T08:10:29Z</time>
      </trkpt>
      <trkpt lat="50.38237" lon="3.42492">
        <ele>34.2641602</ele>
        <time>2011-11-06T08:10:33Z</time>
      </trkpt>
      <trkpt lat="50.38258" lon="3.42501">
        <ele>34.2641602</ele>
        <time>2011-11-06T08:10:40Z</time>
      </trkpt>
      <trkpt lat="50.38267" lon="3.42504">
        <ele>33.7834473</ele>
        <time>2011-11-06T08:10:43Z</time>
      </trkpt>
      <trkpt lat="50.38276" lon="3.42488">
        <ele>34.2641602</ele>
        <time>2011-11-06T08:10:48Z</time>
      </trkpt>
      <trkpt lat="50.3829" lon="3.42474">
        <ele>34.2641602</ele>
        <time>2011-11-06T08:10:52Z</time>
      </trkpt>
      <trkpt lat="50.3832" lon="3.42444">
        <ele>34.744873</ele>
        <time>2011-11-06T08:11:01Z</time>
      </trkpt>
      <trkpt lat="50.38336" lon="3.42429">
        <ele>35.2254639</ele>
        <time>2011-11-06T08:11:05Z</time>
      </trkpt>
      <trkpt lat="50.38352" lon="3.42408">
        <ele>36.6674805</ele>
        <time>2011-11-06T08:11:10Z</time>
      </trkpt>
      <trkpt lat="50.3837" lon="3.42403">
        <ele>38.5900879</ele>
        <time>2011-11-06T08:11:14Z</time>
      </trkpt>
      <trkpt lat="50.38374" lon="3.42406">
        <ele>38.5900879</ele>
        <time>2011-11-06T08:11:15Z</time>
      </trkpt>
      <trkpt lat="50.38404" lon="3.4243">
        <ele>40.0321045</ele>
        <time>2011-11-06T08:11:23Z</time>
      </trkpt>
      <trkpt lat="50.38408" lon="3.42432">
        <ele>40.0321045</ele>
        <time>2011-11-06T08:11:24Z</time>
      </trkpt>
      <trkpt lat="50.38429" lon="3.42436">
        <ele>40.9934082</ele>
        <time>2011-11-06T08:11:30Z</time>
      </trkpt>
      <trkpt lat="50.38452" lon="3.42413">
        <ele>39.5512695</ele>
        <time>2011-11-06T08:11:37Z</time>
      </trkpt>
      <trkpt lat="50.38475" lon="3.42388">
        <ele>38.5900879</ele>
        <time>2011-11-06T08:11:44Z</time>
      </trkpt>
      <trkpt lat="50.38492" lon="3.4239">
        <ele>37.1480713</ele>
        <time>2011-11-06T08:11:49Z</time>
      </trkpt>
      <trkpt lat="50.38496" lon="3.42387">
        <ele>37.1480713</ele>
        <time>2011-11-06T08:11:50Z</time>
      </trkpt>
      <trkpt lat="50.38529" lon="3.42353">
        <ele>35.2254639</ele>
        <time>2011-11-06T08:11:58Z</time>
      </trkpt>
      <trkpt lat="50.38532" lon="3.42349">
        <ele>34.744873</ele>
        <time>2011-11-06T08:11:59Z</time>
      </trkpt>
      <trkpt lat="50.38545" lon="3.42348">
        <ele>34.2641602</ele>
        <time>2011-11-06T08:12:03Z</time>
      </trkpt>
      <trkpt lat="50.38552" lon="3.42352">
        <ele>33.3028564</ele>
        <time>2011-11-06T08:12:06Z</time>
      </trkpt>
      <trkpt lat="50.38561" lon="3.42337">
        <ele>32.3415527</ele>
        <time>2011-11-06T08:12:10Z</time>
      </trkpt>
      <trkpt lat="50.3856" lon="3.42319">
        <ele>32.3415527</ele>
        <time>2011-11-06T08:12:13Z</time>
      </trkpt>
      <trkpt lat="50.38559" lon="3.42313">
        <ele>32.8222656</ele>
        <time>2011-11-06T08:12:14Z</time>
      </trkpt>
      <trkpt lat="50.38558" lon="3.42302">
        <ele>32.8222656</ele>
        <time>2011-11-06T08:12:16Z</time>
      </trkpt>
      <trkpt lat="50.38563" lon="3.42293">
        <ele>34.744873</ele>
        <time>2011-11-06T08:12:19Z</time>
      </trkpt>
      <trkpt lat="50.38581" lon="3.42303">
        <ele>33.7834473</ele>
        <time>2011-11-06T08:12:23Z</time>
      </trkpt>
      <trkpt lat="50.38597" lon="3.42312">
        <ele>33.3028564</ele>
        <time>2011-11-06T08:12:27Z</time>
      </trkpt>
      <trkpt lat="50.38599" lon="3.42299">
        <ele>33.7834473</ele>
        <time>2011-11-06T08:12:30Z</time>
      </trkpt>
      <trkpt lat="50.38593" lon="3.42282">
        <ele>33.7834473</ele>
        <time>2011-11-06T08:12:33Z</time>
      </trkpt>
      <trkpt lat="50.38597" lon="3.42263">
        <ele>34.744873</ele>
        <time>2011-11-06T08:12:38Z</time>
      </trkpt>
      <trkpt lat="50.3861" lon="3.42271">
        <ele>34.2641602</ele>
        <time>2011-11-06T08:12:41Z</time>
      </trkpt>
      <trkpt lat="50.38615" lon="3.42273">
        <ele>34.2641602</ele>
        <time>2011-11-06T08:12:42Z</time>
      </trkpt>
      <trkpt lat="50.38628" lon="3.42265">
        <ele>34.744873</ele>
        <time>2011-11-06T08:12:47Z</time>
      </trkpt>
      <trkpt lat="50.38626" lon="3.42259">
        <ele>34.744873</ele>
        <time>2011-11-06T08:12:48Z</time>
      </trkpt>
      <trkpt lat="50.38621" lon="3.42234">
        <ele>33.7834473</ele>
        <time>2011-11-06T08:12:54Z</time>
      </trkpt>
      <trkpt lat="50.3863" lon="3.42244">
        <ele>31.8607178</ele>
        <time>2011-11-06T08:12:57Z</time>
      </trkpt>
      <trkpt lat="50.38645" lon="3.42254">
        <ele>31.380127</ele>
        <time>2011-11-06T08:13:00Z</time>
      </trkpt>
      <trkpt lat="50.38653" lon="3.42246">
        <ele>31.380127</ele>
        <time>2011-11-06T08:13:03Z</time>
      </trkpt>
      <trkpt lat="50.38644" lon="3.42237">
        <ele>32.8222656</ele>
        <time>2011-11-06T08:13:06Z</time>
      </trkpt>
      <trkpt lat="50.38636" lon="3.42228">
        <ele>34.744873</ele>
        <time>2011-11-06T08:13:08Z</time>
      </trkpt>
      <trkpt lat="50.38634" lon="3.42215">
        <ele>34.744873</ele>
        <time>2011-11-06T08:13:12Z</time>
      </trkpt>
      <trkpt lat="50.38645" lon="3.42205">
        <ele>34.2641602</ele>
        <time>2011-11-06T08:13:15Z</time>
      </trkpt>
      <trkpt lat="50.38649" lon="3.42202">
        <ele>34.2641602</ele>
        <time>2011-11-06T08:13:16Z</time>
      </trkpt>
      <trkpt lat="50.38665" lon="3.42189">
        <ele>34.744873</ele>
        <time>2011-11-06T08:13:22Z</time>
      </trkpt>
      <trkpt lat="50.38664" lon="3.42181">
        <ele>36.1867676</ele>
        <time>2011-11-06T08:13:29Z</time>
      </trkpt>
      <trkpt lat="50.3866" lon="3.42182">
        <ele>38.109375</ele>
        <time>2011-11-06T08:13:34Z</time>
      </trkpt>
      <trkpt lat="50.38655" lon="3.42183">
        <ele>39.0706787</ele>
        <time>2011-11-06T08:13:40Z</time>
      </trkpt>
      <trkpt lat="50.38653" lon="3.42184">
        <ele>39.5512695</ele>
        <time>2011-11-06T08:13:41Z</time>
      </trkpt>
      <trkpt lat="50.38649" lon="3.42179">
        <ele>39.0706787</ele>
        <time>2011-11-06T08:13:45Z</time>
      </trkpt>
      <trkpt lat="50.3865" lon="3.42162">
        <ele>39.5512695</ele>
        <time>2011-11-06T08:13:49Z</time>
      </trkpt>
      <trkpt lat="50.38654" lon="3.4215">
        <ele>38.5900879</ele>
        <time>2011-11-06T08:13:53Z</time>
      </trkpt>
      <trkpt lat="50.38662" lon="3.42147">
        <ele>35.7060547</ele>
        <time>2011-11-06T08:13:58Z</time>
      </trkpt>
      <trkpt lat="50.38661" lon="3.42136">
        <ele>35.2254639</ele>
        <time>2011-11-06T08:14:02Z</time>
      </trkpt>
      <trkpt lat="50.3866" lon="3.42121">
        <ele>35.7060547</ele>
        <time>2011-11-06T08:14:05Z</time>
      </trkpt>
      <trkpt lat="50.38664" lon="3.4211">
        <ele>36.1867676</ele>
        <time>2011-11-06T08:14:07Z</time>
      </trkpt>
      <trkpt lat="50.38674" lon="3.42071">
        <ele>35.7060547</ele>
        <time>2011-11-06T08:14:12Z</time>
      </trkpt>
      <trkpt lat="50.38687" lon="3.42046">
        <ele>34.744873</ele>
        <time>2011-11-06T08:14:16Z</time>
      </trkpt>
      <trkpt lat="50.38691" lon="3.42042">
        <ele>34.2641602</ele>
        <time>2011-11-06T08:14:17Z</time>
      </trkpt>
      <trkpt lat="50.38691" lon="3.41998">
        <ele>31.380127</ele>
        <time>2011-11-06T08:14:22Z</time>
      </trkpt>
      <trkpt lat="50.38666" lon="3.41919">
        <ele>29.9381104</ele>
        <time>2011-11-06T08:14:30Z</time>
      </trkpt>
      <trkpt lat="50.3866" lon="3.41898">
        <ele>29.9381104</ele>
        <time>2011-11-06T08:14:32Z</time>
      </trkpt>
      <trkpt lat="50.38655" lon="3.41877">
        <ele>29.9381104</ele>
        <time>2011-11-06T08:14:34Z</time>
      </trkpt>
      <trkpt lat="50.38658" lon="3.41838">
        <ele>29.4575195</ele>
        <time>2011-11-06T08:14:38Z</time>
      </trkpt>
      <trkpt lat="50.38676" lon="3.41808">
        <ele>27.0543213</ele>
        <time>2011-11-06T08:14:42Z</time>
      </trkpt>
      <trkpt lat="50.38688" lon="3.41805">
        <ele>26.5736084</ele>
        <time>2011-11-06T08:14:44Z</time>
      </trkpt>
      <trkpt lat="50.38695" lon="3.4181">
        <ele>26.0928955</ele>
        <time>2011-11-06T08:14:46Z</time>
      </trkpt>
      <trkpt lat="50.38697" lon="3.41813">
        <ele>26.5736084</ele>
        <time>2011-11-06T08:14:50Z</time>
      </trkpt>
      <trkpt lat="50.38702" lon="3.41819">
        <ele>26.0928955</ele>
        <time>2011-11-06T08:14:57Z</time>
      </trkpt>
      <trkpt lat="50.38712" lon="3.41824">
        <ele>26.0928955</ele>
        <time>2011-11-06T08:15:00Z</time>
      </trkpt>
      <trkpt lat="50.38724" lon="3.41843">
        <ele>25.6123047</ele>
        <time>2011-11-06T08:15:05Z</time>
      </trkpt>
      <trkpt lat="50.38727" lon="3.41876">
        <ele>25.6123047</ele>
        <time>2011-11-06T08:15:10Z</time>
      </trkpt>
      <trkpt lat="50.3873" lon="3.41909">
        <ele>25.1317139</ele>
        <time>2011-11-06T08:15:15Z</time>
      </trkpt>
      <trkpt lat="50.38731" lon="3.41933">
        <ele>25.1317139</ele>
        <time>2011-11-06T08:15:18Z</time>
      </trkpt>
      <trkpt lat="50.38734" lon="3.41965">
        <ele>24.651001</ele>
        <time>2011-11-06T08:15:22Z</time>
      </trkpt>
      <trkpt lat="50.38737" lon="3.42025">
        <ele>24.1702881</ele>
        <time>2011-11-06T08:15:29Z</time>
      </trkpt>
      <trkpt lat="50.38744" lon="3.42091">
        <ele>25.1317139</ele>
        <time>2011-11-06T08:15:37Z</time>
      </trkpt>
      <trkpt lat="50.38745" lon="3.42099">
        <ele>25.6123047</ele>
        <time>2011-11-06T08:15:38Z</time>
      </trkpt>
      <trkpt lat="50.38754" lon="3.42156">
        <ele>27.0543213</ele>
        <time>2011-11-06T08:15:45Z</time>
      </trkpt>
      <trkpt lat="50.38764" lon="3.42235">
        <ele>27.0543213</ele>
        <time>2011-11-06T08:15:54Z</time>
      </trkpt>
      <trkpt lat="50.38771" lon="3.42299">
        <ele>28.9769287</ele>
        <time>2011-11-06T08:16:01Z</time>
      </trkpt>
      <trkpt lat="50.38778" lon="3.42343">
        <ele>29.4575195</ele>
        <time>2011-11-06T08:16:06Z</time>
      </trkpt>
      <trkpt lat="50.38775" lon="3.42367">
        <ele>28.4962158</ele>
        <time>2011-11-06T08:16:10Z</time>
      </trkpt>
      <trkpt lat="50.3877" lon="3.42369">
        <ele>28.4962158</ele>
        <time>2011-11-06T08:16:11Z</time>
      </trkpt>
      <trkpt lat="50.38755" lon="3.42374">
        <ele>28.4962158</ele>
        <time>2011-11-06T08:16:14Z</time>
      </trkpt>
      <trkpt lat="50.38726" lon="3.42396">
        <ele>28.9769287</ele>
        <time>2011-11-06T08:16:20Z</time>
      </trkpt>
      <trkpt lat="50.38683" lon="3.42441">
        <ele>28.9769287</ele>
        <time>2011-11-06T08:16:29Z</time>
      </trkpt>
      <trkpt lat="50.38672" lon="3.4245">
        <ele>29.9381104</ele>
        <time>2011-11-06T08:16:31Z</time>
      </trkpt>
      <trkpt lat="50.3861" lon="3.42514">
        <ele>31.8607178</ele>
        <time>2011-11-06T08:16:44Z</time>
      </trkpt>
      <trkpt lat="50.38562" lon="3.42564">
        <ele>32.8222656</ele>
        <time>2011-11-06T08:16:54Z</time>
      </trkpt>
      <trkpt lat="50.38522" lon="3.42603">
        <ele>34.2641602</ele>
        <time>2011-11-06T08:17:02Z</time>
      </trkpt>
      <trkpt lat="50.38511" lon="3.42615">
        <ele>34.2641602</ele>
        <time>2011-11-06T08:17:05Z</time>
      </trkpt>
      <trkpt lat="50.38492" lon="3.42632">
        <ele>34.2641602</ele>
        <time>2011-11-06T08:17:11Z</time>
      </trkpt>
      <trkpt lat="50.38459" lon="3.42666">
        <ele>34.744873</ele>
        <time>2011-11-06T08:17:19Z</time>
      </trkpt>
      <trkpt lat="50.3845" lon="3.42674">
        <ele>35.2254639</ele>
        <time>2011-11-06T08:17:21Z</time>
      </trkpt>
      <trkpt lat="50.38435" lon="3.4267">
        <ele>34.2641602</ele>
        <time>2011-11-06T08:17:25Z</time>
      </trkpt>
      <trkpt lat="50.38429" lon="3.42661">
        <ele>34.2641602</ele>
        <time>2011-11-06T08:17:27Z</time>
      </trkpt>
      <trkpt lat="50.38413" lon="3.42653">
        <ele>33.7834473</ele>
        <time>2011-11-06T08:17:32Z</time>
      </trkpt>
      <trkpt lat="50.3841" lon="3.42657">
        <ele>33.7834473</ele>
        <time>2011-11-06T08:17:36Z</time>
      </trkpt>
      <trkpt lat="50.3841" lon="3.42657">
        <ele>33.7834473</ele>
        <time>2011-11-06T08:17:41Z</time>
      </trkpt>
      <trkpt lat="50.38412" lon="3.4265">
        <ele>33.3028564</ele>
        <time>2011-11-06T08:17:47Z</time>
      </trkpt>
      <trkpt lat="50.38412" lon="3.42643">
        <ele>34.744873</ele>
        <time>2011-11-06T08:17:52Z</time>
      </trkpt>
      <trkpt lat="50.3841" lon="3.42642">
        <ele>34.2641602</ele>
        <time>2011-11-06T08:17:57Z</time>
      </trkpt>
      <trkpt lat="50.3841" lon="3.42642">
        <ele>34.744873</ele>
        <time>2011-11-06T08:17:58Z</time>
      </trkpt>
      <trkpt lat="50.38414" lon="3.42645">
        <ele>35.7060547</ele>
        <time>2011-11-06T08:18:32Z</time>
      </trkpt>
      <trkpt lat="50.38413" lon="3.42642">
        <ele>34.2641602</ele>
        <time>2011-11-06T08:18:40Z</time>
      </trkpt>
      <trkpt lat="50.38413" lon="3.42643">
        <ele>37.1480713</ele>
        <time>2011-11-06T08:23:23Z</time>
      </trkpt>
      <trkpt lat="50.38413" lon="3.42647">
        <ele>36.6674805</ele>
        <time>2011-11-06T08:23:24Z</time>
      </trkpt>
      <trkpt lat="50.3841" lon="3.42655">
        <ele>35.7060547</ele>
        <time>2011-11-06T08:23:32Z</time>
      </trkpt>
      <trkpt lat="50.3841" lon="3.42656">
        <ele>36.1867676</ele>
        <time>2011-11-06T08:23:33Z</time>
      </trkpt>
      <trkpt lat="50.38417" lon="3.42662">
        <ele>36.6674805</ele>
        <time>2011-11-06T08:23:55Z</time>
      </trkpt>
      <trkpt lat="50.38432" lon="3.42667">
        <ele>36.1867676</ele>
        <time>2011-11-06T08:24:00Z</time>
      </trkpt>
      <trkpt lat="50.38442" lon="3.42685">
        <ele>35.7060547</ele>
        <time>2011-11-06T08:24:04Z</time>
      </trkpt>
      <trkpt lat="50.38455" lon="3.42719">
        <ele>35.7060547</ele>
        <time>2011-11-06T08:24:10Z</time>
      </trkpt>
      <trkpt lat="50.38466" lon="3.42746">
        <ele>34.744873</ele>
        <time>2011-11-06T08:24:15Z</time>
      </trkpt>
      <trkpt lat="50.38484" lon="3.42755">
        <ele>34.744873</ele>
        <time>2011-11-06T08:24:20Z</time>
      </trkpt>
      <trkpt lat="50.38489" lon="3.42752">
        <ele>35.2254639</ele>
        <time>2011-11-06T08:24:21Z</time>
      </trkpt>
      <trkpt lat="50.38518" lon="3.42719">
        <ele>35.7060547</ele>
        <time>2011-11-06T08:24:28Z</time>
      </trkpt>
      <trkpt lat="50.38526" lon="3.42709">
        <ele>35.7060547</ele>
        <time>2011-11-06T08:24:30Z</time>
      </trkpt>
      <trkpt lat="50.38574" lon="3.4266">
        <ele>36.1867676</ele>
        <time>2011-11-06T08:24:40Z</time>
      </trkpt>
      <trkpt lat="50.38634" lon="3.42601">
        <ele>34.744873</ele>
        <time>2011-11-06T08:24:52Z</time>
      </trkpt>
      <trkpt lat="50.3867" lon="3.42565">
        <ele>33.7834473</ele>
        <time>2011-11-06T08:24:59Z</time>
      </trkpt>
      <trkpt lat="50.38724" lon="3.4251">
        <ele>32.3415527</ele>
        <time>2011-11-06T08:25:09Z</time>
      </trkpt>
      <trkpt lat="50.38784" lon="3.42449">
        <ele>30.4188232</ele>
        <time>2011-11-06T08:25:20Z</time>
      </trkpt>
      <trkpt lat="50.38821" lon="3.42409">
        <ele>29.9381104</ele>
        <time>2011-11-06T08:25:27Z</time>
      </trkpt>
      <trkpt lat="50.38844" lon="3.42388">
        <ele>29.4575195</ele>
        <time>2011-11-06T08:25:32Z</time>
      </trkpt>
      <trkpt lat="50.38851" lon="3.4238">
        <ele>29.4575195</ele>
        <time>2011-11-06T08:25:34Z</time>
      </trkpt>
      <trkpt lat="50.38859" lon="3.42373">
        <ele>28.9769287</ele>
        <time>2011-11-06T08:25:36Z</time>
      </trkpt>
      <trkpt lat="50.38898" lon="3.42332">
        <ele>28.9769287</ele>
        <time>2011-11-06T08:25:45Z</time>
      </trkpt>
      <trkpt lat="50.38932" lon="3.42295">
        <ele>26.5736084</ele>
        <time>2011-11-06T08:25:52Z</time>
      </trkpt>
      <trkpt lat="50.3895" lon="3.42276">
        <ele>24.651001</ele>
        <time>2011-11-06T08:25:56Z</time>
      </trkpt>
      <trkpt lat="50.3897" lon="3.42289">
        <ele>23.6895752</ele>
        <time>2011-11-06T08:26:00Z</time>
      </trkpt>
      <trkpt lat="50.38975" lon="3.42306">
        <ele>23.6895752</ele>
        <time>2011-11-06T08:26:02Z</time>
      </trkpt>
      <trkpt lat="50.38985" lon="3.42348">
        <ele>23.6895752</ele>
        <time>2011-11-06T08:26:06Z</time>
      </trkpt>
      <trkpt lat="50.39004" lon="3.42379">
        <ele>23.2089844</ele>
        <time>2011-11-06T08:26:11Z</time>
      </trkpt>
      <trkpt lat="50.39022" lon="3.42405">
        <ele>23.2089844</ele>
        <time>2011-11-06T08:26:15Z</time>
      </trkpt>
      <trkpt lat="50.39035" lon="3.42436">
        <ele>24.651001</ele>
        <time>2011-11-06T08:26:19Z</time>
      </trkpt>
      <trkpt lat="50.39038" lon="3.42437">
        <ele>23.2089844</ele>
        <time>2011-11-06T08:26:23Z</time>
      </trkpt>
      <trkpt lat="50.39043" lon="3.42431">
        <ele>25.6123047</ele>
        <time>2011-11-06T08:26:30Z</time>
      </trkpt>
      <trkpt lat="50.39044" lon="3.42429">
        <ele>25.6123047</ele>
        <time>2011-11-06T08:26:31Z</time>
      </trkpt>
      <trkpt lat="50.39047" lon="3.42426">
        <ele>25.6123047</ele>
        <time>2011-11-06T08:26:33Z</time>
      </trkpt>
      <trkpt lat="50.39053" lon="3.4242">
        <ele>27.5349121</ele>
        <time>2011-11-06T08:26:42Z</time>
      </trkpt>
      <trkpt lat="50.39056" lon="3.42421">
        <ele>27.5349121</ele>
        <time>2011-11-06T08:26:47Z</time>
      </trkpt>
      <trkpt lat="50.39059" lon="3.4243">
        <ele>28.9769287</ele>
        <time>2011-11-06T08:26:52Z</time>
      </trkpt>
      <trkpt lat="50.39065" lon="3.42454">
        <ele>30.8995361</ele>
        <time>2011-11-06T08:26:59Z</time>
      </trkpt>
      <trkpt lat="50.39072" lon="3.42485">
        <ele>30.4188232</ele>
        <time>2011-11-06T08:27:05Z</time>
      </trkpt>
      <trkpt lat="50.39078" lon="3.42518">
        <ele>30.8995361</ele>
        <time>2011-11-06T08:27:11Z</time>
      </trkpt>
      <trkpt lat="50.39089" lon="3.4256">
        <ele>32.3415527</ele>
        <time>2011-11-06T08:27:18Z</time>
      </trkpt>
      <trkpt lat="50.39095" lon="3.42605">
        <ele>32.3415527</ele>
        <time>2011-11-06T08:27:25Z</time>
      </trkpt>
      <trkpt lat="50.39099" lon="3.42646">
        <ele>34.2641602</ele>
        <time>2011-11-06T08:27:32Z</time>
      </trkpt>
      <trkpt lat="50.39104" lon="3.42692">
        <ele>36.1867676</ele>
        <time>2011-11-06T08:27:40Z</time>
      </trkpt>
      <trkpt lat="50.3911" lon="3.42747">
        <ele>38.5900879</ele>
        <time>2011-11-06T08:27:50Z</time>
      </trkpt>
      <trkpt lat="50.3911" lon="3.42794">
        <ele>40.0321045</ele>
        <time>2011-11-06T08:27:58Z</time>
      </trkpt>
      <trkpt lat="50.39112" lon="3.42857">
        <ele>40.0321045</ele>
        <time>2011-11-06T08:28:08Z</time>
      </trkpt>
      <trkpt lat="50.39115" lon="3.42918">
        <ele>40.0321045</ele>
        <time>2011-11-06T08:28:17Z</time>
      </trkpt>
      <trkpt lat="50.39122" lon="3.42973">
        <ele>39.5512695</ele>
        <time>2011-11-06T08:28:25Z</time>
      </trkpt>
      <trkpt lat="50.39136" lon="3.42996">
        <ele>39.0706787</ele>
        <time>2011-11-06T08:28:30Z</time>
      </trkpt>
      <trkpt lat="50.39154" lon="3.42998">
        <ele>38.109375</ele>
        <time>2011-11-06T08:28:34Z</time>
      </trkpt>
      <trkpt lat="50.39163" lon="3.42986">
        <ele>36.6674805</ele>
        <time>2011-11-06T08:28:37Z</time>
      </trkpt>
      <trkpt lat="50.39166" lon="3.42973">
        <ele>35.7060547</ele>
        <time>2011-11-06T08:28:39Z</time>
      </trkpt>
      <trkpt lat="50.39174" lon="3.42919">
        <ele>33.3028564</ele>
        <time>2011-11-06T08:28:46Z</time>
      </trkpt>
      <trkpt lat="50.39175" lon="3.42877">
        <ele>32.8222656</ele>
        <time>2011-11-06T08:28:51Z</time>
      </trkpt>
      <trkpt lat="50.39171" lon="3.42836">
        <ele>31.8607178</ele>
        <time>2011-11-06T08:28:56Z</time>
      </trkpt>
      <trkpt lat="50.39166" lon="3.42802">
        <ele>30.8995361</ele>
        <time>2011-11-06T08:29:00Z</time>
      </trkpt>
      <trkpt lat="50.39162" lon="3.42775">
        <ele>30.8995361</ele>
        <time>2011-11-06T08:29:03Z</time>
      </trkpt>
      <trkpt lat="50.39157" lon="3.42728">
        <ele>30.4188232</ele>
        <time>2011-11-06T08:29:08Z</time>
      </trkpt>
      <trkpt lat="50.39151" lon="3.42691">
        <ele>30.8995361</ele>
        <time>2011-11-06T08:29:12Z</time>
      </trkpt>
      <trkpt lat="50.39148" lon="3.42673">
        <ele>30.8995361</ele>
        <time>2011-11-06T08:29:14Z</time>
      </trkpt>
      <trkpt lat="50.39141" lon="3.42638">
        <ele>29.9381104</ele>
        <time>2011-11-06T08:29:18Z</time>
      </trkpt>
      <trkpt lat="50.3913" lon="3.42593">
        <ele>28.9769287</ele>
        <time>2011-11-06T08:29:23Z</time>
      </trkpt>
      <trkpt lat="50.39119" lon="3.4254">
        <ele>28.4962158</ele>
        <time>2011-11-06T08:29:29Z</time>
      </trkpt>
      <trkpt lat="50.39116" lon="3.42526">
        <ele>28.0155029</ele>
        <time>2011-11-06T08:29:31Z</time>
      </trkpt>
      <trkpt lat="50.3912" lon="3.42522">
        <ele>24.651001</ele>
        <time>2011-11-06T08:29:35Z</time>
      </trkpt>
      <trkpt lat="50.39123" lon="3.42529">
        <ele>24.1702881</ele>
        <time>2011-11-06T08:29:36Z</time>
      </trkpt>
      <trkpt lat="50.39139" lon="3.42578">
        <ele>18.4023438</ele>
        <time>2011-11-06T08:29:41Z</time>
      </trkpt>
      <trkpt lat="50.39142" lon="3.42589">
        <ele>17.4411621</ele>
        <time>2011-11-06T08:29:42Z</time>
      </trkpt>
      <trkpt lat="50.39157" lon="3.42618">
        <ele>14.5570068</ele>
        <time>2011-11-06T08:29:46Z</time>
      </trkpt>
      <trkpt lat="50.39167" lon="3.42643">
        <ele>15.9990234</ele>
        <time>2011-11-06T08:29:51Z</time>
      </trkpt>
      <trkpt lat="50.39168" lon="3.42656">
        <ele>17.4411621</ele>
        <time>2011-11-06T08:29:53Z</time>
      </trkpt>
      <trkpt lat="50.39171" lon="3.42685">
        <ele>19.3637695</ele>
        <time>2011-11-06T08:29:57Z</time>
      </trkpt>
      <trkpt lat="50.39174" lon="3.42709">
        <ele>20.3249512</ele>
        <time>2011-11-06T08:30:00Z</time>
      </trkpt>
      <trkpt lat="50.3918" lon="3.42755">
        <ele>22.2475586</ele>
        <time>2011-11-06T08:30:06Z</time>
      </trkpt>
      <trkpt lat="50.3918" lon="3.42762">
        <ele>22.2475586</ele>
        <time>2011-11-06T08:30:07Z</time>
      </trkpt>
      <trkpt lat="50.39184" lon="3.42803">
        <ele>24.651001</ele>
        <time>2011-11-06T08:30:13Z</time>
      </trkpt>
      <trkpt lat="50.39185" lon="3.4281">
        <ele>24.651001</ele>
        <time>2011-11-06T08:30:14Z</time>
      </trkpt>
      <trkpt lat="50.39186" lon="3.4283">
        <ele>26.0928955</ele>
        <time>2011-11-06T08:30:17Z</time>
      </trkpt>
      <trkpt lat="50.39187" lon="3.4285">
        <ele>26.0928955</ele>
        <time>2011-11-06T08:30:20Z</time>
      </trkpt>
      <trkpt lat="50.39188" lon="3.42869">
        <ele>26.5736084</ele>
        <time>2011-11-06T08:30:23Z</time>
      </trkpt>
      <trkpt lat="50.39189" lon="3.42903">
        <ele>26.0928955</ele>
        <time>2011-11-06T08:30:28Z</time>
      </trkpt>
      <trkpt lat="50.39189" lon="3.42924">
        <ele>24.1702881</ele>
        <time>2011-11-06T08:30:31Z</time>
      </trkpt>
      <trkpt lat="50.39184" lon="3.42957">
        <ele>21.7669678</ele>
        <time>2011-11-06T08:30:36Z</time>
      </trkpt>
      <trkpt lat="50.3918" lon="3.4298">
        <ele>21.286377</ele>
        <time>2011-11-06T08:30:43Z</time>
      </trkpt>
      <trkpt lat="50.39185" lon="3.42983">
        <ele>20.3249512</ele>
        <time>2011-11-06T08:30:48Z</time>
      </trkpt>
      <trkpt lat="50.39191" lon="3.4298">
        <ele>19.3637695</ele>
        <time>2011-11-06T08:30:57Z</time>
      </trkpt>
      <trkpt lat="50.39193" lon="3.42978">
        <ele>19.3637695</ele>
        <time>2011-11-06T08:30:58Z</time>
      </trkpt>
      <trkpt lat="50.39201" lon="3.42967">
        <ele>17.9217529</ele>
        <time>2011-11-06T08:31:02Z</time>
      </trkpt>
      <trkpt lat="50.39208" lon="3.42962">
        <ele>16.9604492</ele>
        <time>2011-11-06T08:31:08Z</time>
      </trkpt>
      <trkpt lat="50.39212" lon="3.42952">
        <ele>16.4797363</ele>
        <time>2011-11-06T08:31:12Z</time>
      </trkpt>
      <trkpt lat="50.39211" lon="3.42939">
        <ele>15.9990234</ele>
        <time>2011-11-06T08:31:16Z</time>
      </trkpt>
      <trkpt lat="50.39211" lon="3.42925">
        <ele>15.0377197</ele>
        <time>2011-11-06T08:31:21Z</time>
      </trkpt>
      <trkpt lat="50.3921" lon="3.42915">
        <ele>14.076416</ele>
        <time>2011-11-06T08:31:25Z</time>
      </trkpt>
      <trkpt lat="50.39211" lon="3.42887">
        <ele>11.6732178</ele>
        <time>2011-11-06T08:31:31Z</time>
      </trkpt>
      <trkpt lat="50.39213" lon="3.42866">
        <ele>9.2698975</ele>
        <time>2011-11-06T08:31:35Z</time>
      </trkpt>
      <trkpt lat="50.39213" lon="3.42861">
        <ele>8.3085938</ele>
        <time>2011-11-06T08:31:36Z</time>
      </trkpt>
      <trkpt lat="50.3921" lon="3.42826">
        <ele>7.347168</ele>
        <time>2011-11-06T08:31:42Z</time>
      </trkpt>
      <trkpt lat="50.39205" lon="3.42803">
        <ele>7.8278809</ele>
        <time>2011-11-06T08:31:46Z</time>
      </trkpt>
      <trkpt lat="50.39206" lon="3.42784">
        <ele>7.8278809</ele>
        <time>2011-11-06T08:31:49Z</time>
      </trkpt>
      <trkpt lat="50.39205" lon="3.42763">
        <ele>8.7891846</ele>
        <time>2011-11-06T08:31:52Z</time>
      </trkpt>
      <trkpt lat="50.39198" lon="3.42739">
        <ele>9.2698975</ele>
        <time>2011-11-06T08:31:56Z</time>
      </trkpt>
      <trkpt lat="50.39195" lon="3.42713">
        <ele>7.8278809</ele>
        <time>2011-11-06T08:32:00Z</time>
      </trkpt>
      <trkpt lat="50.39187" lon="3.42662">
        <ele>5.9052734</ele>
        <time>2011-11-06T08:32:07Z</time>
      </trkpt>
      <trkpt lat="50.39179" lon="3.42632">
        <ele>6.8664551</ele>
        <time>2011-11-06T08:32:11Z</time>
      </trkpt>
      <trkpt lat="50.39174" lon="3.42619">
        <ele>7.347168</ele>
        <time>2011-11-06T08:32:13Z</time>
      </trkpt>
      <trkpt lat="50.3917" lon="3.42606">
        <ele>8.3085938</ele>
        <time>2011-11-06T08:32:15Z</time>
      </trkpt>
      <trkpt lat="50.39161" lon="3.42577">
        <ele>9.7506104</ele>
        <time>2011-11-06T08:32:20Z</time>
      </trkpt>
      <trkpt lat="50.39156" lon="3.42551">
        <ele>10.711792</ele>
        <time>2011-11-06T08:32:24Z</time>
      </trkpt>
      <trkpt lat="50.39153" lon="3.4253">
        <ele>12.1538086</ele>
        <time>2011-11-06T08:32:27Z</time>
      </trkpt>
      <trkpt lat="50.3915" lon="3.42508">
        <ele>11.6732178</ele>
        <time>2011-11-06T08:32:30Z</time>
      </trkpt>
      <trkpt lat="50.39146" lon="3.42488">
        <ele>11.6732178</ele>
        <time>2011-11-06T08:32:33Z</time>
      </trkpt>
      <trkpt lat="50.39149" lon="3.42456">
        <ele>10.711792</ele>
        <time>2011-11-06T08:32:38Z</time>
      </trkpt>
      <trkpt lat="50.39151" lon="3.42449">
        <ele>10.711792</ele>
        <time>2011-11-06T08:32:39Z</time>
      </trkpt>
      <trkpt lat="50.39157" lon="3.42432">
        <ele>10.711792</ele>
        <time>2011-11-06T08:32:42Z</time>
      </trkpt>
      <trkpt lat="50.39167" lon="3.42415">
        <ele>11.1925049</ele>
        <time>2011-11-06T08:32:45Z</time>
      </trkpt>
      <trkpt lat="50.39173" lon="3.42397">
        <ele>9.7506104</ele>
        <time>2011-11-06T08:32:48Z</time>
      </trkpt>
      <trkpt lat="50.3918" lon="3.42366">
        <ele>13.1151123</ele>
        <time>2011-11-06T08:32:52Z</time>
      </trkpt>
      <trkpt lat="50.39178" lon="3.42349">
        <ele>21.286377</ele>
        <time>2011-11-06T08:32:55Z</time>
      </trkpt>
      <trkpt lat="50.39171" lon="3.4234">
        <ele>23.2089844</ele>
        <time>2011-11-06T08:32:57Z</time>
      </trkpt>
      <trkpt lat="50.39163" lon="3.42331">
        <ele>24.651001</ele>
        <time>2011-11-06T08:32:59Z</time>
      </trkpt>
      <trkpt lat="50.39153" lon="3.42323">
        <ele>27.0543213</ele>
        <time>2011-11-06T08:33:01Z</time>
      </trkpt>
      <trkpt lat="50.3914" lon="3.42305">
        <ele>28.9769287</ele>
        <time>2011-11-06T08:33:05Z</time>
      </trkpt>
      <trkpt lat="50.39127" lon="3.42277">
        <ele>27.0543213</ele>
        <time>2011-11-06T08:33:09Z</time>
      </trkpt>
      <trkpt lat="50.39117" lon="3.42262">
        <ele>26.5736084</ele>
        <time>2011-11-06T08:33:12Z</time>
      </trkpt>
      <trkpt lat="50.39108" lon="3.42244">
        <ele>26.5736084</ele>
        <time>2011-11-06T08:33:15Z</time>
      </trkpt>
      <trkpt lat="50.39091" lon="3.42218">
        <ele>28.9769287</ele>
        <time>2011-11-06T08:33:20Z</time>
      </trkpt>
      <trkpt lat="50.39079" lon="3.42191">
        <ele>30.4188232</ele>
        <time>2011-11-06T08:33:24Z</time>
      </trkpt>
      <trkpt lat="50.39072" lon="3.4218">
        <ele>28.9769287</ele>
        <time>2011-11-06T08:33:26Z</time>
      </trkpt>
      <trkpt lat="50.39067" lon="3.42168">
        <ele>30.4188232</ele>
        <time>2011-11-06T08:33:28Z</time>
      </trkpt>
      <trkpt lat="50.39072" lon="3.42149">
        <ele>28.9769287</ele>
        <time>2011-11-06T08:33:32Z</time>
      </trkpt>
      <trkpt lat="50.3908" lon="3.42141">
        <ele>28.0155029</ele>
        <time>2011-11-06T08:33:34Z</time>
      </trkpt>
      <trkpt lat="50.39119" lon="3.42099">
        <ele>25.6123047</ele>
        <time>2011-11-06T08:33:42Z</time>
      </trkpt>
      <trkpt lat="50.39158" lon="3.42059">
        <ele>22.2475586</ele>
        <time>2011-11-06T08:33:49Z</time>
      </trkpt>
      <trkpt lat="50.39203" lon="3.42013">
        <ele>18.8830566</ele>
        <time>2011-11-06T08:33:57Z</time>
      </trkpt>
      <trkpt lat="50.3926" lon="3.41958">
        <ele>17.9217529</ele>
        <time>2011-11-06T08:34:06Z</time>
      </trkpt>
      <trkpt lat="50.39305" lon="3.41911">
        <ele>15.5184326</ele>
        <time>2011-11-06T08:34:13Z</time>
      </trkpt>
      <trkpt lat="50.39352" lon="3.41863">
        <ele>15.9990234</ele>
        <time>2011-11-06T08:34:20Z</time>
      </trkpt>
      <trkpt lat="50.39401" lon="3.41812">
        <ele>18.8830566</ele>
        <time>2011-11-06T08:34:28Z</time>
      </trkpt>
      <trkpt lat="50.3945" lon="3.4176">
        <ele>20.3249512</ele>
        <time>2011-11-06T08:34:36Z</time>
      </trkpt>
      <trkpt lat="50.39488" lon="3.41721">
        <ele>20.8056641</ele>
        <time>2011-11-06T08:34:43Z</time>
      </trkpt>
      <trkpt lat="50.39497" lon="3.41712">
        <ele>21.286377</ele>
        <time>2011-11-06T08:34:45Z</time>
      </trkpt>
      <trkpt lat="50.39515" lon="3.41712">
        <ele>21.286377</ele>
        <time>2011-11-06T08:34:49Z</time>
      </trkpt>
      <trkpt lat="50.39518" lon="3.41719">
        <ele>21.7669678</ele>
        <time>2011-11-06T08:34:50Z</time>
      </trkpt>
      <trkpt lat="50.39542" lon="3.41764">
        <ele>21.7669678</ele>
        <time>2011-11-06T08:34:55Z</time>
      </trkpt>
      <trkpt lat="50.39586" lon="3.41842">
        <ele>21.7669678</ele>
        <time>2011-11-06T08:35:03Z</time>
      </trkpt>
      <trkpt lat="50.396" lon="3.41869">
        <ele>22.2475586</ele>
        <time>2011-11-06T08:35:06Z</time>
      </trkpt>
      <trkpt lat="50.39629" lon="3.41922">
        <ele>20.8056641</ele>
        <time>2011-11-06T08:35:12Z</time>
      </trkpt>
      <trkpt lat="50.39648" lon="3.41959">
        <ele>19.8443604</ele>
        <time>2011-11-06T08:35:16Z</time>
      </trkpt>
      <trkpt lat="50.39671" lon="3.42006">
        <ele>19.3637695</ele>
        <time>2011-11-06T08:35:21Z</time>
      </trkpt>
      <trkpt lat="50.39701" lon="3.42066">
        <ele>20.8056641</ele>
        <time>2011-11-06T08:35:27Z</time>
      </trkpt>
      <trkpt lat="50.39724" lon="3.42116">
        <ele>20.8056641</ele>
        <time>2011-11-06T08:35:32Z</time>
      </trkpt>
      <trkpt lat="50.3976" lon="3.42191">
        <ele>21.286377</ele>
        <time>2011-11-06T08:35:40Z</time>
      </trkpt>
      <trkpt lat="50.39783" lon="3.42239">
        <ele>20.3249512</ele>
        <time>2011-11-06T08:35:45Z</time>
      </trkpt>
      <trkpt lat="50.39806" lon="3.42286">
        <ele>19.8443604</ele>
        <time>2011-11-06T08:35:50Z</time>
      </trkpt>
      <trkpt lat="50.39842" lon="3.42363">
        <ele>18.4023438</ele>
        <time>2011-11-06T08:35:58Z</time>
      </trkpt>
      <trkpt lat="50.39873" lon="3.42427">
        <ele>17.4411621</ele>
        <time>2011-11-06T08:36:05Z</time>
      </trkpt>
      <trkpt lat="50.39895" lon="3.42474">
        <ele>16.4797363</ele>
        <time>2011-11-06T08:36:10Z</time>
      </trkpt>
      <trkpt lat="50.39919" lon="3.42522">
        <ele>16.4797363</ele>
        <time>2011-11-06T08:36:15Z</time>
      </trkpt>
      <trkpt lat="50.39938" lon="3.42559">
        <ele>16.4797363</ele>
        <time>2011-11-06T08:36:19Z</time>
      </trkpt>
      <trkpt lat="50.39954" lon="3.42595">
        <ele>15.9990234</ele>
        <time>2011-11-06T08:36:23Z</time>
      </trkpt>
      <trkpt lat="50.39984" lon="3.42657">
        <ele>14.5570068</ele>
        <time>2011-11-06T08:36:30Z</time>
      </trkpt>
      <trkpt lat="50.40007" lon="3.42703">
        <ele>14.076416</ele>
        <time>2011-11-06T08:36:35Z</time>
      </trkpt>
      <trkpt lat="50.40024" lon="3.4274">
        <ele>14.076416</ele>
        <time>2011-11-06T08:36:39Z</time>
      </trkpt>
      <trkpt lat="50.40038" lon="3.42765">
        <ele>14.5570068</ele>
        <time>2011-11-06T08:36:42Z</time>
      </trkpt>
      <trkpt lat="50.40068" lon="3.42832">
        <ele>13.1151123</ele>
        <time>2011-11-06T08:36:49Z</time>
      </trkpt>
      <trkpt lat="50.40095" lon="3.42889">
        <ele>13.1151123</ele>
        <time>2011-11-06T08:36:55Z</time>
      </trkpt>
      <trkpt lat="50.40124" lon="3.42949">
        <ele>13.1151123</ele>
        <time>2011-11-06T08:37:02Z</time>
      </trkpt>
      <trkpt lat="50.40139" lon="3.42982">
        <ele>14.5570068</ele>
        <time>2011-11-06T08:37:06Z</time>
      </trkpt>
      <trkpt lat="50.40136" lon="3.43006">
        <ele>15.5184326</ele>
        <time>2011-11-06T08:37:10Z</time>
      </trkpt>
      <trkpt lat="50.40118" lon="3.4301">
        <ele>14.5570068</ele>
        <time>2011-11-06T08:37:14Z</time>
      </trkpt>
      <trkpt lat="50.40093" lon="3.43014">
        <ele>15.0377197</ele>
        <time>2011-11-06T08:37:17Z</time>
      </trkpt>
      <trkpt lat="50.40085" lon="3.43015">
        <ele>15.0377197</ele>
        <time>2011-11-06T08:37:18Z</time>
      </trkpt>
      <trkpt lat="50.40062" lon="3.43018">
        <ele>16.4797363</ele>
        <time>2011-11-06T08:37:21Z</time>
      </trkpt>
      <trkpt lat="50.40021" lon="3.43029">
        <ele>15.5184326</ele>
        <time>2011-11-06T08:37:27Z</time>
      </trkpt>
      <trkpt lat="50.39988" lon="3.43039">
        <ele>18.4023438</ele>
        <time>2011-11-06T08:37:32Z</time>
      </trkpt>
      <trkpt lat="50.39972" lon="3.43042">
        <ele>21.286377</ele>
        <time>2011-11-06T08:37:36Z</time>
      </trkpt>
      <trkpt lat="50.39963" lon="3.43045">
        <ele>21.7669678</ele>
        <time>2011-11-06T08:37:38Z</time>
      </trkpt>
      <trkpt lat="50.39936" lon="3.43052">
        <ele>24.651001</ele>
        <time>2011-11-06T08:37:43Z</time>
      </trkpt>
      <trkpt lat="50.39921" lon="3.43057">
        <ele>25.6123047</ele>
        <time>2011-11-06T08:37:45Z</time>
      </trkpt>
      <trkpt lat="50.39882" lon="3.43067">
        <ele>25.1317139</ele>
        <time>2011-11-06T08:37:50Z</time>
      </trkpt>
      <trkpt lat="50.3986" lon="3.43073">
        <ele>25.6123047</ele>
        <time>2011-11-06T08:37:53Z</time>
      </trkpt>
      <trkpt lat="50.39818" lon="3.43086">
        <ele>26.5736084</ele>
        <time>2011-11-06T08:37:59Z</time>
      </trkpt>
      <trkpt lat="50.39775" lon="3.43095">
        <ele>27.5349121</ele>
        <time>2011-11-06T08:38:05Z</time>
      </trkpt>
      <trkpt lat="50.39755" lon="3.43102">
        <ele>28.4962158</ele>
        <time>2011-11-06T08:38:08Z</time>
      </trkpt>
      <trkpt lat="50.39739" lon="3.43128">
        <ele>28.0155029</ele>
        <time>2011-11-06T08:38:12Z</time>
      </trkpt>
      <trkpt lat="50.39736" lon="3.43147">
        <ele>26.5736084</ele>
        <time>2011-11-06T08:38:14Z</time>
      </trkpt>
      <trkpt lat="50.39731" lon="3.4319">
        <ele>25.6123047</ele>
        <time>2011-11-06T08:38:18Z</time>
      </trkpt>
      <trkpt lat="50.39726" lon="3.43234">
        <ele>25.6123047</ele>
        <time>2011-11-06T08:38:22Z</time>
      </trkpt>
      <trkpt lat="50.39732" lon="3.43273">
        <ele>20.8056641</ele>
        <time>2011-11-06T08:38:26Z</time>
      </trkpt>
      <trkpt lat="50.39734" lon="3.43312">
        <ele>17.9217529</ele>
        <time>2011-11-06T08:38:30Z</time>
      </trkpt>
      <trkpt lat="50.39738" lon="3.43336">
        <ele>17.4411621</ele>
        <time>2011-11-06T08:38:33Z</time>
      </trkpt>
      <trkpt lat="50.39742" lon="3.43343">
        <ele>16.9604492</ele>
        <time>2011-11-06T08:38:34Z</time>
      </trkpt>
      <trkpt lat="50.39766" lon="3.43392">
        <ele>15.9990234</ele>
        <time>2011-11-06T08:38:40Z</time>
      </trkpt>
      <trkpt lat="50.39787" lon="3.43436">
        <ele>19.8443604</ele>
        <time>2011-11-06T08:38:45Z</time>
      </trkpt>
      <trkpt lat="50.39792" lon="3.43445">
        <ele>20.8056641</ele>
        <time>2011-11-06T08:38:46Z</time>
      </trkpt>
      <trkpt lat="50.39802" lon="3.43467">
        <ele>20.3249512</ele>
        <time>2011-11-06T08:38:49Z</time>
      </trkpt>
      <trkpt lat="50.39808" lon="3.43477">
        <ele>19.8443604</ele>
        <time>2011-11-06T08:38:51Z</time>
      </trkpt>
      <trkpt lat="50.39822" lon="3.43488">
        <ele>16.9604492</ele>
        <time>2011-11-06T08:38:55Z</time>
      </trkpt>
      <trkpt lat="50.39838" lon="3.43501">
        <ele>14.5570068</ele>
        <time>2011-11-06T08:38:59Z</time>
      </trkpt>
      <trkpt lat="50.39848" lon="3.43494">
        <ele>13.5958252</ele>
        <time>2011-11-06T08:39:03Z</time>
      </trkpt>
      <trkpt lat="50.39869" lon="3.43491">
        <ele>12.1538086</ele>
        <time>2011-11-06T08:39:08Z</time>
      </trkpt>
      <trkpt lat="50.39879" lon="3.43497">
        <ele>13.1151123</ele>
        <time>2011-11-06T08:39:10Z</time>
      </trkpt>
      <trkpt lat="50.39905" lon="3.43511">
        <ele>15.9990234</ele>
        <time>2011-11-06T08:39:15Z</time>
      </trkpt>
      <trkpt lat="50.39936" lon="3.43543">
        <ele>18.4023438</ele>
        <time>2011-11-06T08:39:21Z</time>
      </trkpt>
      <trkpt lat="50.39949" lon="3.43569">
        <ele>20.8056641</ele>
        <time>2011-11-06T08:39:27Z</time>
      </trkpt>
      <trkpt lat="50.39952" lon="3.43588">
        <ele>20.8056641</ele>
        <time>2011-11-06T08:39:31Z</time>
      </trkpt>
      <trkpt lat="50.39958" lon="3.43612">
        <ele>23.2089844</ele>
        <time>2011-11-06T08:39:35Z</time>
      </trkpt>
      <trkpt lat="50.3996" lon="3.43641">
        <ele>23.6895752</ele>
        <time>2011-11-06T08:39:39Z</time>
      </trkpt>
      <trkpt lat="50.39966" lon="3.43664">
        <ele>23.6895752</ele>
        <time>2011-11-06T08:39:43Z</time>
      </trkpt>
      <trkpt lat="50.39978" lon="3.43682">
        <ele>26.0928955</ele>
        <time>2011-11-06T08:39:48Z</time>
      </trkpt>
      <trkpt lat="50.39984" lon="3.43685">
        <ele>24.651001</ele>
        <time>2011-11-06T08:39:52Z</time>
      </trkpt>
      <trkpt lat="50.39991" lon="3.43689">
        <ele>24.1702881</ele>
        <time>2011-11-06T08:39:57Z</time>
      </trkpt>
      <trkpt lat="50.39992" lon="3.4369">
        <ele>24.1702881</ele>
        <time>2011-11-06T08:39:58Z</time>
      </trkpt>
      <trkpt lat="50.39992" lon="3.43709">
        <ele>24.1702881</ele>
        <time>2011-11-06T08:40:02Z</time>
      </trkpt>
      <trkpt lat="50.39996" lon="3.43736">
        <ele>22.7282715</ele>
        <time>2011-11-06T08:40:05Z</time>
      </trkpt>
      <trkpt lat="50.40003" lon="3.43746">
        <ele>21.7669678</ele>
        <time>2011-11-06T08:40:07Z</time>
      </trkpt>
      <trkpt lat="50.40015" lon="3.4377">
        <ele>18.4023438</ele>
        <time>2011-11-06T08:40:11Z</time>
      </trkpt>
      <trkpt lat="50.4002" lon="3.43808">
        <ele>16.9604492</ele>
        <time>2011-11-06T08:40:16Z</time>
      </trkpt>
      <trkpt lat="50.40024" lon="3.43821">
        <ele>16.9604492</ele>
        <time>2011-11-06T08:40:18Z</time>
      </trkpt>
      <trkpt lat="50.40032" lon="3.43846">
        <ele>16.4797363</ele>
        <time>2011-11-06T08:40:23Z</time>
      </trkpt>
      <trkpt lat="50.40038" lon="3.43848">
        <ele>16.9604492</ele>
        <time>2011-11-06T08:40:25Z</time>
      </trkpt>
      <trkpt lat="50.40042" lon="3.4385">
        <ele>16.4797363</ele>
        <time>2011-11-06T08:40:27Z</time>
      </trkpt>
      <trkpt lat="50.40053" lon="3.43851">
        <ele>15.5184326</ele>
        <time>2011-11-06T08:40:32Z</time>
      </trkpt>
      <trkpt lat="50.40077" lon="3.43828">
        <ele>10.2312012</ele>
        <time>2011-11-06T08:40:37Z</time>
      </trkpt>
      <trkpt lat="50.4009" lon="3.43807">
        <ele>6.3858643</ele>
        <time>2011-11-06T08:40:41Z</time>
      </trkpt>
      <trkpt lat="50.40097" lon="3.4378">
        <ele>3.5019531</ele>
        <time>2011-11-06T08:40:45Z</time>
      </trkpt>
      <trkpt lat="50.401" lon="3.43765">
        <ele>3.0212402</ele>
        <time>2011-11-06T08:40:47Z</time>
      </trkpt>
      <trkpt lat="50.40112" lon="3.43738">
        <ele>3.0212402</ele>
        <time>2011-11-06T08:40:51Z</time>
      </trkpt>
      <trkpt lat="50.4012" lon="3.43724">
        <ele>3.5019531</ele>
        <time>2011-11-06T08:40:53Z</time>
      </trkpt>
      <trkpt lat="50.40133" lon="3.4369">
        <ele>8.3085938</ele>
        <time>2011-11-06T08:40:57Z</time>
      </trkpt>
      <trkpt lat="50.40156" lon="3.43667">
        <ele>14.076416</ele>
        <time>2011-11-06T08:41:01Z</time>
      </trkpt>
      <trkpt lat="50.40173" lon="3.43666">
        <ele>13.1151123</ele>
        <time>2011-11-06T08:41:04Z</time>
      </trkpt>
      <trkpt lat="50.40185" lon="3.43668">
        <ele>13.5958252</ele>
        <time>2011-11-06T08:41:06Z</time>
      </trkpt>
      <trkpt lat="50.40216" lon="3.43687">
        <ele>19.3637695</ele>
        <time>2011-11-06T08:41:11Z</time>
      </trkpt>
      <trkpt lat="50.40225" lon="3.43713">
        <ele>20.3249512</ele>
        <time>2011-11-06T08:41:14Z</time>
      </trkpt>
      <trkpt lat="50.40241" lon="3.43745">
        <ele>18.4023438</ele>
        <time>2011-11-06T08:41:18Z</time>
      </trkpt>
      <trkpt lat="50.40252" lon="3.43754">
        <ele>16.9604492</ele>
        <time>2011-11-06T08:41:20Z</time>
      </trkpt>
      <trkpt lat="50.40263" lon="3.43763">
        <ele>15.9990234</ele>
        <time>2011-11-06T08:41:22Z</time>
      </trkpt>
      <trkpt lat="50.4028" lon="3.43792">
        <ele>14.5570068</ele>
        <time>2011-11-06T08:41:26Z</time>
      </trkpt>
      <trkpt lat="50.40282" lon="3.43802">
        <ele>14.5570068</ele>
        <time>2011-11-06T08:41:27Z</time>
      </trkpt>
      <trkpt lat="50.40288" lon="3.43832">
        <ele>15.0377197</ele>
        <time>2011-11-06T08:41:30Z</time>
      </trkpt>
      <trkpt lat="50.40292" lon="3.43874">
        <ele>15.5184326</ele>
        <time>2011-11-06T08:41:34Z</time>
      </trkpt>
      <trkpt lat="50.40287" lon="3.43925">
        <ele>17.4411621</ele>
        <time>2011-11-06T08:41:39Z</time>
      </trkpt>
      <trkpt lat="50.40289" lon="3.4395">
        <ele>18.8830566</ele>
        <time>2011-11-06T08:41:42Z</time>
      </trkpt>
      <trkpt lat="50.40297" lon="3.43998">
        <ele>21.7669678</ele>
        <time>2011-11-06T08:41:47Z</time>
      </trkpt>
      <trkpt lat="50.40297" lon="3.44038">
        <ele>23.6895752</ele>
        <time>2011-11-06T08:41:51Z</time>
      </trkpt>
      <trkpt lat="50.40301" lon="3.44056">
        <ele>25.1317139</ele>
        <time>2011-11-06T08:41:53Z</time>
      </trkpt>
      <trkpt lat="50.40306" lon="3.44138">
        <ele>31.380127</ele>
        <time>2011-11-06T08:42:01Z</time>
      </trkpt>
      <trkpt lat="50.40306" lon="3.44188">
        <ele>35.2254639</ele>
        <time>2011-11-06T08:42:06Z</time>
      </trkpt>
      <trkpt lat="50.40294" lon="3.44219">
        <ele>33.3028564</ele>
        <time>2011-11-06T08:42:10Z</time>
      </trkpt>
      <trkpt lat="50.40284" lon="3.44231">
        <ele>30.8995361</ele>
        <time>2011-11-06T08:42:12Z</time>
      </trkpt>
      <trkpt lat="50.4027" lon="3.44248">
        <ele>28.0155029</ele>
        <time>2011-11-06T08:42:15Z</time>
      </trkpt>
      <trkpt lat="50.40263" lon="3.44262">
        <ele>27.5349121</ele>
        <time>2011-11-06T08:42:17Z</time>
      </trkpt>
      <trkpt lat="50.40261" lon="3.44287">
        <ele>28.4962158</ele>
        <time>2011-11-06T08:42:21Z</time>
      </trkpt>
      <trkpt lat="50.4027" lon="3.44291">
        <ele>26.5736084</ele>
        <time>2011-11-06T08:42:23Z</time>
      </trkpt>
      <trkpt lat="50.40279" lon="3.44293">
        <ele>23.6895752</ele>
        <time>2011-11-06T08:42:25Z</time>
      </trkpt>
      <trkpt lat="50.40306" lon="3.4429">
        <ele>21.286377</ele>
        <time>2011-11-06T08:42:30Z</time>
      </trkpt>
      <trkpt lat="50.40341" lon="3.44287">
        <ele>19.8443604</ele>
        <time>2011-11-06T08:42:35Z</time>
      </trkpt>
      <trkpt lat="50.40369" lon="3.44283">
        <ele>17.9217529</ele>
        <time>2011-11-06T08:42:39Z</time>
      </trkpt>
      <trkpt lat="50.40399" lon="3.44274">
        <ele>17.4411621</ele>
        <time>2011-11-06T08:42:43Z</time>
      </trkpt>
      <trkpt lat="50.40427" lon="3.44272">
        <ele>18.8830566</ele>
        <time>2011-11-06T08:42:48Z</time>
      </trkpt>
      <trkpt lat="50.40449" lon="3.44251">
        <ele>19.3637695</ele>
        <time>2011-11-06T08:42:53Z</time>
      </trkpt>
      <trkpt lat="50.40464" lon="3.44228">
        <ele>18.4023438</ele>
        <time>2011-11-06T08:42:56Z</time>
      </trkpt>
      <trkpt lat="50.40507" lon="3.4417">
        <ele>16.9604492</ele>
        <time>2011-11-06T08:43:04Z</time>
      </trkpt>
      <trkpt lat="50.40543" lon="3.44138">
        <ele>15.5184326</ele>
        <time>2011-11-06T08:43:10Z</time>
      </trkpt>
      <trkpt lat="50.40584" lon="3.44123">
        <ele>15.0377197</ele>
        <time>2011-11-06T08:43:16Z</time>
      </trkpt>
      <trkpt lat="50.40613" lon="3.44108">
        <ele>14.5570068</ele>
        <time>2011-11-06T08:43:20Z</time>
      </trkpt>
      <trkpt lat="50.40633" lon="3.44088">
        <ele>15.0377197</ele>
        <time>2011-11-06T08:43:23Z</time>
      </trkpt>
      <trkpt lat="50.40648" lon="3.44066">
        <ele>15.5184326</ele>
        <time>2011-11-06T08:43:26Z</time>
      </trkpt>
      <trkpt lat="50.40645" lon="3.44038">
        <ele>16.9604492</ele>
        <time>2011-11-06T08:43:30Z</time>
      </trkpt>
      <trkpt lat="50.40641" lon="3.44029">
        <ele>17.9217529</ele>
        <time>2011-11-06T08:43:31Z</time>
      </trkpt>
      <trkpt lat="50.40608" lon="3.43962">
        <ele>20.8056641</ele>
        <time>2011-11-06T08:43:38Z</time>
      </trkpt>
      <trkpt lat="50.40578" lon="3.43894">
        <ele>22.7282715</ele>
        <time>2011-11-06T08:43:45Z</time>
      </trkpt>
      <trkpt lat="50.40541" lon="3.43819">
        <ele>22.7282715</ele>
        <time>2011-11-06T08:43:53Z</time>
      </trkpt>
      <trkpt lat="50.40508" lon="3.43748">
        <ele>21.286377</ele>
        <time>2011-11-06T08:44:01Z</time>
      </trkpt>
      <trkpt lat="50.40475" lon="3.43681">
        <ele>22.2475586</ele>
        <time>2011-11-06T08:44:08Z</time>
      </trkpt>
      <trkpt lat="50.40444" lon="3.43615">
        <ele>18.8830566</ele>
        <time>2011-11-06T08:44:15Z</time>
      </trkpt>
      <trkpt lat="50.40417" lon="3.43561">
        <ele>18.8830566</ele>
        <time>2011-11-06T08:44:21Z</time>
      </trkpt>
      <trkpt lat="50.40394" lon="3.43511">
        <ele>20.3249512</ele>
        <time>2011-11-06T08:44:27Z</time>
      </trkpt>
      <trkpt lat="50.40369" lon="3.43461">
        <ele>19.3637695</ele>
        <time>2011-11-06T08:44:32Z</time>
      </trkpt>
      <trkpt lat="50.40331" lon="3.43377">
        <ele>21.286377</ele>
        <time>2011-11-06T08:44:40Z</time>
      </trkpt>
      <trkpt lat="50.40297" lon="3.43308">
        <ele>23.2089844</ele>
        <time>2011-11-06T08:44:47Z</time>
      </trkpt>
      <trkpt lat="50.40265" lon="3.43239">
        <ele>23.6895752</ele>
        <time>2011-11-06T08:44:54Z</time>
      </trkpt>
      <trkpt lat="50.40228" lon="3.43159">
        <ele>23.2089844</ele>
        <time>2011-11-06T08:45:02Z</time>
      </trkpt>
      <trkpt lat="50.40196" lon="3.43092">
        <ele>19.8443604</ele>
        <time>2011-11-06T08:45:09Z</time>
      </trkpt>
      <trkpt lat="50.40161" lon="3.43017">
        <ele>18.4023438</ele>
        <time>2011-11-06T08:45:17Z</time>
      </trkpt>
      <trkpt lat="50.40158" lon="3.43009">
        <ele>19.3637695</ele>
        <time>2011-11-06T08:45:18Z</time>
      </trkpt>
      <trkpt lat="50.4016" lon="3.42988">
        <ele>19.3637695</ele>
        <time>2011-11-06T08:45:22Z</time>
      </trkpt>
      <trkpt lat="50.40168" lon="3.42986">
        <ele>17.4411621</ele>
        <time>2011-11-06T08:45:24Z</time>
      </trkpt>
      <trkpt lat="50.4018" lon="3.42985">
        <ele>16.9604492</ele>
        <time>2011-11-06T08:45:26Z</time>
      </trkpt>
      <trkpt lat="50.40235" lon="3.42973">
        <ele>17.4411621</ele>
        <time>2011-11-06T08:45:34Z</time>
      </trkpt>
      <trkpt lat="50.4028" lon="3.4296">
        <ele>17.4411621</ele>
        <time>2011-11-06T08:45:40Z</time>
      </trkpt>
      <trkpt lat="50.40331" lon="3.42939">
        <ele>17.9217529</ele>
        <time>2011-11-06T08:45:47Z</time>
      </trkpt>
      <trkpt lat="50.4038" lon="3.42919">
        <ele>17.9217529</ele>
        <time>2011-11-06T08:45:53Z</time>
      </trkpt>
      <trkpt lat="50.40436" lon="3.42895">
        <ele>17.9217529</ele>
        <time>2011-11-06T08:46:00Z</time>
      </trkpt>
      <trkpt lat="50.40501" lon="3.4287">
        <ele>16.9604492</ele>
        <time>2011-11-06T08:46:08Z</time>
      </trkpt>
      <trkpt lat="50.4055" lon="3.42851">
        <ele>16.4797363</ele>
        <time>2011-11-06T08:46:14Z</time>
      </trkpt>
      <trkpt lat="50.40598" lon="3.4283">
        <ele>17.9217529</ele>
        <time>2011-11-06T08:46:20Z</time>
      </trkpt>
      <trkpt lat="50.40645" lon="3.42815">
        <ele>19.3637695</ele>
        <time>2011-11-06T08:46:26Z</time>
      </trkpt>
      <trkpt lat="50.40697" lon="3.428">
        <ele>18.4023438</ele>
        <time>2011-11-06T08:46:33Z</time>
      </trkpt>
      <trkpt lat="50.40754" lon="3.42794">
        <ele>20.8056641</ele>
        <time>2011-11-06T08:46:41Z</time>
      </trkpt>
      <trkpt lat="50.40767" lon="3.42794">
        <ele>22.7282715</ele>
        <time>2011-11-06T08:46:43Z</time>
      </trkpt>
      <trkpt lat="50.40832" lon="3.42786">
        <ele>30.4188232</ele>
        <time>2011-11-06T08:46:52Z</time>
      </trkpt>
      <trkpt lat="50.40868" lon="3.42781">
        <ele>29.4575195</ele>
        <time>2011-11-06T08:46:57Z</time>
      </trkpt>
      <trkpt lat="50.4089" lon="3.42765">
        <ele>28.0155029</ele>
        <time>2011-11-06T08:47:01Z</time>
      </trkpt>
      <trkpt lat="50.40894" lon="3.42758">
        <ele>28.4962158</ele>
        <time>2011-11-06T08:47:02Z</time>
      </trkpt>
      <trkpt lat="50.40902" lon="3.42732">
        <ele>28.0155029</ele>
        <time>2011-11-06T08:47:06Z</time>
      </trkpt>
      <trkpt lat="50.40911" lon="3.42713">
        <ele>26.5736084</ele>
        <time>2011-11-06T08:47:09Z</time>
      </trkpt>
      <trkpt lat="50.40932" lon="3.42657">
        <ele>24.1702881</ele>
        <time>2011-11-06T08:47:16Z</time>
      </trkpt>
      <trkpt lat="50.40933" lon="3.42615">
        <ele>21.7669678</ele>
        <time>2011-11-06T08:47:20Z</time>
      </trkpt>
      <trkpt lat="50.40929" lon="3.42592">
        <ele>21.7669678</ele>
        <time>2011-11-06T08:47:22Z</time>
      </trkpt>
      <trkpt lat="50.40924" lon="3.42526">
        <ele>19.3637695</ele>
        <time>2011-11-06T08:47:28Z</time>
      </trkpt>
      <trkpt lat="50.40927" lon="3.42476">
        <ele>17.4411621</ele>
        <time>2011-11-06T08:47:33Z</time>
      </trkpt>
      <trkpt lat="50.40934" lon="3.42428">
        <ele>14.5570068</ele>
        <time>2011-11-06T08:47:38Z</time>
      </trkpt>
      <trkpt lat="50.40936" lon="3.4238">
        <ele>13.1151123</ele>
        <time>2011-11-06T08:47:43Z</time>
      </trkpt>
      <trkpt lat="50.40934" lon="3.42352">
        <ele>12.1538086</ele>
        <time>2011-11-06T08:47:46Z</time>
      </trkpt>
      <trkpt lat="50.40928" lon="3.42324">
        <ele>12.1538086</ele>
        <time>2011-11-06T08:47:49Z</time>
      </trkpt>
      <trkpt lat="50.40912" lon="3.42271">
        <ele>12.6343994</ele>
        <time>2011-11-06T08:47:55Z</time>
      </trkpt>
      <trkpt lat="50.40905" lon="3.42234">
        <ele>12.1538086</ele>
        <time>2011-11-06T08:47:59Z</time>
      </trkpt>
      <trkpt lat="50.409" lon="3.4217">
        <ele>17.9217529</ele>
        <time>2011-11-06T08:48:06Z</time>
      </trkpt>
      <trkpt lat="50.40894" lon="3.42122">
        <ele>20.8056641</ele>
        <time>2011-11-06T08:48:11Z</time>
      </trkpt>
      <trkpt lat="50.40887" lon="3.42087">
        <ele>21.7669678</ele>
        <time>2011-11-06T08:48:15Z</time>
      </trkpt>
      <trkpt lat="50.40883" lon="3.42039">
        <ele>24.1702881</ele>
        <time>2011-11-06T08:48:21Z</time>
      </trkpt>
      <trkpt lat="50.40878" lon="3.42002">
        <ele>26.0928955</ele>
        <time>2011-11-06T08:48:25Z</time>
      </trkpt>
      <trkpt lat="50.4088" lon="3.4197">
        <ele>28.4962158</ele>
        <time>2011-11-06T08:48:29Z</time>
      </trkpt>
      <trkpt lat="50.40883" lon="3.41957">
        <ele>28.4962158</ele>
        <time>2011-11-06T08:48:31Z</time>
      </trkpt>
      <trkpt lat="50.40897" lon="3.41915">
        <ele>28.9769287</ele>
        <time>2011-11-06T08:48:36Z</time>
      </trkpt>
      <trkpt lat="50.40914" lon="3.41868">
        <ele>27.5349121</ele>
        <time>2011-11-06T08:48:42Z</time>
      </trkpt>
      <trkpt lat="50.40927" lon="3.41816">
        <ele>24.651001</ele>
        <time>2011-11-06T08:48:48Z</time>
      </trkpt>
      <trkpt lat="50.40936" lon="3.41778">
        <ele>22.2475586</ele>
        <time>2011-11-06T08:48:53Z</time>
      </trkpt>
      <trkpt lat="50.40946" lon="3.41742">
        <ele>21.7669678</ele>
        <time>2011-11-06T08:48:58Z</time>
      </trkpt>
      <trkpt lat="50.40943" lon="3.41699">
        <ele>23.2089844</ele>
        <time>2011-11-06T08:49:03Z</time>
      </trkpt>
      <trkpt lat="50.40935" lon="3.41685">
        <ele>24.1702881</ele>
        <time>2011-11-06T08:49:05Z</time>
      </trkpt>
      <trkpt lat="50.40904" lon="3.4164">
        <ele>18.4023438</ele>
        <time>2011-11-06T08:49:12Z</time>
      </trkpt>
      <trkpt lat="50.40877" lon="3.41599">
        <ele>14.5570068</ele>
        <time>2011-11-06T08:49:18Z</time>
      </trkpt>
      <trkpt lat="50.40872" lon="3.41592">
        <ele>14.5570068</ele>
        <time>2011-11-06T08:49:19Z</time>
      </trkpt>
      <trkpt lat="50.40835" lon="3.41544">
        <ele>11.6732178</ele>
        <time>2011-11-06T08:49:26Z</time>
      </trkpt>
      <trkpt lat="50.40798" lon="3.41491">
        <ele>12.6343994</ele>
        <time>2011-11-06T08:49:33Z</time>
      </trkpt>
      <trkpt lat="50.40773" lon="3.41454">
        <ele>11.6732178</ele>
        <time>2011-11-06T08:49:38Z</time>
      </trkpt>
      <trkpt lat="50.40737" lon="3.41407">
        <ele>11.6732178</ele>
        <time>2011-11-06T08:49:45Z</time>
      </trkpt>
      <trkpt lat="50.40713" lon="3.41372">
        <ele>11.1925049</ele>
        <time>2011-11-06T08:49:50Z</time>
      </trkpt>
      <trkpt lat="50.407" lon="3.41353">
        <ele>9.7506104</ele>
        <time>2011-11-06T08:49:53Z</time>
      </trkpt>
      <trkpt lat="50.40686" lon="3.41333">
        <ele>9.7506104</ele>
        <time>2011-11-06T08:49:56Z</time>
      </trkpt>
      <trkpt lat="50.40652" lon="3.41279">
        <ele>9.7506104</ele>
        <time>2011-11-06T08:50:03Z</time>
      </trkpt>
      <trkpt lat="50.40616" lon="3.41235">
        <ele>9.7506104</ele>
        <time>2011-11-06T08:50:10Z</time>
      </trkpt>
      <trkpt lat="50.40582" lon="3.41185">
        <ele>11.1925049</ele>
        <time>2011-11-06T08:50:17Z</time>
      </trkpt>
      <trkpt lat="50.40544" lon="3.41135">
        <ele>12.6343994</ele>
        <time>2011-11-06T08:50:24Z</time>
      </trkpt>
      <trkpt lat="50.40531" lon="3.41114">
        <ele>10.711792</ele>
        <time>2011-11-06T08:50:27Z</time>
      </trkpt>
      <trkpt lat="50.40494" lon="3.41065">
        <ele>9.2698975</ele>
        <time>2011-11-06T08:50:34Z</time>
      </trkpt>
      <trkpt lat="50.40474" lon="3.41037">
        <ele>9.2698975</ele>
        <time>2011-11-06T08:50:38Z</time>
      </trkpt>
      <trkpt lat="50.40447" lon="3.41004">
        <ele>11.6732178</ele>
        <time>2011-11-06T08:50:43Z</time>
      </trkpt>
      <trkpt lat="50.4043" lon="3.40976">
        <ele>14.076416</ele>
        <time>2011-11-06T08:50:47Z</time>
      </trkpt>
      <trkpt lat="50.40414" lon="3.40956">
        <ele>14.076416</ele>
        <time>2011-11-06T08:50:50Z</time>
      </trkpt>
      <trkpt lat="50.40406" lon="3.40941">
        <ele>15.9990234</ele>
        <time>2011-11-06T08:50:52Z</time>
      </trkpt>
      <trkpt lat="50.40374" lon="3.40897">
        <ele>14.5570068</ele>
        <time>2011-11-06T08:50:58Z</time>
      </trkpt>
      <trkpt lat="50.40364" lon="3.40883">
        <ele>14.076416</ele>
        <time>2011-11-06T08:51:00Z</time>
      </trkpt>
      <trkpt lat="50.40341" lon="3.40849">
        <ele>16.4797363</ele>
        <time>2011-11-06T08:51:05Z</time>
      </trkpt>
      <trkpt lat="50.4032" lon="3.40849">
        <ele>15.5184326</ele>
        <time>2011-11-06T08:51:09Z</time>
      </trkpt>
      <trkpt lat="50.40315" lon="3.40855">
        <ele>15.5184326</ele>
        <time>2011-11-06T08:51:10Z</time>
      </trkpt>
      <trkpt lat="50.40274" lon="3.40902">
        <ele>14.076416</ele>
        <time>2011-11-06T08:51:17Z</time>
      </trkpt>
      <trkpt lat="50.40236" lon="3.40943">
        <ele>12.6343994</ele>
        <time>2011-11-06T08:51:23Z</time>
      </trkpt>
      <trkpt lat="50.40194" lon="3.40987">
        <ele>13.5958252</ele>
        <time>2011-11-06T08:51:30Z</time>
      </trkpt>
      <trkpt lat="50.40153" lon="3.41029">
        <ele>14.5570068</ele>
        <time>2011-11-06T08:51:37Z</time>
      </trkpt>
      <trkpt lat="50.40092" lon="3.4109">
        <ele>14.076416</ele>
        <time>2011-11-06T08:51:47Z</time>
      </trkpt>
      <trkpt lat="50.4005" lon="3.41136">
        <ele>13.5958252</ele>
        <time>2011-11-06T08:51:54Z</time>
      </trkpt>
      <trkpt lat="50.40012" lon="3.41175">
        <ele>14.5570068</ele>
        <time>2011-11-06T08:52:00Z</time>
      </trkpt>
      <trkpt lat="50.39957" lon="3.41231">
        <ele>14.5570068</ele>
        <time>2011-11-06T08:52:09Z</time>
      </trkpt>
      <trkpt lat="50.39901" lon="3.41289">
        <ele>16.4797363</ele>
        <time>2011-11-06T08:52:18Z</time>
      </trkpt>
      <trkpt lat="50.39852" lon="3.41343">
        <ele>16.4797363</ele>
        <time>2011-11-06T08:52:26Z</time>
      </trkpt>
      <trkpt lat="50.39808" lon="3.41389">
        <ele>15.0377197</ele>
        <time>2011-11-06T08:52:33Z</time>
      </trkpt>
      <trkpt lat="50.39758" lon="3.41443">
        <ele>13.5958252</ele>
        <time>2011-11-06T08:52:41Z</time>
      </trkpt>
      <trkpt lat="50.397" lon="3.41504">
        <ele>11.6732178</ele>
        <time>2011-11-06T08:52:50Z</time>
      </trkpt>
      <trkpt lat="50.39634" lon="3.41572">
        <ele>12.1538086</ele>
        <time>2011-11-06T08:53:00Z</time>
      </trkpt>
      <trkpt lat="50.39589" lon="3.4162">
        <ele>12.1538086</ele>
        <time>2011-11-06T08:53:07Z</time>
      </trkpt>
      <trkpt lat="50.39539" lon="3.41671">
        <ele>14.5570068</ele>
        <time>2011-11-06T08:53:15Z</time>
      </trkpt>
      <trkpt lat="50.39533" lon="3.41677">
        <ele>15.0377197</ele>
        <time>2011-11-06T08:53:16Z</time>
      </trkpt>
      <trkpt lat="50.39516" lon="3.41687">
        <ele>15.0377197</ele>
        <time>2011-11-06T08:53:19Z</time>
      </trkpt>
      <trkpt lat="50.39494" lon="3.41681">
        <ele>16.9604492</ele>
        <time>2011-11-06T08:53:23Z</time>
      </trkpt>
      <trkpt lat="50.39473" lon="3.41645">
        <ele>16.4797363</ele>
        <time>2011-11-06T08:53:29Z</time>
      </trkpt>
      <trkpt lat="50.39444" lon="3.41591">
        <ele>15.9990234</ele>
        <time>2011-11-06T08:53:36Z</time>
      </trkpt>
      <trkpt lat="50.39421" lon="3.41549">
        <ele>16.9604492</ele>
        <time>2011-11-06T08:53:42Z</time>
      </trkpt>
      <trkpt lat="50.39389" lon="3.41491">
        <ele>20.8056641</ele>
        <time>2011-11-06T08:53:50Z</time>
      </trkpt>
      <trkpt lat="50.39379" lon="3.41471">
        <ele>22.2475586</ele>
        <time>2011-11-06T08:53:53Z</time>
      </trkpt>
      <trkpt lat="50.39378" lon="3.41429">
        <ele>24.651001</ele>
        <time>2011-11-06T08:53:58Z</time>
      </trkpt>
      <trkpt lat="50.3939" lon="3.41349">
        <ele>25.1317139</ele>
        <time>2011-11-06T08:54:06Z</time>
      </trkpt>
      <trkpt lat="50.394" lon="3.41284">
        <ele>29.4575195</ele>
        <time>2011-11-06T08:54:12Z</time>
      </trkpt>
      <trkpt lat="50.39407" lon="3.41228">
        <ele>32.8222656</ele>
        <time>2011-11-06T08:54:17Z</time>
      </trkpt>
      <trkpt lat="50.39414" lon="3.4118">
        <ele>35.2254639</ele>
        <time>2011-11-06T08:54:21Z</time>
      </trkpt>
      <trkpt lat="50.39427" lon="3.41086">
        <ele>35.7060547</ele>
        <time>2011-11-06T08:54:29Z</time>
      </trkpt>
      <trkpt lat="50.39437" lon="3.41015">
        <ele>34.2641602</ele>
        <time>2011-11-06T08:54:35Z</time>
      </trkpt>
      <trkpt lat="50.39448" lon="3.40944">
        <ele>30.8995361</ele>
        <time>2011-11-06T08:54:41Z</time>
      </trkpt>
      <trkpt lat="50.3946" lon="3.40848">
        <ele>39.0706787</ele>
        <time>2011-11-06T08:54:49Z</time>
      </trkpt>
      <trkpt lat="50.39468" lon="3.40767">
        <ele>36.1867676</ele>
        <time>2011-11-06T08:54:56Z</time>
      </trkpt>
      <trkpt lat="50.3947" lon="3.40734">
        <ele>35.2254639</ele>
        <time>2011-11-06T08:54:59Z</time>
      </trkpt>
      <trkpt lat="50.3948" lon="3.40663">
        <ele>33.7834473</ele>
        <time>2011-11-06T08:55:06Z</time>
      </trkpt>
      <trkpt lat="50.39486" lon="3.40628">
        <ele>33.3028564</ele>
        <time>2011-11-06T08:55:10Z</time>
      </trkpt>
      <trkpt lat="50.39496" lon="3.40567">
        <ele>31.8607178</ele>
        <time>2011-11-06T08:55:16Z</time>
      </trkpt>
      <trkpt lat="50.39508" lon="3.40483">
        <ele>26.5736084</ele>
        <time>2011-11-06T08:55:23Z</time>
      </trkpt>
      <trkpt lat="50.39509" lon="3.40471">
        <ele>26.0928955</ele>
        <time>2011-11-06T08:55:24Z</time>
      </trkpt>
      <trkpt lat="50.39516" lon="3.40405">
        <ele>25.6123047</ele>
        <time>2011-11-06T08:55:30Z</time>
      </trkpt>
      <trkpt lat="50.39525" lon="3.40333">
        <ele>24.651001</ele>
        <time>2011-11-06T08:55:36Z</time>
      </trkpt>
      <trkpt lat="50.39538" lon="3.40252">
        <ele>24.651001</ele>
        <time>2011-11-06T08:55:43Z</time>
      </trkpt>
      <trkpt lat="50.39546" lon="3.40186">
        <ele>22.2475586</ele>
        <time>2011-11-06T08:55:49Z</time>
      </trkpt>
      <trkpt lat="50.39552" lon="3.40146">
        <ele>23.2089844</ele>
        <time>2011-11-06T08:55:53Z</time>
      </trkpt>
      <trkpt lat="50.39556" lon="3.40103">
        <ele>24.651001</ele>
        <time>2011-11-06T08:55:58Z</time>
      </trkpt>
      <trkpt lat="50.39561" lon="3.40082">
        <ele>24.1702881</ele>
        <time>2011-11-06T08:56:02Z</time>
      </trkpt>
      <trkpt lat="50.39562" lon="3.40064">
        <ele>24.651001</ele>
        <time>2011-11-06T08:56:05Z</time>
      </trkpt>
      <trkpt lat="50.39564" lon="3.40039">
        <ele>22.7282715</ele>
        <time>2011-11-06T08:56:08Z</time>
      </trkpt>
      <trkpt lat="50.39571" lon="3.3997">
        <ele>23.2089844</ele>
        <time>2011-11-06T08:56:14Z</time>
      </trkpt>
      <trkpt lat="50.39581" lon="3.39907">
        <ele>22.2475586</ele>
        <time>2011-11-06T08:56:19Z</time>
      </trkpt>
      <trkpt lat="50.3959" lon="3.39851">
        <ele>22.2475586</ele>
        <time>2011-11-06T08:56:24Z</time>
      </trkpt>
      <trkpt lat="50.39597" lon="3.3978">
        <ele>17.9217529</ele>
        <time>2011-11-06T08:56:30Z</time>
      </trkpt>
      <trkpt lat="50.39607" lon="3.39695">
        <ele>15.0377197</ele>
        <time>2011-11-06T08:56:37Z</time>
      </trkpt>
      <trkpt lat="50.3962" lon="3.39599">
        <ele>12.6343994</ele>
        <time>2011-11-06T08:56:45Z</time>
      </trkpt>
      <trkpt lat="50.39631" lon="3.39512">
        <ele>12.1538086</ele>
        <time>2011-11-06T08:56:52Z</time>
      </trkpt>
      <trkpt lat="50.39641" lon="3.39437">
        <ele>12.6343994</ele>
        <time>2011-11-06T08:56:59Z</time>
      </trkpt>
      <trkpt lat="50.39651" lon="3.39364">
        <ele>13.5958252</ele>
        <time>2011-11-06T08:57:06Z</time>
      </trkpt>
      <trkpt lat="50.39661" lon="3.39289">
        <ele>15.5184326</ele>
        <time>2011-11-06T08:57:13Z</time>
      </trkpt>
      <trkpt lat="50.39662" lon="3.39276">
        <ele>15.5184326</ele>
        <time>2011-11-06T08:57:14Z</time>
      </trkpt>
      <trkpt lat="50.39667" lon="3.39234">
        <ele>15.9990234</ele>
        <time>2011-11-06T08:57:18Z</time>
      </trkpt>
      <trkpt lat="50.39677" lon="3.39156">
        <ele>17.4411621</ele>
        <time>2011-11-06T08:57:25Z</time>
      </trkpt>
      <trkpt lat="50.39684" lon="3.39105">
        <ele>20.3249512</ele>
        <time>2011-11-06T08:57:30Z</time>
      </trkpt>
      <trkpt lat="50.39685" lon="3.39096">
        <ele>21.7669678</ele>
        <time>2011-11-06T08:57:31Z</time>
      </trkpt>
      <trkpt lat="50.39686" lon="3.39077">
        <ele>25.1317139</ele>
        <time>2011-11-06T08:57:33Z</time>
      </trkpt>
      <trkpt lat="50.39695" lon="3.39031">
        <ele>29.9381104</ele>
        <time>2011-11-06T08:57:38Z</time>
      </trkpt>
      <trkpt lat="50.39702" lon="3.38971">
        <ele>28.9769287</ele>
        <time>2011-11-06T08:57:44Z</time>
      </trkpt>
      <trkpt lat="50.39709" lon="3.38903">
        <ele>30.4188232</ele>
        <time>2011-11-06T08:57:51Z</time>
      </trkpt>
      <trkpt lat="50.3971" lon="3.38873">
        <ele>32.8222656</ele>
        <time>2011-11-06T08:57:54Z</time>
      </trkpt>
      <trkpt lat="50.39712" lon="3.38853">
        <ele>33.3028564</ele>
        <time>2011-11-06T08:57:56Z</time>
      </trkpt>
      <trkpt lat="50.39723" lon="3.38791">
        <ele>32.3415527</ele>
        <time>2011-11-06T08:58:02Z</time>
      </trkpt>
      <trkpt lat="50.39727" lon="3.38768">
        <ele>34.2641602</ele>
        <time>2011-11-06T08:58:04Z</time>
      </trkpt>
      <trkpt lat="50.39737" lon="3.38699">
        <ele>40.5128174</ele>
        <time>2011-11-06T08:58:10Z</time>
      </trkpt>
      <trkpt lat="50.39738" lon="3.3869">
        <ele>40.5128174</ele>
        <time>2011-11-06T08:58:11Z</time>
      </trkpt>
      <trkpt lat="50.39747" lon="3.38639">
        <ele>37.6286621</ele>
        <time>2011-11-06T08:58:16Z</time>
      </trkpt>
      <trkpt lat="50.39753" lon="3.38591">
        <ele>35.2254639</ele>
        <time>2011-11-06T08:58:20Z</time>
      </trkpt>
      <trkpt lat="50.39763" lon="3.3851">
        <ele>26.5736084</ele>
        <time>2011-11-06T08:58:27Z</time>
      </trkpt>
      <trkpt lat="50.3977" lon="3.38453">
        <ele>25.6123047</ele>
        <time>2011-11-06T08:58:32Z</time>
      </trkpt>
      <trkpt lat="50.39776" lon="3.38392">
        <ele>24.1702881</ele>
        <time>2011-11-06T08:58:38Z</time>
      </trkpt>
      <trkpt lat="50.39781" lon="3.38343">
        <ele>24.1702881</ele>
        <time>2011-11-06T08:58:43Z</time>
      </trkpt>
      <trkpt lat="50.39783" lon="3.38322">
        <ele>23.2089844</ele>
        <time>2011-11-06T08:58:45Z</time>
      </trkpt>
      <trkpt lat="50.39789" lon="3.38267">
        <ele>21.286377</ele>
        <time>2011-11-06T08:58:50Z</time>
      </trkpt>
      <trkpt lat="50.39797" lon="3.38213">
        <ele>24.1702881</ele>
        <time>2011-11-06T08:58:55Z</time>
      </trkpt>
      <trkpt lat="50.39801" lon="3.38178">
        <ele>24.1702881</ele>
        <time>2011-11-06T08:58:58Z</time>
      </trkpt>
      <trkpt lat="50.39806" lon="3.38146">
        <ele>26.5736084</ele>
        <time>2011-11-06T08:59:01Z</time>
      </trkpt>
      <trkpt lat="50.39811" lon="3.38108">
        <ele>23.2089844</ele>
        <time>2011-11-06T08:59:05Z</time>
      </trkpt>
      <trkpt lat="50.39819" lon="3.38041">
        <ele>25.1317139</ele>
        <time>2011-11-06T08:59:11Z</time>
      </trkpt>
      <trkpt lat="50.39829" lon="3.37989">
        <ele>29.9381104</ele>
        <time>2011-11-06T08:59:16Z</time>
      </trkpt>
      <trkpt lat="50.39841" lon="3.37921">
        <ele>32.8222656</ele>
        <time>2011-11-06T08:59:23Z</time>
      </trkpt>
      <trkpt lat="50.39843" lon="3.37912">
        <ele>32.3415527</ele>
        <time>2011-11-06T08:59:24Z</time>
      </trkpt>
      <trkpt lat="50.39854" lon="3.3787">
        <ele>28.4962158</ele>
        <time>2011-11-06T08:59:29Z</time>
      </trkpt>
      <trkpt lat="50.39876" lon="3.37826">
        <ele>23.6895752</ele>
        <time>2011-11-06T08:59:35Z</time>
      </trkpt>
      <trkpt lat="50.3989" lon="3.37798">
        <ele>22.7282715</ele>
        <time>2011-11-06T08:59:39Z</time>
      </trkpt>
      <trkpt lat="50.3989" lon="3.37777">
        <ele>21.286377</ele>
        <time>2011-11-06T08:59:43Z</time>
      </trkpt>
      <trkpt lat="50.39886" lon="3.37775">
        <ele>20.8056641</ele>
        <time>2011-11-06T08:59:44Z</time>
      </trkpt>
      <trkpt lat="50.39853" lon="3.3777">
        <ele>17.9217529</ele>
        <time>2011-11-06T08:59:49Z</time>
      </trkpt>
      <trkpt lat="50.39807" lon="3.37761">
        <ele>11.6732178</ele>
        <time>2011-11-06T08:59:55Z</time>
      </trkpt>
      <trkpt lat="50.39775" lon="3.37755">
        <ele>10.2312012</ele>
        <time>2011-11-06T08:59:59Z</time>
      </trkpt>
      <trkpt lat="50.39726" lon="3.37767">
        <ele>11.6732178</ele>
        <time>2011-11-06T09:00:05Z</time>
      </trkpt>
      <trkpt lat="50.39718" lon="3.37769">
        <ele>12.1538086</ele>
        <time>2011-11-06T09:00:06Z</time>
      </trkpt>
      <trkpt lat="50.3964" lon="3.37762">
        <ele>14.5570068</ele>
        <time>2011-11-06T09:00:16Z</time>
      </trkpt>
      <trkpt lat="50.39594" lon="3.3774">
        <ele>14.5570068</ele>
        <time>2011-11-06T09:00:22Z</time>
      </trkpt>
      <trkpt lat="50.39587" lon="3.37733">
        <ele>14.5570068</ele>
        <time>2011-11-06T09:00:23Z</time>
      </trkpt>
      <trkpt lat="50.39548" lon="3.37682">
        <ele>14.076416</ele>
        <time>2011-11-06T09:00:29Z</time>
      </trkpt>
      <trkpt lat="50.39503" lon="3.37614">
        <ele>14.5570068</ele>
        <time>2011-11-06T09:00:36Z</time>
      </trkpt>
      <trkpt lat="50.3949" lon="3.37598">
        <ele>14.076416</ele>
        <time>2011-11-06T09:00:38Z</time>
      </trkpt>
      <trkpt lat="50.3944" lon="3.37564">
        <ele>14.076416</ele>
        <time>2011-11-06T09:00:44Z</time>
      </trkpt>
      <trkpt lat="50.39366" lon="3.37519">
        <ele>15.0377197</ele>
        <time>2011-11-06T09:00:53Z</time>
      </trkpt>
      <trkpt lat="50.39281" lon="3.37468">
        <ele>15.5184326</ele>
        <time>2011-11-06T09:01:03Z</time>
      </trkpt>
      <trkpt lat="50.39194" lon="3.3742">
        <ele>15.0377197</ele>
        <time>2011-11-06T09:01:13Z</time>
      </trkpt>
      <trkpt lat="50.39132" lon="3.37395">
        <ele>15.0377197</ele>
        <time>2011-11-06T09:01:20Z</time>
      </trkpt>
      <trkpt lat="50.39071" lon="3.37372">
        <ele>14.5570068</ele>
        <time>2011-11-06T09:01:27Z</time>
      </trkpt>
      <trkpt lat="50.39032" lon="3.37338">
        <ele>14.5570068</ele>
        <time>2011-11-06T09:01:32Z</time>
      </trkpt>
      <trkpt lat="50.3895" lon="3.37252">
        <ele>14.076416</ele>
        <time>2011-11-06T09:01:43Z</time>
      </trkpt>
      <trkpt lat="50.38891" lon="3.37189">
        <ele>14.076416</ele>
        <time>2011-11-06T09:01:51Z</time>
      </trkpt>
      <trkpt lat="50.38823" lon="3.37117">
        <ele>14.076416</ele>
        <time>2011-11-06T09:02:00Z</time>
      </trkpt>
      <trkpt lat="50.38745" lon="3.37034">
        <ele>13.5958252</ele>
        <time>2011-11-06T09:02:10Z</time>
      </trkpt>
      <trkpt lat="50.38693" lon="3.36979">
        <ele>13.5958252</ele>
        <time>2011-11-06T09:02:17Z</time>
      </trkpt>
      <trkpt lat="50.38641" lon="3.36922">
        <ele>13.5958252</ele>
        <time>2011-11-06T09:02:24Z</time>
      </trkpt>
      <trkpt lat="50.38563" lon="3.3684">
        <ele>13.5958252</ele>
        <time>2011-11-06T09:02:34Z</time>
      </trkpt>
      <trkpt lat="50.38466" lon="3.36738">
        <ele>14.076416</ele>
        <time>2011-11-06T09:02:46Z</time>
      </trkpt>
      <trkpt lat="50.3839" lon="3.3666">
        <ele>13.5958252</ele>
        <time>2011-11-06T09:02:55Z</time>
      </trkpt>
      <trkpt lat="50.38308" lon="3.36575">
        <ele>14.076416</ele>
        <time>2011-11-06T09:03:05Z</time>
      </trkpt>
      <trkpt lat="50.38231" lon="3.36496">
        <ele>14.076416</ele>
        <time>2011-11-06T09:03:14Z</time>
      </trkpt>
      <trkpt lat="50.38157" lon="3.3642">
        <ele>13.5958252</ele>
        <time>2011-11-06T09:03:23Z</time>
      </trkpt>
      <trkpt lat="50.38113" lon="3.36391">
        <ele>14.076416</ele>
        <time>2011-11-06T09:03:28Z</time>
      </trkpt>
      <trkpt lat="50.3805" lon="3.36351">
        <ele>14.076416</ele>
        <time>2011-11-06T09:03:35Z</time>
      </trkpt>
      <trkpt lat="50.37986" lon="3.36311">
        <ele>14.076416</ele>
        <time>2011-11-06T09:03:42Z</time>
      </trkpt>
      <trkpt lat="50.37911" lon="3.36267">
        <ele>14.5570068</ele>
        <time>2011-11-06T09:03:51Z</time>
      </trkpt>
      <trkpt lat="50.37868" lon="3.3625">
        <ele>14.5570068</ele>
        <time>2011-11-06T09:03:56Z</time>
      </trkpt>
      <trkpt lat="50.37794" lon="3.36223">
        <ele>15.5184326</ele>
        <time>2011-11-06T09:04:04Z</time>
      </trkpt>
      <trkpt lat="50.37785" lon="3.3622">
        <ele>15.0377197</ele>
        <time>2011-11-06T09:04:05Z</time>
      </trkpt>
      <trkpt lat="50.37732" lon="3.36175">
        <ele>14.5570068</ele>
        <time>2011-11-06T09:04:11Z</time>
      </trkpt>
      <trkpt lat="50.37667" lon="3.36113">
        <ele>14.076416</ele>
        <time>2011-11-06T09:04:19Z</time>
      </trkpt>
      <trkpt lat="50.37601" lon="3.36052">
        <ele>14.5570068</ele>
        <time>2011-11-06T09:04:27Z</time>
      </trkpt>
      <trkpt lat="50.37551" lon="3.36008">
        <ele>15.5184326</ele>
        <time>2011-11-06T09:04:33Z</time>
      </trkpt>
      <trkpt lat="50.37503" lon="3.35994">
        <ele>15.9990234</ele>
        <time>2011-11-06T09:04:38Z</time>
      </trkpt>
      <trkpt lat="50.37483" lon="3.35995">
        <ele>16.4797363</ele>
        <time>2011-11-06T09:04:40Z</time>
      </trkpt>
      <trkpt lat="50.37419" lon="3.35998">
        <ele>17.4411621</ele>
        <time>2011-11-06T09:04:46Z</time>
      </trkpt>
      <trkpt lat="50.3738" lon="3.35981">
        <ele>17.9217529</ele>
        <time>2011-11-06T09:04:50Z</time>
      </trkpt>
      <trkpt lat="50.37318" lon="3.35951">
        <ele>19.3637695</ele>
        <time>2011-11-06T09:04:57Z</time>
      </trkpt>
      <trkpt lat="50.37309" lon="3.35941">
        <ele>18.4023438</ele>
        <time>2011-11-06T09:05:01Z</time>
      </trkpt>
      <trkpt lat="50.37313" lon="3.3593">
        <ele>16.9604492</ele>
        <time>2011-11-06T09:05:05Z</time>
      </trkpt>
      <trkpt lat="50.37318" lon="3.35919">
        <ele>16.4797363</ele>
        <time>2011-11-06T09:05:07Z</time>
      </trkpt>
      <trkpt lat="50.37336" lon="3.35872">
        <ele>16.4797363</ele>
        <time>2011-11-06T09:05:13Z</time>
      </trkpt>
      <trkpt lat="50.37345" lon="3.35841">
        <ele>15.9990234</ele>
        <time>2011-11-06T09:05:16Z</time>
      </trkpt>
      <trkpt lat="50.37369" lon="3.35799">
        <ele>14.5570068</ele>
        <time>2011-11-06T09:05:21Z</time>
      </trkpt>
      <trkpt lat="50.374" lon="3.3575">
        <ele>13.5958252</ele>
        <time>2011-11-06T09:05:27Z</time>
      </trkpt>
      <trkpt lat="50.37412" lon="3.35707">
        <ele>13.1151123</ele>
        <time>2011-11-06T09:05:31Z</time>
      </trkpt>
      <trkpt lat="50.37412" lon="3.35684">
        <ele>13.1151123</ele>
        <time>2011-11-06T09:05:33Z</time>
      </trkpt>
      <trkpt lat="50.37407" lon="3.35618">
        <ele>13.1151123</ele>
        <time>2011-11-06T09:05:39Z</time>
      </trkpt>
      <trkpt lat="50.3739" lon="3.35587">
        <ele>13.5958252</ele>
        <time>2011-11-06T09:05:43Z</time>
      </trkpt>
      <trkpt lat="50.37344" lon="3.35545">
        <ele>13.5958252</ele>
        <time>2011-11-06T09:05:50Z</time>
      </trkpt>
      <trkpt lat="50.37302" lon="3.3551">
        <ele>15.5184326</ele>
        <time>2011-11-06T09:05:56Z</time>
      </trkpt>
      <trkpt lat="50.37296" lon="3.35503">
        <ele>15.5184326</ele>
        <time>2011-11-06T09:05:57Z</time>
      </trkpt>
      <trkpt lat="50.37252" lon="3.35433">
        <ele>16.4797363</ele>
        <time>2011-11-06T09:06:05Z</time>
      </trkpt>
      <trkpt lat="50.37205" lon="3.35357">
        <ele>16.4797363</ele>
        <time>2011-11-06T09:06:14Z</time>
      </trkpt>
      <trkpt lat="50.37195" lon="3.3534">
        <ele>16.4797363</ele>
        <time>2011-11-06T09:06:16Z</time>
      </trkpt>
      <trkpt lat="50.37162" lon="3.35315">
        <ele>16.4797363</ele>
        <time>2011-11-06T09:06:21Z</time>
      </trkpt>
      <trkpt lat="50.37149" lon="3.35322">
        <ele>15.9990234</ele>
        <time>2011-11-06T09:06:23Z</time>
      </trkpt>
      <trkpt lat="50.37121" lon="3.35333">
        <ele>15.5184326</ele>
        <time>2011-11-06T09:06:27Z</time>
      </trkpt>
      <trkpt lat="50.37111" lon="3.35319">
        <ele>15.5184326</ele>
        <time>2011-11-06T09:06:29Z</time>
      </trkpt>
      <trkpt lat="50.37101" lon="3.35282">
        <ele>16.4797363</ele>
        <time>2011-11-06T09:06:33Z</time>
      </trkpt>
      <trkpt lat="50.37087" lon="3.35215">
        <ele>16.4797363</ele>
        <time>2011-11-06T09:06:40Z</time>
      </trkpt>
      <trkpt lat="50.37067" lon="3.35174">
        <ele>16.9604492</ele>
        <time>2011-11-06T09:06:45Z</time>
      </trkpt>
      <trkpt lat="50.37036" lon="3.35133">
        <ele>16.9604492</ele>
        <time>2011-11-06T09:06:51Z</time>
      </trkpt>
      <trkpt lat="50.37013" lon="3.3511">
        <ele>16.9604492</ele>
        <time>2011-11-06T09:06:55Z</time>
      </trkpt>
      <trkpt lat="50.36974" lon="3.35088">
        <ele>17.4411621</ele>
        <time>2011-11-06T09:07:01Z</time>
      </trkpt>
      <trkpt lat="50.36922" lon="3.35063">
        <ele>17.9217529</ele>
        <time>2011-11-06T09:07:09Z</time>
      </trkpt>
      <trkpt lat="50.36876" lon="3.35039">
        <ele>18.4023438</ele>
        <time>2011-11-06T09:07:16Z</time>
      </trkpt>
      <trkpt lat="50.36835" lon="3.35021">
        <ele>18.8830566</ele>
        <time>2011-11-06T09:07:22Z</time>
      </trkpt>
      <trkpt lat="50.36778" lon="3.34996">
        <ele>18.8830566</ele>
        <time>2011-11-06T09:07:30Z</time>
      </trkpt>
      <trkpt lat="50.36713" lon="3.34968">
        <ele>18.8830566</ele>
        <time>2011-11-06T09:07:39Z</time>
      </trkpt>
      <trkpt lat="50.36656" lon="3.34943">
        <ele>19.8443604</ele>
        <time>2011-11-06T09:07:47Z</time>
      </trkpt>
      <trkpt lat="50.36629" lon="3.34931">
        <ele>19.8443604</ele>
        <time>2011-11-06T09:07:51Z</time>
      </trkpt>
      <trkpt lat="50.36614" lon="3.34901">
        <ele>20.3249512</ele>
        <time>2011-11-06T09:07:55Z</time>
      </trkpt>
      <trkpt lat="50.36615" lon="3.34881">
        <ele>20.3249512</ele>
        <time>2011-11-06T09:07:57Z</time>
      </trkpt>
      <trkpt lat="50.36619" lon="3.34828">
        <ele>20.3249512</ele>
        <time>2011-11-06T09:08:02Z</time>
      </trkpt>
      <trkpt lat="50.36614" lon="3.34801">
        <ele>20.3249512</ele>
        <time>2011-11-06T09:08:05Z</time>
      </trkpt>
      <trkpt lat="50.36603" lon="3.34793">
        <ele>19.8443604</ele>
        <time>2011-11-06T09:08:07Z</time>
      </trkpt>
      <trkpt lat="50.36556" lon="3.34777">
        <ele>19.3637695</ele>
        <time>2011-11-06T09:08:14Z</time>
      </trkpt>
      <trkpt lat="50.36511" lon="3.34789">
        <ele>19.3637695</ele>
        <time>2011-11-06T09:08:20Z</time>
      </trkpt>
      <trkpt lat="50.36476" lon="3.34808">
        <ele>18.8830566</ele>
        <time>2011-11-06T09:08:25Z</time>
      </trkpt>
      <trkpt lat="50.36427" lon="3.3486">
        <ele>16.9604492</ele>
        <time>2011-11-06T09:08:33Z</time>
      </trkpt>
      <trkpt lat="50.36378" lon="3.34908">
        <ele>15.9990234</ele>
        <time>2011-11-06T09:08:41Z</time>
      </trkpt>
      <trkpt lat="50.36341" lon="3.34937">
        <ele>15.9990234</ele>
        <time>2011-11-06T09:08:47Z</time>
      </trkpt>
      <trkpt lat="50.36316" lon="3.34958">
        <ele>16.4797363</ele>
        <time>2011-11-06T09:08:52Z</time>
      </trkpt>
      <trkpt lat="50.363" lon="3.34977">
        <ele>15.5184326</ele>
        <time>2011-11-06T09:08:56Z</time>
      </trkpt>
      <trkpt lat="50.36288" lon="3.34984">
        <ele>15.0377197</ele>
        <time>2011-11-06T09:08:58Z</time>
      </trkpt>
      <trkpt lat="50.36235" lon="3.35003">
        <ele>13.5958252</ele>
        <time>2011-11-06T09:09:06Z</time>
      </trkpt>
      <trkpt lat="50.36179" lon="3.35018">
        <ele>14.076416</ele>
        <time>2011-11-06T09:09:14Z</time>
      </trkpt>
      <trkpt lat="50.36134" lon="3.35023">
        <ele>14.5570068</ele>
        <time>2011-11-06T09:09:20Z</time>
      </trkpt>
      <trkpt lat="50.36118" lon="3.35022">
        <ele>15.0377197</ele>
        <time>2011-11-06T09:09:22Z</time>
      </trkpt>
      <trkpt lat="50.36075" lon="3.34999">
        <ele>16.4797363</ele>
        <time>2011-11-06T09:09:28Z</time>
      </trkpt>
      <trkpt lat="50.36068" lon="3.34992">
        <ele>16.4797363</ele>
        <time>2011-11-06T09:09:29Z</time>
      </trkpt>
      <trkpt lat="50.36047" lon="3.34959">
        <ele>16.9604492</ele>
        <time>2011-11-06T09:09:33Z</time>
      </trkpt>
      <trkpt lat="50.36019" lon="3.34901">
        <ele>17.9217529</ele>
        <time>2011-11-06T09:09:39Z</time>
      </trkpt>
      <trkpt lat="50.35988" lon="3.34868">
        <ele>18.8830566</ele>
        <time>2011-11-06T09:09:44Z</time>
      </trkpt>
      <trkpt lat="50.35925" lon="3.3483">
        <ele>20.3249512</ele>
        <time>2011-11-06T09:09:53Z</time>
      </trkpt>
      <trkpt lat="50.35911" lon="3.34822">
        <ele>20.8056641</ele>
        <time>2011-11-06T09:09:55Z</time>
      </trkpt>
      <trkpt lat="50.35889" lon="3.34795">
        <ele>21.286377</ele>
        <time>2011-11-06T09:09:59Z</time>
      </trkpt>
      <trkpt lat="50.35876" lon="3.34756">
        <ele>21.7669678</ele>
        <time>2011-11-06T09:10:03Z</time>
      </trkpt>
      <trkpt lat="50.35873" lon="3.34679">
        <ele>22.7282715</ele>
        <time>2011-11-06T09:10:10Z</time>
      </trkpt>
      <trkpt lat="50.35877" lon="3.34605">
        <ele>23.6895752</ele>
        <time>2011-11-06T09:10:17Z</time>
      </trkpt>
      <trkpt lat="50.35886" lon="3.3452">
        <ele>24.1702881</ele>
        <time>2011-11-06T09:10:25Z</time>
      </trkpt>
      <trkpt lat="50.35893" lon="3.34469">
        <ele>25.1317139</ele>
        <time>2011-11-06T09:10:31Z</time>
      </trkpt>
      <trkpt lat="50.359" lon="3.344">
        <ele>25.1317139</ele>
        <time>2011-11-06T09:10:39Z</time>
      </trkpt>
      <trkpt lat="50.35913" lon="3.34313">
        <ele>25.1317139</ele>
        <time>2011-11-06T09:10:49Z</time>
      </trkpt>
      <trkpt lat="50.3592" lon="3.34259">
        <ele>25.1317139</ele>
        <time>2011-11-06T09:10:55Z</time>
      </trkpt>
      <trkpt lat="50.35928" lon="3.34185">
        <ele>25.1317139</ele>
        <time>2011-11-06T09:11:03Z</time>
      </trkpt>
      <trkpt lat="50.3593" lon="3.34158">
        <ele>25.1317139</ele>
        <time>2011-11-06T09:11:06Z</time>
      </trkpt>
      <trkpt lat="50.35934" lon="3.34085">
        <ele>25.6123047</ele>
        <time>2011-11-06T09:11:14Z</time>
      </trkpt>
      <trkpt lat="50.35939" lon="3.34002">
        <ele>25.6123047</ele>
        <time>2011-11-06T09:11:23Z</time>
      </trkpt>
      <trkpt lat="50.35942" lon="3.3392">
        <ele>25.6123047</ele>
        <time>2011-11-06T09:11:32Z</time>
      </trkpt>
      <trkpt lat="50.35943" lon="3.33828">
        <ele>25.6123047</ele>
        <time>2011-11-06T09:11:42Z</time>
      </trkpt>
      <trkpt lat="50.3594" lon="3.33755">
        <ele>26.0928955</ele>
        <time>2011-11-06T09:11:50Z</time>
      </trkpt>
      <trkpt lat="50.35931" lon="3.3368">
        <ele>26.0928955</ele>
        <time>2011-11-06T09:11:58Z</time>
      </trkpt>
      <trkpt lat="50.3592" lon="3.33608">
        <ele>27.0543213</ele>
        <time>2011-11-06T09:12:06Z</time>
      </trkpt>
      <trkpt lat="50.35911" lon="3.33544">
        <ele>27.5349121</ele>
        <time>2011-11-06T09:12:14Z</time>
      </trkpt>
      <trkpt lat="50.35899" lon="3.33527">
        <ele>27.0543213</ele>
        <time>2011-11-06T09:12:18Z</time>
      </trkpt>
      <trkpt lat="50.3589" lon="3.3353">
        <ele>27.5349121</ele>
        <time>2011-11-06T09:12:20Z</time>
      </trkpt>
      <trkpt lat="50.35836" lon="3.33544">
        <ele>28.0155029</ele>
        <time>2011-11-06T09:12:30Z</time>
      </trkpt>
      <trkpt lat="50.35799" lon="3.33553">
        <ele>28.4962158</ele>
        <time>2011-11-06T09:12:36Z</time>
      </trkpt>
      <trkpt lat="50.35756" lon="3.3355">
        <ele>29.4575195</ele>
        <time>2011-11-06T09:12:43Z</time>
      </trkpt>
      <trkpt lat="50.357" lon="3.33545">
        <ele>29.4575195</ele>
        <time>2011-11-06T09:12:52Z</time>
      </trkpt>
      <trkpt lat="50.35662" lon="3.33539">
        <ele>29.9381104</ele>
        <time>2011-11-06T09:12:58Z</time>
      </trkpt>
      <trkpt lat="50.3561" lon="3.33541">
        <ele>30.8995361</ele>
        <time>2011-11-06T09:13:06Z</time>
      </trkpt>
      <trkpt lat="50.3556" lon="3.3356">
        <ele>30.8995361</ele>
        <time>2011-11-06T09:13:14Z</time>
      </trkpt>
      <trkpt lat="50.35511" lon="3.3358">
        <ele>30.8995361</ele>
        <time>2011-11-06T09:13:22Z</time>
      </trkpt>
      <trkpt lat="50.355" lon="3.33585">
        <ele>30.8995361</ele>
        <time>2011-11-06T09:13:24Z</time>
      </trkpt>
      <trkpt lat="50.35491" lon="3.33574">
        <ele>29.9381104</ele>
        <time>2011-11-06T09:13:27Z</time>
      </trkpt>
      <trkpt lat="50.35495" lon="3.33564">
        <ele>29.4575195</ele>
        <time>2011-11-06T09:13:29Z</time>
      </trkpt>
      <trkpt lat="50.35517" lon="3.33539">
        <ele>29.4575195</ele>
        <time>2011-11-06T09:13:34Z</time>
      </trkpt>
      <trkpt lat="50.35545" lon="3.33489">
        <ele>28.4962158</ele>
        <time>2011-11-06T09:13:41Z</time>
      </trkpt>
      <trkpt lat="50.3557" lon="3.33427">
        <ele>28.0155029</ele>
        <time>2011-11-06T09:13:48Z</time>
      </trkpt>
      <trkpt lat="50.35592" lon="3.33367">
        <ele>28.0155029</ele>
        <time>2011-11-06T09:13:55Z</time>
      </trkpt>
      <trkpt lat="50.35616" lon="3.3328">
        <ele>28.0155029</ele>
        <time>2011-11-06T09:14:05Z</time>
      </trkpt>
      <trkpt lat="50.3563" lon="3.33205">
        <ele>26.5736084</ele>
        <time>2011-11-06T09:14:13Z</time>
      </trkpt>
      <trkpt lat="50.35631" lon="3.33195">
        <ele>26.5736084</ele>
        <time>2011-11-06T09:14:14Z</time>
      </trkpt>
      <trkpt lat="50.35644" lon="3.33123">
        <ele>27.0543213</ele>
        <time>2011-11-06T09:14:22Z</time>
      </trkpt>
      <trkpt lat="50.35653" lon="3.33048">
        <ele>26.5736084</ele>
        <time>2011-11-06T09:14:30Z</time>
      </trkpt>
      <trkpt lat="50.35659" lon="3.32961">
        <ele>26.0928955</ele>
        <time>2011-11-06T09:14:39Z</time>
      </trkpt>
      <trkpt lat="50.35661" lon="3.3288">
        <ele>25.6123047</ele>
        <time>2011-11-06T09:14:47Z</time>
      </trkpt>
      <trkpt lat="50.35663" lon="3.32765">
        <ele>25.1317139</ele>
        <time>2011-11-06T09:14:58Z</time>
      </trkpt>
      <trkpt lat="50.35664" lon="3.32652">
        <ele>24.1702881</ele>
        <time>2011-11-06T09:15:09Z</time>
      </trkpt>
      <trkpt lat="50.35665" lon="3.32587">
        <ele>23.2089844</ele>
        <time>2011-11-06T09:15:16Z</time>
      </trkpt>
      <trkpt lat="50.35665" lon="3.32527">
        <ele>23.2089844</ele>
        <time>2011-11-06T09:15:22Z</time>
      </trkpt>
      <trkpt lat="50.35666" lon="3.32437">
        <ele>22.7282715</ele>
        <time>2011-11-06T09:15:31Z</time>
      </trkpt>
      <trkpt lat="50.35665" lon="3.32334">
        <ele>22.7282715</ele>
        <time>2011-11-06T09:15:41Z</time>
      </trkpt>
      <trkpt lat="50.35666" lon="3.32244">
        <ele>23.2089844</ele>
        <time>2011-11-06T09:15:50Z</time>
      </trkpt>
      <trkpt lat="50.35669" lon="3.32156">
        <ele>23.2089844</ele>
        <time>2011-11-06T09:15:59Z</time>
      </trkpt>
      <trkpt lat="50.35679" lon="3.32068">
        <ele>22.7282715</ele>
        <time>2011-11-06T09:16:08Z</time>
      </trkpt>
      <trkpt lat="50.35691" lon="3.31989">
        <ele>22.2475586</ele>
        <time>2011-11-06T09:16:17Z</time>
      </trkpt>
      <trkpt lat="50.35697" lon="3.31947">
        <ele>21.7669678</ele>
        <time>2011-11-06T09:16:22Z</time>
      </trkpt>
      <trkpt lat="50.35694" lon="3.31915">
        <ele>21.7669678</ele>
        <time>2011-11-06T09:16:26Z</time>
      </trkpt>
      <trkpt lat="50.35689" lon="3.31862">
        <ele>21.7669678</ele>
        <time>2011-11-06T09:16:33Z</time>
      </trkpt>
      <trkpt lat="50.35681" lon="3.3185">
        <ele>21.7669678</ele>
        <time>2011-11-06T09:16:37Z</time>
      </trkpt>
      <trkpt lat="50.35677" lon="3.3185">
        <ele>22.2475586</ele>
        <time>2011-11-06T09:16:38Z</time>
      </trkpt>
      <trkpt lat="50.35637" lon="3.31854">
        <ele>22.7282715</ele>
        <time>2011-11-06T09:16:45Z</time>
      </trkpt>
      <trkpt lat="50.3558" lon="3.31855">
        <ele>23.2089844</ele>
        <time>2011-11-06T09:16:54Z</time>
      </trkpt>
      <trkpt lat="50.35522" lon="3.31849">
        <ele>25.1317139</ele>
        <time>2011-11-06T09:17:03Z</time>
      </trkpt>
      <trkpt lat="50.35455" lon="3.3184">
        <ele>26.5736084</ele>
        <time>2011-11-06T09:17:13Z</time>
      </trkpt>
      <trkpt lat="50.3538" lon="3.31835">
        <ele>27.0543213</ele>
        <time>2011-11-06T09:17:24Z</time>
      </trkpt>
      <trkpt lat="50.35318" lon="3.31833">
        <ele>27.0543213</ele>
        <time>2011-11-06T09:17:33Z</time>
      </trkpt>
      <trkpt lat="50.35284" lon="3.31832">
        <ele>27.5349121</ele>
        <time>2011-11-06T09:17:38Z</time>
      </trkpt>
      <trkpt lat="50.35256" lon="3.31832">
        <ele>28.4962158</ele>
        <time>2011-11-06T09:17:42Z</time>
      </trkpt>
      <trkpt lat="50.35249" lon="3.31834">
        <ele>28.0155029</ele>
        <time>2011-11-06T09:17:43Z</time>
      </trkpt>
      <trkpt lat="50.35223" lon="3.31843">
        <ele>28.0155029</ele>
        <time>2011-11-06T09:17:47Z</time>
      </trkpt>
      <trkpt lat="50.35183" lon="3.31856">
        <ele>28.0155029</ele>
        <time>2011-11-06T09:17:54Z</time>
      </trkpt>
      <trkpt lat="50.3514" lon="3.31871">
        <ele>28.0155029</ele>
        <time>2011-11-06T09:18:00Z</time>
      </trkpt>
      <trkpt lat="50.35088" lon="3.3189">
        <ele>28.9769287</ele>
        <time>2011-11-06T09:18:07Z</time>
      </trkpt>
      <trkpt lat="50.3504" lon="3.31907">
        <ele>30.4188232</ele>
        <time>2011-11-06T09:18:14Z</time>
      </trkpt>
      <trkpt lat="50.34996" lon="3.31925">
        <ele>30.8995361</ele>
        <time>2011-11-06T09:18:21Z</time>
      </trkpt>
      <trkpt lat="50.34953" lon="3.31951">
        <ele>30.4188232</ele>
        <time>2011-11-06T09:18:28Z</time>
      </trkpt>
      <trkpt lat="50.34903" lon="3.31977">
        <ele>29.9381104</ele>
        <time>2011-11-06T09:18:36Z</time>
      </trkpt>
      <trkpt lat="50.34848" lon="3.32005">
        <ele>29.9381104</ele>
        <time>2011-11-06T09:18:45Z</time>
      </trkpt>
      <trkpt lat="50.34795" lon="3.32033">
        <ele>29.4575195</ele>
        <time>2011-11-06T09:18:54Z</time>
      </trkpt>
      <trkpt lat="50.34746" lon="3.32062">
        <ele>30.4188232</ele>
        <time>2011-11-06T09:19:03Z</time>
      </trkpt>
      <trkpt lat="50.34696" lon="3.32097">
        <ele>29.9381104</ele>
        <time>2011-11-06T09:19:13Z</time>
      </trkpt>
      <trkpt lat="50.34641" lon="3.32135">
        <ele>30.4188232</ele>
        <time>2011-11-06T09:19:24Z</time>
      </trkpt>
      <trkpt lat="50.34578" lon="3.32175">
        <ele>31.380127</ele>
        <time>2011-11-06T09:19:36Z</time>
      </trkpt>
      <trkpt lat="50.34516" lon="3.32214">
        <ele>32.8222656</ele>
        <time>2011-11-06T09:19:47Z</time>
      </trkpt>
      <trkpt lat="50.34477" lon="3.32242">
        <ele>33.3028564</ele>
        <time>2011-11-06T09:19:54Z</time>
      </trkpt>
      <trkpt lat="50.34447" lon="3.32283">
        <ele>33.3028564</ele>
        <time>2011-11-06T09:20:00Z</time>
      </trkpt>
      <trkpt lat="50.34426" lon="3.32323">
        <ele>32.8222656</ele>
        <time>2011-11-06T09:20:05Z</time>
      </trkpt>
      <trkpt lat="50.34414" lon="3.32345">
        <ele>32.8222656</ele>
        <time>2011-11-06T09:20:08Z</time>
      </trkpt>
      <trkpt lat="50.34376" lon="3.32384">
        <ele>31.8607178</ele>
        <time>2011-11-06T09:20:15Z</time>
      </trkpt>
      <trkpt lat="50.34337" lon="3.32421">
        <ele>31.380127</ele>
        <time>2011-11-06T09:20:22Z</time>
      </trkpt>
      <trkpt lat="50.34319" lon="3.32434">
        <ele>31.8607178</ele>
        <time>2011-11-06T09:20:25Z</time>
      </trkpt>
      <trkpt lat="50.34277" lon="3.32467">
        <ele>31.8607178</ele>
        <time>2011-11-06T09:20:32Z</time>
      </trkpt>
      <trkpt lat="50.34219" lon="3.32509">
        <ele>33.3028564</ele>
        <time>2011-11-06T09:20:41Z</time>
      </trkpt>
      <trkpt lat="50.34154" lon="3.32559">
        <ele>35.2254639</ele>
        <time>2011-11-06T09:20:51Z</time>
      </trkpt>
      <trkpt lat="50.34142" lon="3.3257">
        <ele>35.2254639</ele>
        <time>2011-11-06T09:20:53Z</time>
      </trkpt>
      <trkpt lat="50.34123" lon="3.32574">
        <ele>34.744873</ele>
        <time>2011-11-06T09:20:57Z</time>
      </trkpt>
      <trkpt lat="50.34121" lon="3.3256">
        <ele>33.7834473</ele>
        <time>2011-11-06T09:21:00Z</time>
      </trkpt>
      <trkpt lat="50.34114" lon="3.32533">
        <ele>33.7834473</ele>
        <time>2011-11-06T09:21:04Z</time>
      </trkpt>
      <trkpt lat="50.34104" lon="3.32494">
        <ele>34.744873</ele>
        <time>2011-11-06T09:21:09Z</time>
      </trkpt>
      <trkpt lat="50.34088" lon="3.32486">
        <ele>35.2254639</ele>
        <time>2011-11-06T09:21:13Z</time>
      </trkpt>
      <trkpt lat="50.34066" lon="3.32481">
        <ele>36.6674805</ele>
        <time>2011-11-06T09:21:18Z</time>
      </trkpt>
      <trkpt lat="50.34062" lon="3.32477">
        <ele>36.6674805</ele>
        <time>2011-11-06T09:21:19Z</time>
      </trkpt>
      <trkpt lat="50.34055" lon="3.32469">
        <ele>36.6674805</ele>
        <time>2011-11-06T09:21:21Z</time>
      </trkpt>
      <trkpt lat="50.34046" lon="3.32467">
        <ele>38.109375</ele>
        <time>2011-11-06T09:21:25Z</time>
      </trkpt>
      <trkpt lat="50.34035" lon="3.32473">
        <ele>39.0706787</ele>
        <time>2011-11-06T09:21:28Z</time>
      </trkpt>
      <trkpt lat="50.34019" lon="3.32477">
        <ele>37.6286621</ele>
        <time>2011-11-06T09:21:31Z</time>
      </trkpt>
      <trkpt lat="50.33995" lon="3.32488">
        <ele>38.109375</ele>
        <time>2011-11-06T09:21:35Z</time>
      </trkpt>
      <trkpt lat="50.33975" lon="3.32515">
        <ele>38.5900879</ele>
        <time>2011-11-06T09:21:39Z</time>
      </trkpt>
      <trkpt lat="50.33958" lon="3.3253">
        <ele>38.109375</ele>
        <time>2011-11-06T09:21:42Z</time>
      </trkpt>
      <trkpt lat="50.33943" lon="3.32547">
        <ele>35.7060547</ele>
        <time>2011-11-06T09:21:45Z</time>
      </trkpt>
      <trkpt lat="50.3389" lon="3.32587">
        <ele>35.2254639</ele>
        <time>2011-11-06T09:21:54Z</time>
      </trkpt>
      <trkpt lat="50.33884" lon="3.32589">
        <ele>34.744873</ele>
        <time>2011-11-06T09:21:55Z</time>
      </trkpt>
      <trkpt lat="50.33861" lon="3.32587">
        <ele>35.2254639</ele>
        <time>2011-11-06T09:21:59Z</time>
      </trkpt>
      <trkpt lat="50.33851" lon="3.32564">
        <ele>36.1867676</ele>
        <time>2011-11-06T09:22:02Z</time>
      </trkpt>
      <trkpt lat="50.3385" lon="3.32554">
        <ele>36.1867676</ele>
        <time>2011-11-06T09:22:03Z</time>
      </trkpt>
      <trkpt lat="50.33851" lon="3.32483">
        <ele>36.6674805</ele>
        <time>2011-11-06T09:22:11Z</time>
      </trkpt>
      <trkpt lat="50.33853" lon="3.32415">
        <ele>37.1480713</ele>
        <time>2011-11-06T09:22:19Z</time>
      </trkpt>
      <trkpt lat="50.33853" lon="3.3236">
        <ele>37.1480713</ele>
        <time>2011-11-06T09:22:26Z</time>
      </trkpt>
      <trkpt lat="50.33852" lon="3.32345">
        <ele>37.1480713</ele>
        <time>2011-11-06T09:22:28Z</time>
      </trkpt>
      <trkpt lat="50.33849" lon="3.3229">
        <ele>37.6286621</ele>
        <time>2011-11-06T09:22:35Z</time>
      </trkpt>
      <trkpt lat="50.33846" lon="3.32254">
        <ele>37.6286621</ele>
        <time>2011-11-06T09:22:40Z</time>
      </trkpt>
      <trkpt lat="50.33848" lon="3.32218">
        <ele>38.109375</ele>
        <time>2011-11-06T09:22:45Z</time>
      </trkpt>
      <trkpt lat="50.33842" lon="3.32205">
        <ele>38.109375</ele>
        <time>2011-11-06T09:22:48Z</time>
      </trkpt>
      <trkpt lat="50.33831" lon="3.32214">
        <ele>37.6286621</ele>
        <time>2011-11-06T09:22:51Z</time>
      </trkpt>
      <trkpt lat="50.33806" lon="3.32224">
        <ele>37.1480713</ele>
        <time>2011-11-06T09:22:57Z</time>
      </trkpt>
      <trkpt lat="50.33796" lon="3.32207">
        <ele>35.2254639</ele>
        <time>2011-11-06T09:23:01Z</time>
      </trkpt>
      <trkpt lat="50.33795" lon="3.3219">
        <ele>34.744873</ele>
        <time>2011-11-06T09:23:03Z</time>
      </trkpt>
      <trkpt lat="50.33794" lon="3.3213">
        <ele>33.3028564</ele>
        <time>2011-11-06T09:23:10Z</time>
      </trkpt>
      <trkpt lat="50.33794" lon="3.32078">
        <ele>33.7834473</ele>
        <time>2011-11-06T09:23:16Z</time>
      </trkpt>
      <trkpt lat="50.33796" lon="3.32013">
        <ele>34.744873</ele>
        <time>2011-11-06T09:23:23Z</time>
      </trkpt>
      <trkpt lat="50.33792" lon="3.31958">
        <ele>34.2641602</ele>
        <time>2011-11-06T09:23:29Z</time>
      </trkpt>
      <trkpt lat="50.33791" lon="3.3195">
        <ele>34.2641602</ele>
        <time>2011-11-06T09:23:30Z</time>
      </trkpt>
      <trkpt lat="50.33785" lon="3.31907">
        <ele>33.7834473</ele>
        <time>2011-11-06T09:23:36Z</time>
      </trkpt>
      <trkpt lat="50.33783" lon="3.31897">
        <ele>34.2641602</ele>
        <time>2011-11-06T09:23:37Z</time>
      </trkpt>
      <trkpt lat="50.33782" lon="3.31855">
        <ele>34.744873</ele>
        <time>2011-11-06T09:23:41Z</time>
      </trkpt>
      <trkpt lat="50.33787" lon="3.31833">
        <ele>36.1867676</ele>
        <time>2011-11-06T09:23:45Z</time>
      </trkpt>
      <trkpt lat="50.33786" lon="3.31809">
        <ele>37.1480713</ele>
        <time>2011-11-06T09:23:49Z</time>
      </trkpt>
      <trkpt lat="50.33782" lon="3.31781">
        <ele>39.0706787</ele>
        <time>2011-11-06T09:23:54Z</time>
      </trkpt>
      <trkpt lat="50.33778" lon="3.31779">
        <ele>39.5512695</ele>
        <time>2011-11-06T09:23:56Z</time>
      </trkpt>
      <trkpt lat="50.33775" lon="3.31796">
        <ele>39.5512695</ele>
        <time>2011-11-06T09:23:59Z</time>
      </trkpt>
      <trkpt lat="50.33769" lon="3.31856">
        <ele>37.6286621</ele>
        <time>2011-11-06T09:24:07Z</time>
      </trkpt>
      <trkpt lat="50.33762" lon="3.31885">
        <ele>36.1867676</ele>
        <time>2011-11-06T09:24:11Z</time>
      </trkpt>
      <trkpt lat="50.33747" lon="3.31909">
        <ele>35.7060547</ele>
        <time>2011-11-06T09:24:16Z</time>
      </trkpt>
      <trkpt lat="50.33724" lon="3.31921">
        <ele>36.1867676</ele>
        <time>2011-11-06T09:24:22Z</time>
      </trkpt>
      <trkpt lat="50.3371" lon="3.31923">
        <ele>36.1867676</ele>
        <time>2011-11-06T09:24:25Z</time>
      </trkpt>
      <trkpt lat="50.3369" lon="3.31919">
        <ele>38.109375</ele>
        <time>2011-11-06T09:24:29Z</time>
      </trkpt>
      <trkpt lat="50.33656" lon="3.31897">
        <ele>38.5900879</ele>
        <time>2011-11-06T09:24:36Z</time>
      </trkpt>
      <trkpt lat="50.33638" lon="3.31886">
        <ele>37.6286621</ele>
        <time>2011-11-06T09:24:39Z</time>
      </trkpt>
      <trkpt lat="50.33619" lon="3.31878">
        <ele>37.6286621</ele>
        <time>2011-11-06T09:24:42Z</time>
      </trkpt>
      <trkpt lat="50.33604" lon="3.31854">
        <ele>36.1867676</ele>
        <time>2011-11-06T09:24:46Z</time>
      </trkpt>
      <trkpt lat="50.33602" lon="3.31833">
        <ele>34.744873</ele>
        <time>2011-11-06T09:24:48Z</time>
      </trkpt>
      <trkpt lat="50.33594" lon="3.31758">
        <ele>35.7060547</ele>
        <time>2011-11-06T09:24:55Z</time>
      </trkpt>
      <trkpt lat="50.33588" lon="3.3173">
        <ele>36.1867676</ele>
        <time>2011-11-06T09:24:58Z</time>
      </trkpt>
      <trkpt lat="50.33594" lon="3.31702">
        <ele>36.6674805</ele>
        <time>2011-11-06T09:25:02Z</time>
      </trkpt>
      <trkpt lat="50.33606" lon="3.31705">
        <ele>36.6674805</ele>
        <time>2011-11-06T09:25:05Z</time>
      </trkpt>
      <trkpt lat="50.33614" lon="3.31723">
        <ele>36.1867676</ele>
        <time>2011-11-06T09:25:08Z</time>
      </trkpt>
      <trkpt lat="50.33619" lon="3.31744">
        <ele>36.1867676</ele>
        <time>2011-11-06T09:25:11Z</time>
      </trkpt>
      <trkpt lat="50.33621" lon="3.31783">
        <ele>36.1867676</ele>
        <time>2011-11-06T09:25:16Z</time>
      </trkpt>
      <trkpt lat="50.33626" lon="3.31815">
        <ele>36.1867676</ele>
        <time>2011-11-06T09:25:20Z</time>
      </trkpt>
      <trkpt lat="50.33638" lon="3.3184">
        <ele>36.6674805</ele>
        <time>2011-11-06T09:25:24Z</time>
      </trkpt>
      <trkpt lat="50.33658" lon="3.31846">
        <ele>37.6286621</ele>
        <time>2011-11-06T09:25:28Z</time>
      </trkpt>
      <trkpt lat="50.33672" lon="3.31847">
        <ele>37.6286621</ele>
        <time>2011-11-06T09:25:31Z</time>
      </trkpt>
      <trkpt lat="50.33681" lon="3.31844">
        <ele>37.6286621</ele>
        <time>2011-11-06T09:25:33Z</time>
      </trkpt>
      <trkpt lat="50.33704" lon="3.31828">
        <ele>37.1480713</ele>
        <time>2011-11-06T09:25:38Z</time>
      </trkpt>
      <trkpt lat="50.33723" lon="3.31799">
        <ele>38.109375</ele>
        <time>2011-11-06T09:25:43Z</time>
      </trkpt>
      <trkpt lat="50.3373" lon="3.31758">
        <ele>38.5900879</ele>
        <time>2011-11-06T09:25:48Z</time>
      </trkpt>
      <trkpt lat="50.3373" lon="3.3174">
        <ele>38.5900879</ele>
        <time>2011-11-06T09:25:50Z</time>
      </trkpt>
      <trkpt lat="50.33722" lon="3.31689">
        <ele>39.0706787</ele>
        <time>2011-11-06T09:25:56Z</time>
      </trkpt>
      <trkpt lat="50.33706" lon="3.31643">
        <ele>39.5512695</ele>
        <time>2011-11-06T09:26:02Z</time>
      </trkpt>
      <trkpt lat="50.33698" lon="3.31618">
        <ele>40.0321045</ele>
        <time>2011-11-06T09:26:05Z</time>
      </trkpt>
      <trkpt lat="50.33695" lon="3.31576">
        <ele>40.9934082</ele>
        <time>2011-11-06T09:26:10Z</time>
      </trkpt>
      <trkpt lat="50.33701" lon="3.31555">
        <ele>41.473999</ele>
        <time>2011-11-06T09:26:13Z</time>
      </trkpt>
      <trkpt lat="50.33712" lon="3.31528">
        <ele>41.473999</ele>
        <time>2011-11-06T09:26:17Z</time>
      </trkpt>
      <trkpt lat="50.33708" lon="3.31503">
        <ele>41.473999</ele>
        <time>2011-11-06T09:26:21Z</time>
      </trkpt>
      <trkpt lat="50.33695" lon="3.31497">
        <ele>42.4354248</ele>
        <time>2011-11-06T09:26:25Z</time>
      </trkpt>
      <trkpt lat="50.33692" lon="3.315">
        <ele>42.4354248</ele>
        <time>2011-11-06T09:26:26Z</time>
      </trkpt>
      <trkpt lat="50.33673" lon="3.3151">
        <ele>41.9547119</ele>
        <time>2011-11-06T09:26:31Z</time>
      </trkpt>
      <trkpt lat="50.33653" lon="3.31492">
        <ele>40.9934082</ele>
        <time>2011-11-06T09:26:36Z</time>
      </trkpt>
      <trkpt lat="50.33651" lon="3.31469">
        <ele>37.6286621</ele>
        <time>2011-11-06T09:26:40Z</time>
      </trkpt>
      <trkpt lat="50.33658" lon="3.31434">
        <ele>35.2254639</ele>
        <time>2011-11-06T09:26:44Z</time>
      </trkpt>
      <trkpt lat="50.33667" lon="3.31363">
        <ele>32.3415527</ele>
        <time>2011-11-06T09:26:51Z</time>
      </trkpt>
      <trkpt lat="50.33668" lon="3.31342">
        <ele>31.8607178</ele>
        <time>2011-11-06T09:26:53Z</time>
      </trkpt>
      <trkpt lat="50.33663" lon="3.31295">
        <ele>34.744873</ele>
        <time>2011-11-06T09:26:59Z</time>
      </trkpt>
      <trkpt lat="50.33659" lon="3.31257">
        <ele>38.109375</ele>
        <time>2011-11-06T09:27:05Z</time>
      </trkpt>
      <trkpt lat="50.33656" lon="3.31232">
        <ele>40.0321045</ele>
        <time>2011-11-06T09:27:09Z</time>
      </trkpt>
      <trkpt lat="50.33655" lon="3.31213">
        <ele>40.5128174</ele>
        <time>2011-11-06T09:27:12Z</time>
      </trkpt>
      <trkpt lat="50.3365" lon="3.31189">
        <ele>40.5128174</ele>
        <time>2011-11-06T09:27:16Z</time>
      </trkpt>
      <trkpt lat="50.33633" lon="3.3117">
        <ele>40.0321045</ele>
        <time>2011-11-06T09:27:21Z</time>
      </trkpt>
      <trkpt lat="50.33621" lon="3.31172">
        <ele>38.5900879</ele>
        <time>2011-11-06T09:27:25Z</time>
      </trkpt>
      <trkpt lat="50.3362" lon="3.31191">
        <ele>36.1867676</ele>
        <time>2011-11-06T09:27:28Z</time>
      </trkpt>
      <trkpt lat="50.3362" lon="3.31199">
        <ele>35.2254639</ele>
        <time>2011-11-06T09:27:29Z</time>
      </trkpt>
      <trkpt lat="50.33612" lon="3.31243">
        <ele>30.4188232</ele>
        <time>2011-11-06T09:27:34Z</time>
      </trkpt>
      <trkpt lat="50.33615" lon="3.31288">
        <ele>27.0543213</ele>
        <time>2011-11-06T09:27:38Z</time>
      </trkpt>
      <trkpt lat="50.33614" lon="3.31328">
        <ele>25.6123047</ele>
        <time>2011-11-06T09:27:42Z</time>
      </trkpt>
      <trkpt lat="50.3361" lon="3.31353">
        <ele>27.0543213</ele>
        <time>2011-11-06T09:27:45Z</time>
      </trkpt>
      <trkpt lat="50.33599" lon="3.31354">
        <ele>24.1702881</ele>
        <time>2011-11-06T09:27:48Z</time>
      </trkpt>
      <trkpt lat="50.33582" lon="3.31342">
        <ele>23.6895752</ele>
        <time>2011-11-06T09:27:52Z</time>
      </trkpt>
      <trkpt lat="50.33578" lon="3.31351">
        <ele>23.6895752</ele>
        <time>2011-11-06T09:27:55Z</time>
      </trkpt>
      <trkpt lat="50.33579" lon="3.31357">
        <ele>24.1702881</ele>
        <time>2011-11-06T09:27:56Z</time>
      </trkpt>
      <trkpt lat="50.33579" lon="3.314">
        <ele>23.2089844</ele>
        <time>2011-11-06T09:28:02Z</time>
      </trkpt>
      <trkpt lat="50.33566" lon="3.3144">
        <ele>24.1702881</ele>
        <time>2011-11-06T09:28:08Z</time>
      </trkpt>
      <trkpt lat="50.33551" lon="3.31455">
        <ele>24.1702881</ele>
        <time>2011-11-06T09:28:12Z</time>
      </trkpt>
      <trkpt lat="50.33531" lon="3.31451">
        <ele>23.2089844</ele>
        <time>2011-11-06T09:28:17Z</time>
      </trkpt>
      <trkpt lat="50.33526" lon="3.31445">
        <ele>23.2089844</ele>
        <time>2011-11-06T09:28:19Z</time>
      </trkpt>
      <trkpt lat="50.33513" lon="3.31426">
        <ele>23.2089844</ele>
        <time>2011-11-06T09:28:24Z</time>
      </trkpt>
      <trkpt lat="50.33507" lon="3.31413">
        <ele>25.1317139</ele>
        <time>2011-11-06T09:28:29Z</time>
      </trkpt>
      <trkpt lat="50.33512" lon="3.31394">
        <ele>25.6123047</ele>
        <time>2011-11-06T09:28:34Z</time>
      </trkpt>
      <trkpt lat="50.33516" lon="3.31387">
        <ele>26.0928955</ele>
        <time>2011-11-06T09:28:35Z</time>
      </trkpt>
      <trkpt lat="50.33527" lon="3.3136">
        <ele>26.0928955</ele>
        <time>2011-11-06T09:28:38Z</time>
      </trkpt>
      <trkpt lat="50.33529" lon="3.31323">
        <ele>25.6123047</ele>
        <time>2011-11-06T09:28:42Z</time>
      </trkpt>
      <trkpt lat="50.33529" lon="3.31317">
        <ele>25.6123047</ele>
        <time>2011-11-06T09:28:43Z</time>
      </trkpt>
      <trkpt lat="50.33529" lon="3.31305">
        <ele>25.1317139</ele>
        <time>2011-11-06T09:28:45Z</time>
      </trkpt>
      <trkpt lat="50.33535" lon="3.31281">
        <ele>23.6895752</ele>
        <time>2011-11-06T09:28:49Z</time>
      </trkpt>
      <trkpt lat="50.33542" lon="3.31257">
        <ele>22.7282715</ele>
        <time>2011-11-06T09:28:53Z</time>
      </trkpt>
      <trkpt lat="50.33546" lon="3.31245">
        <ele>22.2475586</ele>
        <time>2011-11-06T09:28:55Z</time>
      </trkpt>
      <trkpt lat="50.33557" lon="3.31221">
        <ele>25.1317139</ele>
        <time>2011-11-06T09:29:01Z</time>
      </trkpt>
      <trkpt lat="50.3357" lon="3.31209">
        <ele>28.9769287</ele>
        <time>2011-11-06T09:29:09Z</time>
      </trkpt>
      <trkpt lat="50.33579" lon="3.31199">
        <ele>30.8995361</ele>
        <time>2011-11-06T09:29:16Z</time>
      </trkpt>
      <trkpt lat="50.33587" lon="3.31188">
        <ele>32.3415527</ele>
        <time>2011-11-06T09:29:22Z</time>
      </trkpt>
      <trkpt lat="50.33595" lon="3.31183">
        <ele>34.744873</ele>
        <time>2011-11-06T09:29:28Z</time>
      </trkpt>
      <trkpt lat="50.33605" lon="3.31182">
        <ele>36.1867676</ele>
        <time>2011-11-06T09:29:35Z</time>
      </trkpt>
      <trkpt lat="50.33613" lon="3.31175">
        <ele>37.1480713</ele>
        <time>2011-11-06T09:29:41Z</time>
      </trkpt>
      <trkpt lat="50.33614" lon="3.31168">
        <ele>37.6286621</ele>
        <time>2011-11-06T09:29:44Z</time>
      </trkpt>
      <trkpt lat="50.33609" lon="3.31153">
        <ele>40.0321045</ele>
        <time>2011-11-06T09:29:50Z</time>
      </trkpt>
      <trkpt lat="50.33598" lon="3.31136">
        <ele>40.5128174</ele>
        <time>2011-11-06T09:29:56Z</time>
      </trkpt>
      <trkpt lat="50.33584" lon="3.31124">
        <ele>40.0321045</ele>
        <time>2011-11-06T09:30:01Z</time>
      </trkpt>
      <trkpt lat="50.33559" lon="3.31121">
        <ele>40.0321045</ele>
        <time>2011-11-06T09:30:07Z</time>
      </trkpt>
      <trkpt lat="50.33545" lon="3.31124">
        <ele>39.0706787</ele>
        <time>2011-11-06T09:30:10Z</time>
      </trkpt>
      <trkpt lat="50.3351" lon="3.31127">
        <ele>39.5512695</ele>
        <time>2011-11-06T09:30:17Z</time>
      </trkpt>
      <trkpt lat="50.33505" lon="3.31127">
        <ele>39.5512695</ele>
        <time>2011-11-06T09:30:18Z</time>
      </trkpt>
      <trkpt lat="50.3349" lon="3.31133">
        <ele>39.5512695</ele>
        <time>2011-11-06T09:30:21Z</time>
      </trkpt>
      <trkpt lat="50.33454" lon="3.31136">
        <ele>40.0321045</ele>
        <time>2011-11-06T09:30:28Z</time>
      </trkpt>
      <trkpt lat="50.33428" lon="3.31141">
        <ele>40.9934082</ele>
        <time>2011-11-06T09:30:33Z</time>
      </trkpt>
      <trkpt lat="50.33385" lon="3.31148">
        <ele>41.9547119</ele>
        <time>2011-11-06T09:30:41Z</time>
      </trkpt>
      <trkpt lat="50.33333" lon="3.31162">
        <ele>41.9547119</ele>
        <time>2011-11-06T09:30:51Z</time>
      </trkpt>
      <trkpt lat="50.33288" lon="3.31181">
        <ele>40.9934082</ele>
        <time>2011-11-06T09:31:00Z</time>
      </trkpt>
      <trkpt lat="50.33265" lon="3.31192">
        <ele>39.5512695</ele>
        <time>2011-11-06T09:31:05Z</time>
      </trkpt>
      <trkpt lat="50.33257" lon="3.31196">
        <ele>39.5512695</ele>
        <time>2011-11-06T09:31:07Z</time>
      </trkpt>
      <trkpt lat="50.33247" lon="3.31198">
        <ele>39.5512695</ele>
        <time>2011-11-06T09:31:10Z</time>
      </trkpt>
      <trkpt lat="50.33238" lon="3.31201">
        <ele>39.5512695</ele>
        <time>2011-11-06T09:31:14Z</time>
      </trkpt>
      <trkpt lat="50.33233" lon="3.31204">
        <ele>40.0321045</ele>
        <time>2011-11-06T09:31:19Z</time>
      </trkpt>
      <trkpt lat="50.33232" lon="3.31204">
        <ele>40.0321045</ele>
        <time>2011-11-06T09:31:22Z</time>
      </trkpt>
      <trkpt lat="50.33227" lon="3.31208">
        <ele>37.6286621</ele>
        <time>2011-11-06T09:40:17Z</time>
      </trkpt>
      <trkpt lat="50.33223" lon="3.3121">
        <ele>38.109375</ele>
        <time>2011-11-06T09:40:22Z</time>
      </trkpt>
      <trkpt lat="50.33215" lon="3.31213">
        <ele>39.0706787</ele>
        <time>2011-11-06T09:40:32Z</time>
      </trkpt>
      <trkpt lat="50.33201" lon="3.31218">
        <ele>39.5512695</ele>
        <time>2011-11-06T09:40:36Z</time>
      </trkpt>
      <trkpt lat="50.33192" lon="3.31219">
        <ele>39.5512695</ele>
        <time>2011-11-06T09:40:39Z</time>
      </trkpt>
      <trkpt lat="50.33183" lon="3.31204">
        <ele>39.5512695</ele>
        <time>2011-11-06T09:40:43Z</time>
      </trkpt>
      <trkpt lat="50.33172" lon="3.31183">
        <ele>40.5128174</ele>
        <time>2011-11-06T09:40:48Z</time>
      </trkpt>
      <trkpt lat="50.33155" lon="3.31181">
        <ele>41.473999</ele>
        <time>2011-11-06T09:40:52Z</time>
      </trkpt>
      <trkpt lat="50.3313" lon="3.31181">
        <ele>42.4354248</ele>
        <time>2011-11-06T09:40:57Z</time>
      </trkpt>
      <trkpt lat="50.33083" lon="3.31179">
        <ele>43.3966064</ele>
        <time>2011-11-06T09:41:05Z</time>
      </trkpt>
      <trkpt lat="50.33064" lon="3.31178">
        <ele>43.3966064</ele>
        <time>2011-11-06T09:41:08Z</time>
      </trkpt>
      <trkpt lat="50.3302" lon="3.31178">
        <ele>44.3580322</ele>
        <time>2011-11-06T09:41:15Z</time>
      </trkpt>
      <trkpt lat="50.32962" lon="3.31177">
        <ele>44.838623</ele>
        <time>2011-11-06T09:41:24Z</time>
      </trkpt>
      <trkpt lat="50.32936" lon="3.31173">
        <ele>45.3192139</ele>
        <time>2011-11-06T09:41:28Z</time>
      </trkpt>
      <trkpt lat="50.32894" lon="3.31152">
        <ele>45.7999268</ele>
        <time>2011-11-06T09:41:35Z</time>
      </trkpt>
      <trkpt lat="50.32851" lon="3.31119">
        <ele>46.7612305</ele>
        <time>2011-11-06T09:41:43Z</time>
      </trkpt>
      <trkpt lat="50.32809" lon="3.31083">
        <ele>47.7225342</ele>
        <time>2011-11-06T09:41:51Z</time>
      </trkpt>
      <trkpt lat="50.32783" lon="3.3106">
        <ele>48.68396</ele>
        <time>2011-11-06T09:41:57Z</time>
      </trkpt>
      <trkpt lat="50.32755" lon="3.31034">
        <ele>48.68396</ele>
        <time>2011-11-06T09:42:04Z</time>
      </trkpt>
      <trkpt lat="50.3272" lon="3.31011">
        <ele>48.68396</ele>
        <time>2011-11-06T09:42:11Z</time>
      </trkpt>
      <trkpt lat="50.32692" lon="3.31004">
        <ele>49.1645508</ele>
        <time>2011-11-06T09:42:16Z</time>
      </trkpt>
      <trkpt lat="50.32669" lon="3.31008">
        <ele>49.1645508</ele>
        <time>2011-11-06T09:42:20Z</time>
      </trkpt>
      <trkpt lat="50.32654" lon="3.31017">
        <ele>49.1645508</ele>
        <time>2011-11-06T09:42:23Z</time>
      </trkpt>
      <trkpt lat="50.32634" lon="3.31034">
        <ele>49.1645508</ele>
        <time>2011-11-06T09:42:27Z</time>
      </trkpt>
      <trkpt lat="50.32621" lon="3.31049">
        <ele>49.1645508</ele>
        <time>2011-11-06T09:42:30Z</time>
      </trkpt>
      <trkpt lat="50.32613" lon="3.3106">
        <ele>48.2033691</ele>
        <time>2011-11-06T09:42:32Z</time>
      </trkpt>
      <trkpt lat="50.32595" lon="3.31103">
        <ele>46.2806396</ele>
        <time>2011-11-06T09:42:38Z</time>
      </trkpt>
      <trkpt lat="50.32583" lon="3.31117">
        <ele>46.2806396</ele>
        <time>2011-11-06T09:42:42Z</time>
      </trkpt>
      <trkpt lat="50.32579" lon="3.31102">
        <ele>45.7999268</ele>
        <time>2011-11-06T09:42:45Z</time>
      </trkpt>
      <trkpt lat="50.32578" lon="3.31076">
        <ele>44.3580322</ele>
        <time>2011-11-06T09:42:48Z</time>
      </trkpt>
      <trkpt lat="50.32569" lon="3.31052">
        <ele>43.3966064</ele>
        <time>2011-11-06T09:42:53Z</time>
      </trkpt>
      <trkpt lat="50.32552" lon="3.31041">
        <ele>42.9160156</ele>
        <time>2011-11-06T09:42:57Z</time>
      </trkpt>
      <trkpt lat="50.32544" lon="3.31046">
        <ele>43.3966064</ele>
        <time>2011-11-06T09:42:59Z</time>
      </trkpt>
      <trkpt lat="50.32523" lon="3.31059">
        <ele>42.4354248</ele>
        <time>2011-11-06T09:43:04Z</time>
      </trkpt>
      <trkpt lat="50.32517" lon="3.31063">
        <ele>42.4354248</ele>
        <time>2011-11-06T09:43:05Z</time>
      </trkpt>
      <trkpt lat="50.32502" lon="3.31088">
        <ele>41.9547119</ele>
        <time>2011-11-06T09:43:09Z</time>
      </trkpt>
      <trkpt lat="50.32483" lon="3.31128">
        <ele>41.473999</ele>
        <time>2011-11-06T09:43:14Z</time>
      </trkpt>
      <trkpt lat="50.3246" lon="3.31143">
        <ele>41.473999</ele>
        <time>2011-11-06T09:43:18Z</time>
      </trkpt>
      <trkpt lat="50.32442" lon="3.31133">
        <ele>41.473999</ele>
        <time>2011-11-06T09:43:21Z</time>
      </trkpt>
      <trkpt lat="50.324" lon="3.31101">
        <ele>40.0321045</ele>
        <time>2011-11-06T09:43:27Z</time>
      </trkpt>
      <trkpt lat="50.32369" lon="3.31094">
        <ele>40.5128174</ele>
        <time>2011-11-06T09:43:32Z</time>
      </trkpt>
      <trkpt lat="50.32344" lon="3.3107">
        <ele>40.5128174</ele>
        <time>2011-11-06T09:43:37Z</time>
      </trkpt>
      <trkpt lat="50.32342" lon="3.3104">
        <ele>40.9934082</ele>
        <time>2011-11-06T09:43:40Z</time>
      </trkpt>
      <trkpt lat="50.32343" lon="3.31031">
        <ele>40.9934082</ele>
        <time>2011-11-06T09:43:41Z</time>
      </trkpt>
      <trkpt lat="50.32346" lon="3.31006">
        <ele>40.9934082</ele>
        <time>2011-11-06T09:43:44Z</time>
      </trkpt>
      <trkpt lat="50.3235" lon="3.30971">
        <ele>42.4354248</ele>
        <time>2011-11-06T09:43:49Z</time>
      </trkpt>
      <trkpt lat="50.32358" lon="3.30955">
        <ele>43.3966064</ele>
        <time>2011-11-06T09:43:52Z</time>
      </trkpt>
      <trkpt lat="50.32371" lon="3.30945">
        <ele>43.3966064</ele>
        <time>2011-11-06T09:43:55Z</time>
      </trkpt>
      <trkpt lat="50.32384" lon="3.30917">
        <ele>43.8773193</ele>
        <time>2011-11-06T09:43:59Z</time>
      </trkpt>
      <trkpt lat="50.32384" lon="3.30878">
        <ele>43.3966064</ele>
        <time>2011-11-06T09:44:03Z</time>
      </trkpt>
      <trkpt lat="50.32376" lon="3.30851">
        <ele>43.8773193</ele>
        <time>2011-11-06T09:44:06Z</time>
      </trkpt>
      <trkpt lat="50.32369" lon="3.30837">
        <ele>44.3580322</ele>
        <time>2011-11-06T09:44:08Z</time>
      </trkpt>
      <trkpt lat="50.32359" lon="3.30797">
        <ele>45.3192139</ele>
        <time>2011-11-06T09:44:13Z</time>
      </trkpt>
      <trkpt lat="50.32358" lon="3.3078">
        <ele>45.7999268</ele>
        <time>2011-11-06T09:44:15Z</time>
      </trkpt>
      <trkpt lat="50.3236" lon="3.30762">
        <ele>45.3192139</ele>
        <time>2011-11-06T09:44:17Z</time>
      </trkpt>
      <trkpt lat="50.32376" lon="3.30693">
        <ele>44.838623</ele>
        <time>2011-11-06T09:44:25Z</time>
      </trkpt>
      <trkpt lat="50.32393" lon="3.30649">
        <ele>43.8773193</ele>
        <time>2011-11-06T09:44:30Z</time>
      </trkpt>
      <trkpt lat="50.324" lon="3.30613">
        <ele>44.838623</ele>
        <time>2011-11-06T09:44:34Z</time>
      </trkpt>
      <trkpt lat="50.32396" lon="3.30565">
        <ele>48.2033691</ele>
        <time>2011-11-06T09:44:41Z</time>
      </trkpt>
      <trkpt lat="50.32394" lon="3.30553">
        <ele>49.1645508</ele>
        <time>2011-11-06T09:44:43Z</time>
      </trkpt>
      <trkpt lat="50.32397" lon="3.30512">
        <ele>49.6452637</ele>
        <time>2011-11-06T09:44:49Z</time>
      </trkpt>
      <trkpt lat="50.32405" lon="3.30483">
        <ele>50.1259766</ele>
        <time>2011-11-06T09:44:53Z</time>
      </trkpt>
      <trkpt lat="50.32409" lon="3.30433">
        <ele>50.1259766</ele>
        <time>2011-11-06T09:44:59Z</time>
      </trkpt>
      <trkpt lat="50.32408" lon="3.30366">
        <ele>50.6065674</ele>
        <time>2011-11-06T09:45:06Z</time>
      </trkpt>
      <trkpt lat="50.32407" lon="3.30277">
        <ele>52.048584</ele>
        <time>2011-11-06T09:45:15Z</time>
      </trkpt>
      <trkpt lat="50.32408" lon="3.30248">
        <ele>52.5291748</ele>
        <time>2011-11-06T09:45:18Z</time>
      </trkpt>
      <trkpt lat="50.32413" lon="3.30211">
        <ele>53.0097656</ele>
        <time>2011-11-06T09:45:22Z</time>
      </trkpt>
      <trkpt lat="50.32436" lon="3.30154">
        <ele>53.0097656</ele>
        <time>2011-11-06T09:45:29Z</time>
      </trkpt>
      <trkpt lat="50.32464" lon="3.3009">
        <ele>53.9711914</ele>
        <time>2011-11-06T09:45:37Z</time>
      </trkpt>
      <trkpt lat="50.3249" lon="3.30033">
        <ele>53.4904785</ele>
        <time>2011-11-06T09:45:44Z</time>
      </trkpt>
      <trkpt lat="50.32521" lon="3.2997">
        <ele>53.4904785</ele>
        <time>2011-11-06T09:45:52Z</time>
      </trkpt>
      <trkpt lat="50.32536" lon="3.29928">
        <ele>53.4904785</ele>
        <time>2011-11-06T09:45:57Z</time>
      </trkpt>
      <trkpt lat="50.32555" lon="3.29894">
        <ele>53.9711914</ele>
        <time>2011-11-06T09:46:02Z</time>
      </trkpt>
      <trkpt lat="50.32562" lon="3.29884">
        <ele>54.4517822</ele>
        <time>2011-11-06T09:46:04Z</time>
      </trkpt>
      <trkpt lat="50.32566" lon="3.29873">
        <ele>53.9711914</ele>
        <time>2011-11-06T09:46:06Z</time>
      </trkpt>
      <trkpt lat="50.32583" lon="3.29834">
        <ele>53.0097656</ele>
        <time>2011-11-06T09:46:12Z</time>
      </trkpt>
      <trkpt lat="50.32618" lon="3.2976">
        <ele>51.5678711</ele>
        <time>2011-11-06T09:46:22Z</time>
      </trkpt>
      <trkpt lat="50.32624" lon="3.29747">
        <ele>51.5678711</ele>
        <time>2011-11-06T09:46:24Z</time>
      </trkpt>
      <trkpt lat="50.32625" lon="3.29723">
        <ele>51.0871582</ele>
        <time>2011-11-06T09:46:28Z</time>
      </trkpt>
      <trkpt lat="50.32619" lon="3.29712">
        <ele>51.0871582</ele>
        <time>2011-11-06T09:46:30Z</time>
      </trkpt>
      <trkpt lat="50.32588" lon="3.29679">
        <ele>50.6065674</ele>
        <time>2011-11-06T09:46:37Z</time>
      </trkpt>
      <trkpt lat="50.32552" lon="3.29643">
        <ele>51.0871582</ele>
        <time>2011-11-06T09:46:44Z</time>
      </trkpt>
      <trkpt lat="50.32528" lon="3.29614">
        <ele>52.048584</ele>
        <time>2011-11-06T09:46:49Z</time>
      </trkpt>
      <trkpt lat="50.32496" lon="3.29548">
        <ele>51.5678711</ele>
        <time>2011-11-06T09:46:57Z</time>
      </trkpt>
      <trkpt lat="50.32463" lon="3.29467">
        <ele>51.0871582</ele>
        <time>2011-11-06T09:47:06Z</time>
      </trkpt>
      <trkpt lat="50.32427" lon="3.29386">
        <ele>52.048584</ele>
        <time>2011-11-06T09:47:15Z</time>
      </trkpt>
      <trkpt lat="50.32373" lon="3.29298">
        <ele>52.5291748</ele>
        <time>2011-11-06T09:47:26Z</time>
      </trkpt>
      <trkpt lat="50.32324" lon="3.29225">
        <ele>52.048584</ele>
        <time>2011-11-06T09:47:35Z</time>
      </trkpt>
      <trkpt lat="50.3227" lon="3.29157">
        <ele>53.0097656</ele>
        <time>2011-11-06T09:47:44Z</time>
      </trkpt>
      <trkpt lat="50.32209" lon="3.29096">
        <ele>53.4904785</ele>
        <time>2011-11-06T09:47:53Z</time>
      </trkpt>
      <trkpt lat="50.32147" lon="3.29033">
        <ele>53.4904785</ele>
        <time>2011-11-06T09:48:02Z</time>
      </trkpt>
      <trkpt lat="50.32108" lon="3.28982">
        <ele>53.4904785</ele>
        <time>2011-11-06T09:48:08Z</time>
      </trkpt>
      <trkpt lat="50.32049" lon="3.2889">
        <ele>52.5291748</ele>
        <time>2011-11-06T09:48:17Z</time>
      </trkpt>
      <trkpt lat="50.31978" lon="3.28779">
        <ele>51.5678711</ele>
        <time>2011-11-06T09:48:28Z</time>
      </trkpt>
      <trkpt lat="50.31921" lon="3.2869">
        <ele>50.1259766</ele>
        <time>2011-11-06T09:48:37Z</time>
      </trkpt>
      <trkpt lat="50.31852" lon="3.28584">
        <ele>49.6452637</ele>
        <time>2011-11-06T09:48:48Z</time>
      </trkpt>
      <trkpt lat="50.31804" lon="3.28511">
        <ele>49.6452637</ele>
        <time>2011-11-06T09:48:56Z</time>
      </trkpt>
      <trkpt lat="50.31759" lon="3.28443">
        <ele>49.6452637</ele>
        <time>2011-11-06T09:49:04Z</time>
      </trkpt>
      <trkpt lat="50.31717" lon="3.28385">
        <ele>50.1259766</ele>
        <time>2011-11-06T09:49:12Z</time>
      </trkpt>
      <trkpt lat="50.3168" lon="3.28342">
        <ele>51.5678711</ele>
        <time>2011-11-06T09:49:19Z</time>
      </trkpt>
      <trkpt lat="50.31634" lon="3.28285">
        <ele>53.0097656</ele>
        <time>2011-11-06T09:49:28Z</time>
      </trkpt>
      <trkpt lat="50.31582" lon="3.28225">
        <ele>53.4904785</ele>
        <time>2011-11-06T09:49:38Z</time>
      </trkpt>
      <trkpt lat="50.31535" lon="3.28172">
        <ele>53.4904785</ele>
        <time>2011-11-06T09:49:47Z</time>
      </trkpt>
      <trkpt lat="50.31501" lon="3.28139">
        <ele>53.0097656</ele>
        <time>2011-11-06T09:49:53Z</time>
      </trkpt>
      <trkpt lat="50.31469" lon="3.28105">
        <ele>53.0097656</ele>
        <time>2011-11-06T09:49:59Z</time>
      </trkpt>
      <trkpt lat="50.31459" lon="3.28092">
        <ele>53.4904785</ele>
        <time>2011-11-06T09:50:01Z</time>
      </trkpt>
      <trkpt lat="50.31433" lon="3.28082">
        <ele>53.0097656</ele>
        <time>2011-11-06T09:50:05Z</time>
      </trkpt>
      <trkpt lat="50.31381" lon="3.28081">
        <ele>53.0097656</ele>
        <time>2011-11-06T09:50:12Z</time>
      </trkpt>
      <trkpt lat="50.31364" lon="3.28092">
        <ele>52.5291748</ele>
        <time>2011-11-06T09:50:15Z</time>
      </trkpt>
      <trkpt lat="50.31359" lon="3.281">
        <ele>52.048584</ele>
        <time>2011-11-06T09:50:16Z</time>
      </trkpt>
      <trkpt lat="50.31345" lon="3.28125">
        <ele>51.5678711</ele>
        <time>2011-11-06T09:50:19Z</time>
      </trkpt>
      <trkpt lat="50.31305" lon="3.28183">
        <ele>50.6065674</ele>
        <time>2011-11-06T09:50:26Z</time>
      </trkpt>
      <trkpt lat="50.31243" lon="3.28273">
        <ele>49.1645508</ele>
        <time>2011-11-06T09:50:36Z</time>
      </trkpt>
      <trkpt lat="50.31177" lon="3.28366">
        <ele>46.2806396</ele>
        <time>2011-11-06T09:50:46Z</time>
      </trkpt>
      <trkpt lat="50.3113" lon="3.28435">
        <ele>44.838623</ele>
        <time>2011-11-06T09:50:53Z</time>
      </trkpt>
      <trkpt lat="50.31108" lon="3.2849">
        <ele>44.3580322</ele>
        <time>2011-11-06T09:50:58Z</time>
      </trkpt>
      <trkpt lat="50.31086" lon="3.2856">
        <ele>44.3580322</ele>
        <time>2011-11-06T09:51:04Z</time>
      </trkpt>
      <trkpt lat="50.31068" lon="3.28642">
        <ele>45.3192139</ele>
        <time>2011-11-06T09:51:11Z</time>
      </trkpt>
      <trkpt lat="50.31051" lon="3.28692">
        <ele>46.2806396</ele>
        <time>2011-11-06T09:51:16Z</time>
      </trkpt>
      <trkpt lat="50.31029" lon="3.28761">
        <ele>46.2806396</ele>
        <time>2011-11-06T09:51:23Z</time>
      </trkpt>
      <trkpt lat="50.31007" lon="3.28848">
        <ele>44.3580322</ele>
        <time>2011-11-06T09:51:31Z</time>
      </trkpt>
      <trkpt lat="50.30983" lon="3.28945">
        <ele>42.4354248</ele>
        <time>2011-11-06T09:51:39Z</time>
      </trkpt>
      <trkpt lat="50.30953" lon="3.29058">
        <ele>40.0321045</ele>
        <time>2011-11-06T09:51:48Z</time>
      </trkpt>
      <trkpt lat="50.30927" lon="3.2916">
        <ele>38.109375</ele>
        <time>2011-11-06T09:51:56Z</time>
      </trkpt>
      <trkpt lat="50.30897" lon="3.29279">
        <ele>35.7060547</ele>
        <time>2011-11-06T09:52:05Z</time>
      </trkpt>
      <trkpt lat="50.30874" lon="3.29368">
        <ele>34.744873</ele>
        <time>2011-11-06T09:52:12Z</time>
      </trkpt>
      <trkpt lat="50.30854" lon="3.29453">
        <ele>34.2641602</ele>
        <time>2011-11-06T09:52:19Z</time>
      </trkpt>
      <trkpt lat="50.30828" lon="3.29543">
        <ele>32.8222656</ele>
        <time>2011-11-06T09:52:27Z</time>
      </trkpt>
      <trkpt lat="50.30806" lon="3.29633">
        <ele>30.8995361</ele>
        <time>2011-11-06T09:52:35Z</time>
      </trkpt>
      <trkpt lat="50.30786" lon="3.29689">
        <ele>29.9381104</ele>
        <time>2011-11-06T09:52:40Z</time>
      </trkpt>
      <trkpt lat="50.30746" lon="3.29802">
        <ele>27.5349121</ele>
        <time>2011-11-06T09:52:50Z</time>
      </trkpt>
      <trkpt lat="50.3073" lon="3.29846">
        <ele>27.5349121</ele>
        <time>2011-11-06T09:52:54Z</time>
      </trkpt>
      <trkpt lat="50.30688" lon="3.29947">
        <ele>27.5349121</ele>
        <time>2011-11-06T09:53:04Z</time>
      </trkpt>
      <trkpt lat="50.30658" lon="3.29995">
        <ele>27.5349121</ele>
        <time>2011-11-06T09:53:10Z</time>
      </trkpt>
      <trkpt lat="50.30632" lon="3.30037">
        <ele>27.0543213</ele>
        <time>2011-11-06T09:53:15Z</time>
      </trkpt>
      <trkpt lat="50.30613" lon="3.3009">
        <ele>26.0928955</ele>
        <time>2011-11-06T09:53:20Z</time>
      </trkpt>
      <trkpt lat="50.30584" lon="3.30132">
        <ele>25.6123047</ele>
        <time>2011-11-06T09:53:25Z</time>
      </trkpt>
      <trkpt lat="50.3054" lon="3.30184">
        <ele>25.6123047</ele>
        <time>2011-11-06T09:53:32Z</time>
      </trkpt>
      <trkpt lat="50.30504" lon="3.30213">
        <ele>25.6123047</ele>
        <time>2011-11-06T09:53:37Z</time>
      </trkpt>
      <trkpt lat="50.30497" lon="3.30218">
        <ele>25.6123047</ele>
        <time>2011-11-06T09:53:38Z</time>
      </trkpt>
      <trkpt lat="50.30463" lon="3.30246">
        <ele>26.5736084</ele>
        <time>2011-11-06T09:53:43Z</time>
      </trkpt>
      <trkpt lat="50.30431" lon="3.30296">
        <ele>26.5736084</ele>
        <time>2011-11-06T09:53:49Z</time>
      </trkpt>
      <trkpt lat="50.30383" lon="3.30377">
        <ele>25.6123047</ele>
        <time>2011-11-06T09:53:58Z</time>
      </trkpt>
      <trkpt lat="50.30341" lon="3.30447">
        <ele>25.6123047</ele>
        <time>2011-11-06T09:54:06Z</time>
      </trkpt>
      <trkpt lat="50.30333" lon="3.30482">
        <ele>26.0928955</ele>
        <time>2011-11-06T09:54:10Z</time>
      </trkpt>
      <trkpt lat="50.30336" lon="3.30501">
        <ele>25.6123047</ele>
        <time>2011-11-06T09:54:12Z</time>
      </trkpt>
      <trkpt lat="50.30357" lon="3.30577">
        <ele>24.651001</ele>
        <time>2011-11-06T09:54:20Z</time>
      </trkpt>
      <trkpt lat="50.30383" lon="3.30672">
        <ele>23.6895752</ele>
        <time>2011-11-06T09:54:30Z</time>
      </trkpt>
      <trkpt lat="50.30396" lon="3.30724">
        <ele>23.6895752</ele>
        <time>2011-11-06T09:54:36Z</time>
      </trkpt>
      <trkpt lat="50.30404" lon="3.30754">
        <ele>23.2089844</ele>
        <time>2011-11-06T09:54:40Z</time>
      </trkpt>
      <trkpt lat="50.3042" lon="3.30775">
        <ele>23.6895752</ele>
        <time>2011-11-06T09:54:44Z</time>
      </trkpt>
      <trkpt lat="50.30447" lon="3.30815">
        <ele>23.2089844</ele>
        <time>2011-11-06T09:54:50Z</time>
      </trkpt>
      <trkpt lat="50.30453" lon="3.30846">
        <ele>23.2089844</ele>
        <time>2011-11-06T09:54:53Z</time>
      </trkpt>
      <trkpt lat="50.30463" lon="3.3097">
        <ele>24.1702881</ele>
        <time>2011-11-06T09:55:04Z</time>
      </trkpt>
      <trkpt lat="50.30469" lon="3.31071">
        <ele>24.651001</ele>
        <time>2011-11-06T09:55:13Z</time>
      </trkpt>
      <trkpt lat="50.30478" lon="3.31166">
        <ele>25.6123047</ele>
        <time>2011-11-06T09:55:22Z</time>
      </trkpt>
      <trkpt lat="50.30493" lon="3.31244">
        <ele>26.5736084</ele>
        <time>2011-11-06T09:55:30Z</time>
      </trkpt>
      <trkpt lat="50.30505" lon="3.31307">
        <ele>27.5349121</ele>
        <time>2011-11-06T09:55:37Z</time>
      </trkpt>
      <trkpt lat="50.30518" lon="3.31368">
        <ele>28.0155029</ele>
        <time>2011-11-06T09:55:45Z</time>
      </trkpt>
      <trkpt lat="50.30526" lon="3.31411">
        <ele>28.4962158</ele>
        <time>2011-11-06T09:55:50Z</time>
      </trkpt>
      <trkpt lat="50.30541" lon="3.31483">
        <ele>29.4575195</ele>
        <time>2011-11-06T09:55:58Z</time>
      </trkpt>
      <trkpt lat="50.30555" lon="3.31553">
        <ele>29.4575195</ele>
        <time>2011-11-06T09:56:06Z</time>
      </trkpt>
      <trkpt lat="50.30565" lon="3.31609">
        <ele>28.9769287</ele>
        <time>2011-11-06T09:56:12Z</time>
      </trkpt>
      <trkpt lat="50.30576" lon="3.31686">
        <ele>28.0155029</ele>
        <time>2011-11-06T09:56:20Z</time>
      </trkpt>
      <trkpt lat="50.30582" lon="3.31758">
        <ele>27.5349121</ele>
        <time>2011-11-06T09:56:27Z</time>
      </trkpt>
      <trkpt lat="50.30587" lon="3.31857">
        <ele>26.5736084</ele>
        <time>2011-11-06T09:56:36Z</time>
      </trkpt>
      <trkpt lat="50.30596" lon="3.31941">
        <ele>26.0928955</ele>
        <time>2011-11-06T09:56:44Z</time>
      </trkpt>
      <trkpt lat="50.30605" lon="3.32015">
        <ele>26.0928955</ele>
        <time>2011-11-06T09:56:51Z</time>
      </trkpt>
      <trkpt lat="50.30614" lon="3.32089">
        <ele>26.0928955</ele>
        <time>2011-11-06T09:56:59Z</time>
      </trkpt>
      <trkpt lat="50.30625" lon="3.3216">
        <ele>25.6123047</ele>
        <time>2011-11-06T09:57:07Z</time>
      </trkpt>
      <trkpt lat="50.3064" lon="3.32241">
        <ele>25.6123047</ele>
        <time>2011-11-06T09:57:16Z</time>
      </trkpt>
      <trkpt lat="50.30656" lon="3.32322">
        <ele>25.6123047</ele>
        <time>2011-11-06T09:57:26Z</time>
      </trkpt>
      <trkpt lat="50.30658" lon="3.32331">
        <ele>25.6123047</ele>
        <time>2011-11-06T09:57:27Z</time>
      </trkpt>
      <trkpt lat="50.30672" lon="3.32399">
        <ele>26.0928955</ele>
        <time>2011-11-06T09:57:35Z</time>
      </trkpt>
      <trkpt lat="50.30694" lon="3.32486">
        <ele>26.5736084</ele>
        <time>2011-11-06T09:57:45Z</time>
      </trkpt>
      <trkpt lat="50.30708" lon="3.32543">
        <ele>27.0543213</ele>
        <time>2011-11-06T09:57:52Z</time>
      </trkpt>
      <trkpt lat="50.30709" lon="3.3256">
        <ele>27.0543213</ele>
        <time>2011-11-06T09:57:54Z</time>
      </trkpt>
      <trkpt lat="50.30708" lon="3.32575">
        <ele>27.0543213</ele>
        <time>2011-11-06T09:57:56Z</time>
      </trkpt>
      <trkpt lat="50.30706" lon="3.32588">
        <ele>26.5736084</ele>
        <time>2011-11-06T09:57:58Z</time>
      </trkpt>
      <trkpt lat="50.30689" lon="3.32607">
        <ele>26.0928955</ele>
        <time>2011-11-06T09:58:02Z</time>
      </trkpt>
      <trkpt lat="50.30654" lon="3.32637">
        <ele>25.1317139</ele>
        <time>2011-11-06T09:58:08Z</time>
      </trkpt>
      <trkpt lat="50.30623" lon="3.32688">
        <ele>24.1702881</ele>
        <time>2011-11-06T09:58:14Z</time>
      </trkpt>
      <trkpt lat="50.30581" lon="3.32774">
        <ele>23.6895752</ele>
        <time>2011-11-06T09:58:23Z</time>
      </trkpt>
      <trkpt lat="50.30563" lon="3.3281">
        <ele>23.2089844</ele>
        <time>2011-11-06T09:58:27Z</time>
      </trkpt>
      <trkpt lat="50.30541" lon="3.32829">
        <ele>22.7282715</ele>
        <time>2011-11-06T09:58:31Z</time>
      </trkpt>
      <trkpt lat="50.30527" lon="3.32821">
        <ele>22.7282715</ele>
        <time>2011-11-06T09:58:33Z</time>
      </trkpt>
      <trkpt lat="50.30467" lon="3.32778">
        <ele>21.286377</ele>
        <time>2011-11-06T09:58:41Z</time>
      </trkpt>
      <trkpt lat="50.30392" lon="3.32723">
        <ele>20.3249512</ele>
        <time>2011-11-06T09:58:50Z</time>
      </trkpt>
      <trkpt lat="50.30315" lon="3.32667">
        <ele>19.3637695</ele>
        <time>2011-11-06T09:58:59Z</time>
      </trkpt>
      <trkpt lat="50.30283" lon="3.32645">
        <ele>19.3637695</ele>
        <time>2011-11-06T09:59:03Z</time>
      </trkpt>
      <trkpt lat="50.30262" lon="3.32638">
        <ele>19.3637695</ele>
        <time>2011-11-06T09:59:06Z</time>
      </trkpt>
      <trkpt lat="50.30255" lon="3.32653">
        <ele>19.8443604</ele>
        <time>2011-11-06T09:59:08Z</time>
      </trkpt>
      <trkpt lat="50.30254" lon="3.32674">
        <ele>19.8443604</ele>
        <time>2011-11-06T09:59:10Z</time>
      </trkpt>
      <trkpt lat="50.30255" lon="3.32775">
        <ele>19.8443604</ele>
        <time>2011-11-06T09:59:19Z</time>
      </trkpt>
      <trkpt lat="50.30255" lon="3.3288">
        <ele>20.3249512</ele>
        <time>2011-11-06T09:59:28Z</time>
      </trkpt>
      <trkpt lat="50.30255" lon="3.32955">
        <ele>20.3249512</ele>
        <time>2011-11-06T09:59:35Z</time>
      </trkpt>
      <trkpt lat="50.30248" lon="3.32976">
        <ele>20.3249512</ele>
        <time>2011-11-06T09:59:38Z</time>
      </trkpt>
      <trkpt lat="50.30236" lon="3.32976">
        <ele>20.8056641</ele>
        <time>2011-11-06T09:59:40Z</time>
      </trkpt>
      <trkpt lat="50.3021" lon="3.32978">
        <ele>20.8056641</ele>
        <time>2011-11-06T09:59:44Z</time>
      </trkpt>
      <trkpt lat="50.30191" lon="3.33005">
        <ele>20.3249512</ele>
        <time>2011-11-06T09:59:48Z</time>
      </trkpt>
      <trkpt lat="50.30189" lon="3.33026">
        <ele>20.3249512</ele>
        <time>2011-11-06T09:59:50Z</time>
      </trkpt>
      <trkpt lat="50.30192" lon="3.33113">
        <ele>20.3249512</ele>
        <time>2011-11-06T09:59:58Z</time>
      </trkpt>
      <trkpt lat="50.30193" lon="3.33124">
        <ele>20.3249512</ele>
        <time>2011-11-06T09:59:59Z</time>
      </trkpt>
      <trkpt lat="50.30195" lon="3.33184">
        <ele>21.286377</ele>
        <time>2011-11-06T10:00:05Z</time>
      </trkpt>
      <trkpt lat="50.30201" lon="3.33254">
        <ele>22.2475586</ele>
        <time>2011-11-06T10:00:12Z</time>
      </trkpt>
      <trkpt lat="50.30213" lon="3.33345">
        <ele>22.2475586</ele>
        <time>2011-11-06T10:00:21Z</time>
      </trkpt>
      <trkpt lat="50.30225" lon="3.33412">
        <ele>21.7669678</ele>
        <time>2011-11-06T10:00:28Z</time>
      </trkpt>
      <trkpt lat="50.30242" lon="3.33453">
        <ele>21.7669678</ele>
        <time>2011-11-06T10:00:33Z</time>
      </trkpt>
      <trkpt lat="50.3025" lon="3.3347">
        <ele>22.2475586</ele>
        <time>2011-11-06T10:00:35Z</time>
      </trkpt>
      <trkpt lat="50.30266" lon="3.3353">
        <ele>22.7282715</ele>
        <time>2011-11-06T10:00:42Z</time>
      </trkpt>
      <trkpt lat="50.30277" lon="3.33604">
        <ele>22.7282715</ele>
        <time>2011-11-06T10:00:50Z</time>
      </trkpt>
      <trkpt lat="50.30292" lon="3.33666">
        <ele>22.2475586</ele>
        <time>2011-11-06T10:00:57Z</time>
      </trkpt>
      <trkpt lat="50.30304" lon="3.3371">
        <ele>22.2475586</ele>
        <time>2011-11-06T10:01:02Z</time>
      </trkpt>
      <trkpt lat="50.30299" lon="3.33734">
        <ele>21.7669678</ele>
        <time>2011-11-06T10:01:06Z</time>
      </trkpt>
      <trkpt lat="50.30296" lon="3.33739">
        <ele>21.286377</ele>
        <time>2011-11-06T10:01:07Z</time>
      </trkpt>
      <trkpt lat="50.30276" lon="3.33762">
        <ele>20.8056641</ele>
        <time>2011-11-06T10:01:12Z</time>
      </trkpt>
      <trkpt lat="50.30268" lon="3.33768">
        <ele>20.8056641</ele>
        <time>2011-11-06T10:01:14Z</time>
      </trkpt>
      <trkpt lat="50.30255" lon="3.33783">
        <ele>20.8056641</ele>
        <time>2011-11-06T10:01:18Z</time>
      </trkpt>
      <trkpt lat="50.30247" lon="3.33795">
        <ele>20.3249512</ele>
        <time>2011-11-06T10:01:21Z</time>
      </trkpt>
      <trkpt lat="50.30237" lon="3.33809">
        <ele>20.8056641</ele>
        <time>2011-11-06T10:01:26Z</time>
      </trkpt>
      <trkpt lat="50.30239" lon="3.33822">
        <ele>21.7669678</ele>
        <time>2011-11-06T10:01:30Z</time>
      </trkpt>
      <trkpt lat="50.30246" lon="3.33826">
        <ele>22.2475586</ele>
        <time>2011-11-06T10:01:33Z</time>
      </trkpt>
      <trkpt lat="50.30275" lon="3.33832">
        <ele>21.286377</ele>
        <time>2011-11-06T10:01:40Z</time>
      </trkpt>
      <trkpt lat="50.303" lon="3.33839">
        <ele>20.3249512</ele>
        <time>2011-11-06T10:01:45Z</time>
      </trkpt>
      <trkpt lat="50.30332" lon="3.33869">
        <ele>19.8443604</ele>
        <time>2011-11-06T10:01:52Z</time>
      </trkpt>
      <trkpt lat="50.30367" lon="3.33911">
        <ele>18.8830566</ele>
        <time>2011-11-06T10:02:00Z</time>
      </trkpt>
      <trkpt lat="50.30397" lon="3.33947">
        <ele>17.9217529</ele>
        <time>2011-11-06T10:02:07Z</time>
      </trkpt>
      <trkpt lat="50.30422" lon="3.33985">
        <ele>16.4797363</ele>
        <time>2011-11-06T10:02:14Z</time>
      </trkpt>
      <trkpt lat="50.30449" lon="3.34029">
        <ele>15.9990234</ele>
        <time>2011-11-06T10:02:22Z</time>
      </trkpt>
      <trkpt lat="50.30472" lon="3.34056">
        <ele>15.9990234</ele>
        <time>2011-11-06T10:02:29Z</time>
      </trkpt>
      <trkpt lat="50.30483" lon="3.3407">
        <ele>16.4797363</ele>
        <time>2011-11-06T10:02:33Z</time>
      </trkpt>
      <trkpt lat="50.3048" lon="3.34077">
        <ele>16.4797363</ele>
        <time>2011-11-06T10:02:37Z</time>
      </trkpt>
      <trkpt lat="50.30472" lon="3.34067">
        <ele>17.4411621</ele>
        <time>2011-11-06T10:02:41Z</time>
      </trkpt>
      <trkpt lat="50.3047" lon="3.34065">
        <ele>17.9217529</ele>
        <time>2011-11-06T10:02:42Z</time>
      </trkpt>
      <trkpt lat="50.3045" lon="3.34055">
        <ele>19.8443604</ele>
        <time>2011-11-06T10:02:50Z</time>
      </trkpt>
      <trkpt lat="50.30438" lon="3.34049">
        <ele>21.286377</ele>
        <time>2011-11-06T10:02:56Z</time>
      </trkpt>
      <trkpt lat="50.30426" lon="3.34048">
        <ele>22.2475586</ele>
        <time>2011-11-06T10:03:01Z</time>
      </trkpt>
      <trkpt lat="50.30414" lon="3.34045">
        <ele>26.0928955</ele>
        <time>2011-11-06T10:03:08Z</time>
      </trkpt>
      <trkpt lat="50.30402" lon="3.34041">
        <ele>29.9381104</ele>
        <time>2011-11-06T10:03:16Z</time>
      </trkpt>
      <trkpt lat="50.30392" lon="3.3404">
        <ele>30.8995361</ele>
        <time>2011-11-06T10:03:21Z</time>
      </trkpt>
      <trkpt lat="50.3038" lon="3.34039">
        <ele>33.3028564</ele>
        <time>2011-11-06T10:03:28Z</time>
      </trkpt>
      <trkpt lat="50.30372" lon="3.34031">
        <ele>34.744873</ele>
        <time>2011-11-06T10:03:34Z</time>
      </trkpt>
      <trkpt lat="50.30364" lon="3.3401">
        <ele>35.2254639</ele>
        <time>2011-11-06T10:03:42Z</time>
      </trkpt>
      <trkpt lat="50.3035" lon="3.33995">
        <ele>35.2254639</ele>
        <time>2011-11-06T10:03:49Z</time>
      </trkpt>
      <trkpt lat="50.30327" lon="3.33972">
        <ele>36.1867676</ele>
        <time>2011-11-06T10:03:59Z</time>
      </trkpt>
      <trkpt lat="50.30307" lon="3.33949">
        <ele>35.7060547</ele>
        <time>2011-11-06T10:04:06Z</time>
      </trkpt>
      <trkpt lat="50.30282" lon="3.33918">
        <ele>33.3028564</ele>
        <time>2011-11-06T10:04:12Z</time>
      </trkpt>
      <trkpt lat="50.30277" lon="3.33912">
        <ele>33.3028564</ele>
        <time>2011-11-06T10:04:13Z</time>
      </trkpt>
      <trkpt lat="50.30254" lon="3.339">
        <ele>32.3415527</ele>
        <time>2011-11-06T10:04:17Z</time>
      </trkpt>
      <trkpt lat="50.30237" lon="3.33911">
        <ele>33.3028564</ele>
        <time>2011-11-06T10:04:20Z</time>
      </trkpt>
      <trkpt lat="50.30225" lon="3.33933">
        <ele>32.8222656</ele>
        <time>2011-11-06T10:04:23Z</time>
      </trkpt>
      <trkpt lat="50.30207" lon="3.33959">
        <ele>31.8607178</ele>
        <time>2011-11-06T10:04:27Z</time>
      </trkpt>
      <trkpt lat="50.30209" lon="3.33983">
        <ele>29.9381104</ele>
        <time>2011-11-06T10:04:30Z</time>
      </trkpt>
      <trkpt lat="50.30231" lon="3.34035">
        <ele>28.9769287</ele>
        <time>2011-11-06T10:04:37Z</time>
      </trkpt>
      <trkpt lat="50.30241" lon="3.34057">
        <ele>28.9769287</ele>
        <time>2011-11-06T10:04:40Z</time>
      </trkpt>
      <trkpt lat="50.30244" lon="3.34096">
        <ele>29.9381104</ele>
        <time>2011-11-06T10:04:45Z</time>
      </trkpt>
      <trkpt lat="50.30241" lon="3.34157">
        <ele>29.9381104</ele>
        <time>2011-11-06T10:04:52Z</time>
      </trkpt>
      <trkpt lat="50.3024" lon="3.34177">
        <ele>29.4575195</ele>
        <time>2011-11-06T10:04:54Z</time>
      </trkpt>
      <trkpt lat="50.30246" lon="3.34212">
        <ele>28.9769287</ele>
        <time>2011-11-06T10:04:58Z</time>
      </trkpt>
      <trkpt lat="50.30271" lon="3.34262">
        <ele>28.9769287</ele>
        <time>2011-11-06T10:05:05Z</time>
      </trkpt>
      <trkpt lat="50.30286" lon="3.3428">
        <ele>28.0155029</ele>
        <time>2011-11-06T10:05:08Z</time>
      </trkpt>
      <trkpt lat="50.30302" lon="3.343">
        <ele>27.0543213</ele>
        <time>2011-11-06T10:05:11Z</time>
      </trkpt>
      <trkpt lat="50.30327" lon="3.34312">
        <ele>25.6123047</ele>
        <time>2011-11-06T10:05:15Z</time>
      </trkpt>
      <trkpt lat="50.30352" lon="3.34319">
        <ele>25.6123047</ele>
        <time>2011-11-06T10:05:19Z</time>
      </trkpt>
      <trkpt lat="50.30388" lon="3.34316">
        <ele>24.651001</ele>
        <time>2011-11-06T10:05:25Z</time>
      </trkpt>
      <trkpt lat="50.30403" lon="3.34318">
        <ele>24.651001</ele>
        <time>2011-11-06T10:05:28Z</time>
      </trkpt>
      <trkpt lat="50.30417" lon="3.34311">
        <ele>23.6895752</ele>
        <time>2011-11-06T10:05:32Z</time>
      </trkpt>
      <trkpt lat="50.30426" lon="3.34293">
        <ele>24.651001</ele>
        <time>2011-11-06T10:05:35Z</time>
      </trkpt>
      <trkpt lat="50.30441" lon="3.3428">
        <ele>24.651001</ele>
        <time>2011-11-06T10:05:39Z</time>
      </trkpt>
      <trkpt lat="50.30455" lon="3.3428">
        <ele>24.651001</ele>
        <time>2011-11-06T10:05:42Z</time>
      </trkpt>
      <trkpt lat="50.30475" lon="3.34288">
        <ele>25.1317139</ele>
        <time>2011-11-06T10:05:47Z</time>
      </trkpt>
      <trkpt lat="50.30484" lon="3.34272">
        <ele>24.651001</ele>
        <time>2011-11-06T10:05:50Z</time>
      </trkpt>
      <trkpt lat="50.30509" lon="3.34253">
        <ele>24.1702881</ele>
        <time>2011-11-06T10:05:55Z</time>
      </trkpt>
      <trkpt lat="50.3053" lon="3.34265">
        <ele>24.651001</ele>
        <time>2011-11-06T10:05:59Z</time>
      </trkpt>
      <trkpt lat="50.30534" lon="3.34269">
        <ele>24.1702881</ele>
        <time>2011-11-06T10:06:00Z</time>
      </trkpt>
      <trkpt lat="50.30542" lon="3.3428">
        <ele>24.651001</ele>
        <time>2011-11-06T10:06:02Z</time>
      </trkpt>
      <trkpt lat="50.30546" lon="3.34302">
        <ele>24.1702881</ele>
        <time>2011-11-06T10:06:06Z</time>
      </trkpt>
      <trkpt lat="50.30543" lon="3.34306">
        <ele>24.1702881</ele>
        <time>2011-11-06T10:06:07Z</time>
      </trkpt>
      <trkpt lat="50.30527" lon="3.34324">
        <ele>24.1702881</ele>
        <time>2011-11-06T10:06:11Z</time>
      </trkpt>
      <trkpt lat="50.30507" lon="3.3433">
        <ele>23.6895752</ele>
        <time>2011-11-06T10:06:15Z</time>
      </trkpt>
      <trkpt lat="50.30502" lon="3.34328">
        <ele>23.2089844</ele>
        <time>2011-11-06T10:06:16Z</time>
      </trkpt>
      <trkpt lat="50.30478" lon="3.34313">
        <ele>22.7282715</ele>
        <time>2011-11-06T10:06:21Z</time>
      </trkpt>
      <trkpt lat="50.30472" lon="3.34313">
        <ele>24.1702881</ele>
        <time>2011-11-06T10:06:24Z</time>
      </trkpt>
      <trkpt lat="50.30467" lon="3.3432">
        <ele>25.1317139</ele>
        <time>2011-11-06T10:06:28Z</time>
      </trkpt>
      <trkpt lat="50.30469" lon="3.3436">
        <ele>25.6123047</ele>
        <time>2011-11-06T10:06:35Z</time>
      </trkpt>
      <trkpt lat="50.30472" lon="3.34395">
        <ele>25.6123047</ele>
        <time>2011-11-06T10:06:40Z</time>
      </trkpt>
      <trkpt lat="50.30489" lon="3.34408">
        <ele>25.1317139</ele>
        <time>2011-11-06T10:06:44Z</time>
      </trkpt>
      <trkpt lat="50.30495" lon="3.34408">
        <ele>24.651001</ele>
        <time>2011-11-06T10:06:45Z</time>
      </trkpt>
      <trkpt lat="50.30559" lon="3.34404">
        <ele>23.6895752</ele>
        <time>2011-11-06T10:06:56Z</time>
      </trkpt>
      <trkpt lat="50.30577" lon="3.34403">
        <ele>23.2089844</ele>
        <time>2011-11-06T10:06:59Z</time>
      </trkpt>
      <trkpt lat="50.30594" lon="3.34417">
        <ele>22.2475586</ele>
        <time>2011-11-06T10:07:03Z</time>
      </trkpt>
      <trkpt lat="50.30595" lon="3.34425">
        <ele>21.7669678</ele>
        <time>2011-11-06T10:07:04Z</time>
      </trkpt>
      <trkpt lat="50.30601" lon="3.34465">
        <ele>19.8443604</ele>
        <time>2011-11-06T10:07:09Z</time>
      </trkpt>
      <trkpt lat="50.30605" lon="3.34476">
        <ele>18.8830566</ele>
        <time>2011-11-06T10:07:13Z</time>
      </trkpt>
      <trkpt lat="50.30605" lon="3.34476">
        <ele>18.8830566</ele>
        <time>2011-11-06T10:07:14Z</time>
      </trkpt>
      <trkpt lat="50.30619" lon="3.34483">
        <ele>18.4023438</ele>
        <time>2011-11-06T10:07:33Z</time>
      </trkpt>
      <trkpt lat="50.30634" lon="3.34479">
        <ele>19.3637695</ele>
        <time>2011-11-06T10:07:38Z</time>
      </trkpt>
      <trkpt lat="50.30655" lon="3.3447">
        <ele>20.8056641</ele>
        <time>2011-11-06T10:07:44Z</time>
      </trkpt>
      <trkpt lat="50.30682" lon="3.34457">
        <ele>21.7669678</ele>
        <time>2011-11-06T10:07:50Z</time>
      </trkpt>
      <trkpt lat="50.30715" lon="3.34432">
        <ele>21.7669678</ele>
        <time>2011-11-06T10:07:57Z</time>
      </trkpt>
      <trkpt lat="50.30755" lon="3.34388">
        <ele>21.286377</ele>
        <time>2011-11-06T10:08:06Z</time>
      </trkpt>
      <trkpt lat="50.30796" lon="3.34357">
        <ele>23.2089844</ele>
        <time>2011-11-06T10:08:14Z</time>
      </trkpt>
      <trkpt lat="50.30845" lon="3.34336">
        <ele>24.1702881</ele>
        <time>2011-11-06T10:08:23Z</time>
      </trkpt>
      <trkpt lat="50.30894" lon="3.34312">
        <ele>25.1317139</ele>
        <time>2011-11-06T10:08:32Z</time>
      </trkpt>
      <trkpt lat="50.30937" lon="3.34289">
        <ele>25.1317139</ele>
        <time>2011-11-06T10:08:40Z</time>
      </trkpt>
      <trkpt lat="50.30977" lon="3.34271">
        <ele>24.651001</ele>
        <time>2011-11-06T10:08:47Z</time>
      </trkpt>
      <trkpt lat="50.3101" lon="3.34259">
        <ele>24.651001</ele>
        <time>2011-11-06T10:08:53Z</time>
      </trkpt>
      <trkpt lat="50.3102" lon="3.34257">
        <ele>24.651001</ele>
        <time>2011-11-06T10:08:55Z</time>
      </trkpt>
      <trkpt lat="50.31066" lon="3.34256">
        <ele>26.0928955</ele>
        <time>2011-11-06T10:09:04Z</time>
      </trkpt>
      <trkpt lat="50.3107" lon="3.34256">
        <ele>26.0928955</ele>
        <time>2011-11-06T10:09:05Z</time>
      </trkpt>
      <trkpt lat="50.31083" lon="3.34253">
        <ele>26.0928955</ele>
        <time>2011-11-06T10:09:08Z</time>
      </trkpt>
      <trkpt lat="50.31099" lon="3.3426">
        <ele>25.6123047</ele>
        <time>2011-11-06T10:09:12Z</time>
      </trkpt>
      <trkpt lat="50.31125" lon="3.3427">
        <ele>25.6123047</ele>
        <time>2011-11-06T10:09:17Z</time>
      </trkpt>
      <trkpt lat="50.3115" lon="3.34265">
        <ele>25.6123047</ele>
        <time>2011-11-06T10:09:22Z</time>
      </trkpt>
      <trkpt lat="50.3118" lon="3.34249">
        <ele>27.5349121</ele>
        <time>2011-11-06T10:09:28Z</time>
      </trkpt>
      <trkpt lat="50.31198" lon="3.34252">
        <ele>28.0155029</ele>
        <time>2011-11-06T10:09:32Z</time>
      </trkpt>
      <trkpt lat="50.31201" lon="3.34258">
        <ele>28.0155029</ele>
        <time>2011-11-06T10:09:33Z</time>
      </trkpt>
      <trkpt lat="50.31215" lon="3.3432">
        <ele>29.4575195</ele>
        <time>2011-11-06T10:09:42Z</time>
      </trkpt>
      <trkpt lat="50.31228" lon="3.34377">
        <ele>28.0155029</ele>
        <time>2011-11-06T10:09:50Z</time>
      </trkpt>
      <trkpt lat="50.31236" lon="3.34421">
        <ele>26.5736084</ele>
        <time>2011-11-06T10:09:56Z</time>
      </trkpt>
      <trkpt lat="50.31245" lon="3.34454">
        <ele>26.5736084</ele>
        <time>2011-11-06T10:10:01Z</time>
      </trkpt>
      <trkpt lat="50.31254" lon="3.34466">
        <ele>28.0155029</ele>
        <time>2011-11-06T10:10:05Z</time>
      </trkpt>
      <trkpt lat="50.31274" lon="3.3446">
        <ele>28.0155029</ele>
        <time>2011-11-06T10:10:10Z</time>
      </trkpt>
      <trkpt lat="50.31285" lon="3.34454">
        <ele>27.5349121</ele>
        <time>2011-11-06T10:10:12Z</time>
      </trkpt>
      <trkpt lat="50.31338" lon="3.3442">
        <ele>28.4962158</ele>
        <time>2011-11-06T10:10:21Z</time>
      </trkpt>
      <trkpt lat="50.31366" lon="3.34403">
        <ele>28.0155029</ele>
        <time>2011-11-06T10:10:26Z</time>
      </trkpt>
      <trkpt lat="50.3138" lon="3.34409">
        <ele>28.4962158</ele>
        <time>2011-11-06T10:10:29Z</time>
      </trkpt>
      <trkpt lat="50.31386" lon="3.34425">
        <ele>28.4962158</ele>
        <time>2011-11-06T10:10:31Z</time>
      </trkpt>
      <trkpt lat="50.31402" lon="3.34508">
        <ele>28.0155029</ele>
        <time>2011-11-06T10:10:40Z</time>
      </trkpt>
      <trkpt lat="50.31414" lon="3.34554">
        <ele>28.4962158</ele>
        <time>2011-11-06T10:10:46Z</time>
      </trkpt>
      <trkpt lat="50.31421" lon="3.34586">
        <ele>28.0155029</ele>
        <time>2011-11-06T10:10:50Z</time>
      </trkpt>
      <trkpt lat="50.31435" lon="3.34594">
        <ele>27.5349121</ele>
        <time>2011-11-06T10:10:54Z</time>
      </trkpt>
      <trkpt lat="50.31455" lon="3.346">
        <ele>27.5349121</ele>
        <time>2011-11-06T10:10:58Z</time>
      </trkpt>
      <trkpt lat="50.31512" lon="3.34627">
        <ele>27.5349121</ele>
        <time>2011-11-06T10:11:09Z</time>
      </trkpt>
      <trkpt lat="50.31543" lon="3.34644">
        <ele>27.0543213</ele>
        <time>2011-11-06T10:11:15Z</time>
      </trkpt>
      <trkpt lat="50.31573" lon="3.34659">
        <ele>27.5349121</ele>
        <time>2011-11-06T10:11:21Z</time>
      </trkpt>
      <trkpt lat="50.31591" lon="3.34657">
        <ele>27.5349121</ele>
        <time>2011-11-06T10:11:25Z</time>
      </trkpt>
      <trkpt lat="50.3163" lon="3.34633">
        <ele>28.4962158</ele>
        <time>2011-11-06T10:11:34Z</time>
      </trkpt>
      <trkpt lat="50.31655" lon="3.3462">
        <ele>28.0155029</ele>
        <time>2011-11-06T10:11:39Z</time>
      </trkpt>
      <trkpt lat="50.31679" lon="3.34622">
        <ele>27.5349121</ele>
        <time>2011-11-06T10:11:44Z</time>
      </trkpt>
      <trkpt lat="50.31706" lon="3.34626">
        <ele>28.0155029</ele>
        <time>2011-11-06T10:11:50Z</time>
      </trkpt>
      <trkpt lat="50.31744" lon="3.34613">
        <ele>27.0543213</ele>
        <time>2011-11-06T10:11:58Z</time>
      </trkpt>
      <trkpt lat="50.31759" lon="3.34609">
        <ele>26.5736084</ele>
        <time>2011-11-06T10:12:01Z</time>
      </trkpt>
      <trkpt lat="50.31767" lon="3.3461">
        <ele>26.5736084</ele>
        <time>2011-11-06T10:12:03Z</time>
      </trkpt>
      <trkpt lat="50.3179" lon="3.34607">
        <ele>25.1317139</ele>
        <time>2011-11-06T10:12:09Z</time>
      </trkpt>
      <trkpt lat="50.31829" lon="3.34607">
        <ele>23.2089844</ele>
        <time>2011-11-06T10:12:17Z</time>
      </trkpt>
      <trkpt lat="50.31841" lon="3.34609">
        <ele>23.2089844</ele>
        <time>2011-11-06T10:12:19Z</time>
      </trkpt>
      <trkpt lat="50.3186" lon="3.34622">
        <ele>21.7669678</ele>
        <time>2011-11-06T10:12:23Z</time>
      </trkpt>
      <trkpt lat="50.31876" lon="3.34643">
        <ele>22.2475586</ele>
        <time>2011-11-06T10:12:27Z</time>
      </trkpt>
      <trkpt lat="50.31899" lon="3.34678">
        <ele>22.7282715</ele>
        <time>2011-11-06T10:12:33Z</time>
      </trkpt>
      <trkpt lat="50.31927" lon="3.34724">
        <ele>19.3637695</ele>
        <time>2011-11-06T10:12:41Z</time>
      </trkpt>
      <trkpt lat="50.3193" lon="3.34728">
        <ele>19.3637695</ele>
        <time>2011-11-06T10:12:42Z</time>
      </trkpt>
      <trkpt lat="50.31932" lon="3.34738">
        <ele>22.2475586</ele>
        <time>2011-11-06T10:12:46Z</time>
      </trkpt>
      <trkpt lat="50.31932" lon="3.34739">
        <ele>24.651001</ele>
        <time>2011-11-06T10:12:50Z</time>
      </trkpt>
      <trkpt lat="50.31929" lon="3.34742">
        <ele>30.8995361</ele>
        <time>2011-11-06T10:13:12Z</time>
      </trkpt>
      <trkpt lat="50.31925" lon="3.34749">
        <ele>32.3415527</ele>
        <time>2011-11-06T10:13:14Z</time>
      </trkpt>
      <trkpt lat="50.31921" lon="3.34767">
        <ele>34.2641602</ele>
        <time>2011-11-06T10:13:22Z</time>
      </trkpt>
      <trkpt lat="50.31918" lon="3.34781">
        <ele>34.2641602</ele>
        <time>2011-11-06T10:13:28Z</time>
      </trkpt>
      <trkpt lat="50.31918" lon="3.3479">
        <ele>34.2641602</ele>
        <time>2011-11-06T10:13:31Z</time>
      </trkpt>
      <trkpt lat="50.31922" lon="3.34798">
        <ele>33.7834473</ele>
        <time>2011-11-06T10:13:37Z</time>
      </trkpt>
      <trkpt lat="50.3192" lon="3.34806">
        <ele>35.2254639</ele>
        <time>2011-11-06T10:13:41Z</time>
      </trkpt>
      <trkpt lat="50.31916" lon="3.34813">
        <ele>35.2254639</ele>
        <time>2011-11-06T10:13:44Z</time>
      </trkpt>
      <trkpt lat="50.31917" lon="3.34833">
        <ele>35.7060547</ele>
        <time>2011-11-06T10:13:48Z</time>
      </trkpt>
      <trkpt lat="50.31916" lon="3.34855">
        <ele>36.1867676</ele>
        <time>2011-11-06T10:13:52Z</time>
      </trkpt>
      <trkpt lat="50.31903" lon="3.34866">
        <ele>37.1480713</ele>
        <time>2011-11-06T10:13:57Z</time>
      </trkpt>
      <trkpt lat="50.31892" lon="3.34874">
        <ele>38.109375</ele>
        <time>2011-11-06T10:14:01Z</time>
      </trkpt>
      <trkpt lat="50.3188" lon="3.34885">
        <ele>37.6286621</ele>
        <time>2011-11-06T10:14:06Z</time>
      </trkpt>
      <trkpt lat="50.31868" lon="3.34887">
        <ele>36.1867676</ele>
        <time>2011-11-06T10:14:10Z</time>
      </trkpt>
      <trkpt lat="50.31864" lon="3.34886">
        <ele>36.1867676</ele>
        <time>2011-11-06T10:14:11Z</time>
      </trkpt>
      <trkpt lat="50.31849" lon="3.34871">
        <ele>34.744873</ele>
        <time>2011-11-06T10:14:17Z</time>
      </trkpt>
      <trkpt lat="50.31839" lon="3.34865">
        <ele>34.2641602</ele>
        <time>2011-11-06T10:14:21Z</time>
      </trkpt>
      <trkpt lat="50.31821" lon="3.34864">
        <ele>32.3415527</ele>
        <time>2011-11-06T10:14:27Z</time>
      </trkpt>
      <trkpt lat="50.31807" lon="3.34862">
        <ele>30.8995361</ele>
        <time>2011-11-06T10:14:30Z</time>
      </trkpt>
      <trkpt lat="50.31796" lon="3.34853">
        <ele>29.9381104</ele>
        <time>2011-11-06T10:14:32Z</time>
      </trkpt>
      <trkpt lat="50.31753" lon="3.34837">
        <ele>28.9769287</ele>
        <time>2011-11-06T10:14:38Z</time>
      </trkpt>
      <trkpt lat="50.31746" lon="3.34836">
        <ele>28.4962158</ele>
        <time>2011-11-06T10:14:39Z</time>
      </trkpt>
      <trkpt lat="50.31734" lon="3.34839">
        <ele>28.0155029</ele>
        <time>2011-11-06T10:14:43Z</time>
      </trkpt>
      <trkpt lat="50.31738" lon="3.34845">
        <ele>27.0543213</ele>
        <time>2011-11-06T10:14:46Z</time>
      </trkpt>
      <trkpt lat="50.31752" lon="3.34838">
        <ele>27.0543213</ele>
        <time>2011-11-06T10:14:50Z</time>
      </trkpt>
      <trkpt lat="50.31774" lon="3.34838">
        <ele>27.0543213</ele>
        <time>2011-11-06T10:14:55Z</time>
      </trkpt>
      <trkpt lat="50.31799" lon="3.34826">
        <ele>26.5736084</ele>
        <time>2011-11-06T10:15:00Z</time>
      </trkpt>
      <trkpt lat="50.31803" lon="3.34824">
        <ele>27.0543213</ele>
        <time>2011-11-06T10:15:01Z</time>
      </trkpt>
      <trkpt lat="50.31812" lon="3.3482">
        <ele>27.5349121</ele>
        <time>2011-11-06T10:15:04Z</time>
      </trkpt>
      <trkpt lat="50.3182" lon="3.34817">
        <ele>29.4575195</ele>
        <time>2011-11-06T10:15:08Z</time>
      </trkpt>
      <trkpt lat="50.31832" lon="3.34811">
        <ele>32.8222656</ele>
        <time>2011-11-06T10:15:15Z</time>
      </trkpt>
      <trkpt lat="50.31843" lon="3.34804">
        <ele>36.1867676</ele>
        <time>2011-11-06T10:15:23Z</time>
      </trkpt>
      <trkpt lat="50.31847" lon="3.34802">
        <ele>36.6674805</ele>
        <time>2011-11-06T10:15:26Z</time>
      </trkpt>
      <trkpt lat="50.31851" lon="3.34801">
        <ele>38.5900879</ele>
        <time>2011-11-06T10:15:31Z</time>
      </trkpt>
      <trkpt lat="50.31856" lon="3.34794">
        <ele>40.9934082</ele>
        <time>2011-11-06T10:15:36Z</time>
      </trkpt>
      <trkpt lat="50.31862" lon="3.34777">
        <ele>42.9160156</ele>
        <time>2011-11-06T10:15:43Z</time>
      </trkpt>
      <trkpt lat="50.31867" lon="3.34757">
        <ele>43.8773193</ele>
        <time>2011-11-06T10:15:49Z</time>
      </trkpt>
      <trkpt lat="50.31871" lon="3.34723">
        <ele>42.4354248</ele>
        <time>2011-11-06T10:15:55Z</time>
      </trkpt>
      <trkpt lat="50.31865" lon="3.34705">
        <ele>41.9547119</ele>
        <time>2011-11-06T10:15:58Z</time>
      </trkpt>
      <trkpt lat="50.31863" lon="3.34701">
        <ele>42.4354248</ele>
        <time>2011-11-06T10:15:59Z</time>
      </trkpt>
      <trkpt lat="50.31846" lon="3.34698">
        <ele>43.3966064</ele>
        <time>2011-11-06T10:16:04Z</time>
      </trkpt>
      <trkpt lat="50.31842" lon="3.347">
        <ele>43.3966064</ele>
        <time>2011-11-06T10:16:05Z</time>
      </trkpt>
      <trkpt lat="50.31825" lon="3.34713">
        <ele>43.8773193</ele>
        <time>2011-11-06T10:16:11Z</time>
      </trkpt>
      <trkpt lat="50.3182" lon="3.34726">
        <ele>43.8773193</ele>
        <time>2011-11-06T10:16:16Z</time>
      </trkpt>
      <trkpt lat="50.31816" lon="3.34732">
        <ele>43.8773193</ele>
        <time>2011-11-06T10:16:18Z</time>
      </trkpt>
      <trkpt lat="50.31799" lon="3.34739">
        <ele>40.0321045</ele>
        <time>2011-11-06T10:16:23Z</time>
      </trkpt>
      <trkpt lat="50.31772" lon="3.34741">
        <ele>36.1867676</ele>
        <time>2011-11-06T10:16:26Z</time>
      </trkpt>
      <trkpt lat="50.31751" lon="3.34743">
        <ele>35.2254639</ele>
        <time>2011-11-06T10:16:28Z</time>
      </trkpt>
      <trkpt lat="50.31732" lon="3.34734">
        <ele>34.744873</ele>
        <time>2011-11-06T10:16:31Z</time>
      </trkpt>
      <trkpt lat="50.31723" lon="3.34717">
        <ele>34.2641602</ele>
        <time>2011-11-06T10:16:34Z</time>
      </trkpt>
      <trkpt lat="50.31715" lon="3.34714">
        <ele>33.3028564</ele>
        <time>2011-11-06T10:16:37Z</time>
      </trkpt>
      <trkpt lat="50.31709" lon="3.34727">
        <ele>32.8222656</ele>
        <time>2011-11-06T10:16:40Z</time>
      </trkpt>
      <trkpt lat="50.31705" lon="3.34738">
        <ele>31.8607178</ele>
        <time>2011-11-06T10:16:42Z</time>
      </trkpt>
      <trkpt lat="50.31701" lon="3.34761">
        <ele>31.380127</ele>
        <time>2011-11-06T10:16:45Z</time>
      </trkpt>
      <trkpt lat="50.31713" lon="3.3479">
        <ele>29.9381104</ele>
        <time>2011-11-06T10:16:49Z</time>
      </trkpt>
      <trkpt lat="50.31722" lon="3.34805">
        <ele>28.4962158</ele>
        <time>2011-11-06T10:16:51Z</time>
      </trkpt>
      <trkpt lat="50.3173" lon="3.34827">
        <ele>28.0155029</ele>
        <time>2011-11-06T10:16:53Z</time>
      </trkpt>
      <trkpt lat="50.31754" lon="3.34891">
        <ele>27.5349121</ele>
        <time>2011-11-06T10:17:00Z</time>
      </trkpt>
      <trkpt lat="50.31766" lon="3.34937">
        <ele>26.5736084</ele>
        <time>2011-11-06T10:17:05Z</time>
      </trkpt>
      <trkpt lat="50.31772" lon="3.3496">
        <ele>26.0928955</ele>
        <time>2011-11-06T10:17:08Z</time>
      </trkpt>
      <trkpt lat="50.31774" lon="3.34973">
        <ele>26.5736084</ele>
        <time>2011-11-06T10:17:10Z</time>
      </trkpt>
      <trkpt lat="50.31784" lon="3.34984">
        <ele>27.0543213</ele>
        <time>2011-11-06T10:17:14Z</time>
      </trkpt>
      <trkpt lat="50.31798" lon="3.34983">
        <ele>27.5349121</ele>
        <time>2011-11-06T10:17:17Z</time>
      </trkpt>
      <trkpt lat="50.31826" lon="3.34969">
        <ele>28.9769287</ele>
        <time>2011-11-06T10:17:24Z</time>
      </trkpt>
      <trkpt lat="50.31856" lon="3.34952">
        <ele>29.4575195</ele>
        <time>2011-11-06T10:17:31Z</time>
      </trkpt>
      <trkpt lat="50.31891" lon="3.34932">
        <ele>28.4962158</ele>
        <time>2011-11-06T10:17:39Z</time>
      </trkpt>
      <trkpt lat="50.31899" lon="3.34927">
        <ele>28.0155029</ele>
        <time>2011-11-06T10:17:41Z</time>
      </trkpt>
      <trkpt lat="50.31913" lon="3.34935">
        <ele>27.5349121</ele>
        <time>2011-11-06T10:17:45Z</time>
      </trkpt>
      <trkpt lat="50.31917" lon="3.3494">
        <ele>27.5349121</ele>
        <time>2011-11-06T10:17:46Z</time>
      </trkpt>
      <trkpt lat="50.31931" lon="3.34952">
        <ele>27.5349121</ele>
        <time>2011-11-06T10:17:50Z</time>
      </trkpt>
      <trkpt lat="50.31939" lon="3.34935">
        <ele>27.5349121</ele>
        <time>2011-11-06T10:17:53Z</time>
      </trkpt>
      <trkpt lat="50.31949" lon="3.34924">
        <ele>27.0543213</ele>
        <time>2011-11-06T10:17:56Z</time>
      </trkpt>
      <trkpt lat="50.31952" lon="3.34922">
        <ele>27.0543213</ele>
        <time>2011-11-06T10:17:57Z</time>
      </trkpt>
      <trkpt lat="50.31978" lon="3.34905">
        <ele>27.5349121</ele>
        <time>2011-11-06T10:18:03Z</time>
      </trkpt>
      <trkpt lat="50.31984" lon="3.34903">
        <ele>28.0155029</ele>
        <time>2011-11-06T10:18:04Z</time>
      </trkpt>
      <trkpt lat="50.32012" lon="3.34905">
        <ele>27.5349121</ele>
        <time>2011-11-06T10:18:09Z</time>
      </trkpt>
      <trkpt lat="50.32051" lon="3.34899">
        <ele>28.4962158</ele>
        <time>2011-11-06T10:18:16Z</time>
      </trkpt>
      <trkpt lat="50.32078" lon="3.34895">
        <ele>29.4575195</ele>
        <time>2011-11-06T10:18:22Z</time>
      </trkpt>
      <trkpt lat="50.32084" lon="3.34894">
        <ele>28.9769287</ele>
        <time>2011-11-06T10:18:23Z</time>
      </trkpt>
      <trkpt lat="50.32117" lon="3.34873">
        <ele>29.4575195</ele>
        <time>2011-11-06T10:18:29Z</time>
      </trkpt>
      <trkpt lat="50.32127" lon="3.34864">
        <ele>29.4575195</ele>
        <time>2011-11-06T10:18:31Z</time>
      </trkpt>
      <trkpt lat="50.32142" lon="3.34849">
        <ele>29.4575195</ele>
        <time>2011-11-06T10:18:34Z</time>
      </trkpt>
      <trkpt lat="50.32161" lon="3.34839">
        <ele>29.9381104</ele>
        <time>2011-11-06T10:18:38Z</time>
      </trkpt>
      <trkpt lat="50.32172" lon="3.34852">
        <ele>30.8995361</ele>
        <time>2011-11-06T10:18:41Z</time>
      </trkpt>
      <trkpt lat="50.32185" lon="3.34859">
        <ele>31.380127</ele>
        <time>2011-11-06T10:18:45Z</time>
      </trkpt>
      <trkpt lat="50.32191" lon="3.34852">
        <ele>31.8607178</ele>
        <time>2011-11-06T10:18:47Z</time>
      </trkpt>
      <trkpt lat="50.32202" lon="3.34816">
        <ele>32.3415527</ele>
        <time>2011-11-06T10:18:54Z</time>
      </trkpt>
      <trkpt lat="50.32206" lon="3.34769">
        <ele>32.3415527</ele>
        <time>2011-11-06T10:19:01Z</time>
      </trkpt>
      <trkpt lat="50.32206" lon="3.34762">
        <ele>32.3415527</ele>
        <time>2011-11-06T10:19:02Z</time>
      </trkpt>
      <trkpt lat="50.32209" lon="3.3475">
        <ele>31.8607178</ele>
        <time>2011-11-06T10:19:04Z</time>
      </trkpt>
      <trkpt lat="50.3221" lon="3.3472">
        <ele>31.8607178</ele>
        <time>2011-11-06T10:19:09Z</time>
      </trkpt>
      <trkpt lat="50.32212" lon="3.34696">
        <ele>32.8222656</ele>
        <time>2011-11-06T10:19:13Z</time>
      </trkpt>
      <trkpt lat="50.32207" lon="3.3467">
        <ele>31.380127</ele>
        <time>2011-11-06T10:19:18Z</time>
      </trkpt>
      <trkpt lat="50.32203" lon="3.34647">
        <ele>28.4962158</ele>
        <time>2011-11-06T10:19:21Z</time>
      </trkpt>
      <trkpt lat="50.32209" lon="3.3463">
        <ele>27.0543213</ele>
        <time>2011-11-06T10:19:24Z</time>
      </trkpt>
      <trkpt lat="50.32218" lon="3.34633">
        <ele>26.0928955</ele>
        <time>2011-11-06T10:19:26Z</time>
      </trkpt>
      <trkpt lat="50.32226" lon="3.34642">
        <ele>25.6123047</ele>
        <time>2011-11-06T10:19:28Z</time>
      </trkpt>
      <trkpt lat="50.32233" lon="3.34652">
        <ele>24.651001</ele>
        <time>2011-11-06T10:19:30Z</time>
      </trkpt>
      <trkpt lat="50.32255" lon="3.34679">
        <ele>22.7282715</ele>
        <time>2011-11-06T10:19:35Z</time>
      </trkpt>
      <trkpt lat="50.32271" lon="3.34715">
        <ele>24.1702881</ele>
        <time>2011-11-06T10:19:40Z</time>
      </trkpt>
      <trkpt lat="50.32285" lon="3.34752">
        <ele>26.5736084</ele>
        <time>2011-11-06T10:19:45Z</time>
      </trkpt>
      <trkpt lat="50.32291" lon="3.34788">
        <ele>27.5349121</ele>
        <time>2011-11-06T10:19:50Z</time>
      </trkpt>
      <trkpt lat="50.32287" lon="3.34827">
        <ele>28.9769287</ele>
        <time>2011-11-06T10:19:55Z</time>
      </trkpt>
      <trkpt lat="50.32279" lon="3.34871">
        <ele>29.4575195</ele>
        <time>2011-11-06T10:20:01Z</time>
      </trkpt>
      <trkpt lat="50.32277" lon="3.34883">
        <ele>28.9769287</ele>
        <time>2011-11-06T10:20:03Z</time>
      </trkpt>
      <trkpt lat="50.32275" lon="3.34904">
        <ele>30.8995361</ele>
        <time>2011-11-06T10:20:07Z</time>
      </trkpt>
      <trkpt lat="50.32266" lon="3.34911">
        <ele>31.8607178</ele>
        <time>2011-11-06T10:20:11Z</time>
      </trkpt>
      <trkpt lat="50.32248" lon="3.34916">
        <ele>33.7834473</ele>
        <time>2011-11-06T10:20:17Z</time>
      </trkpt>
      <trkpt lat="50.32226" lon="3.34923">
        <ele>33.7834473</ele>
        <time>2011-11-06T10:20:23Z</time>
      </trkpt>
      <trkpt lat="50.32216" lon="3.34926">
        <ele>34.2641602</ele>
        <time>2011-11-06T10:20:26Z</time>
      </trkpt>
      <trkpt lat="50.3221" lon="3.34919">
        <ele>32.8222656</ele>
        <time>2011-11-06T10:20:30Z</time>
      </trkpt>
      <trkpt lat="50.322" lon="3.34908">
        <ele>29.9381104</ele>
        <time>2011-11-06T10:20:34Z</time>
      </trkpt>
      <trkpt lat="50.32193" lon="3.34918">
        <ele>29.4575195</ele>
        <time>2011-11-06T10:20:37Z</time>
      </trkpt>
      <trkpt lat="50.3218" lon="3.34923">
        <ele>30.4188232</ele>
        <time>2011-11-06T10:20:41Z</time>
      </trkpt>
      <trkpt lat="50.32168" lon="3.34923">
        <ele>30.4188232</ele>
        <time>2011-11-06T10:20:45Z</time>
      </trkpt>
      <trkpt lat="50.32166" lon="3.34927">
        <ele>30.4188232</ele>
        <time>2011-11-06T10:20:46Z</time>
      </trkpt>
      <trkpt lat="50.32158" lon="3.34945">
        <ele>30.8995361</ele>
        <time>2011-11-06T10:20:52Z</time>
      </trkpt>
      <trkpt lat="50.32155" lon="3.34956">
        <ele>31.380127</ele>
        <time>2011-11-06T10:20:56Z</time>
      </trkpt>
      <trkpt lat="50.32151" lon="3.34971">
        <ele>29.4575195</ele>
        <time>2011-11-06T10:21:00Z</time>
      </trkpt>
      <trkpt lat="50.32138" lon="3.34978">
        <ele>29.4575195</ele>
        <time>2011-11-06T10:21:04Z</time>
      </trkpt>
      <trkpt lat="50.32132" lon="3.34987">
        <ele>28.0155029</ele>
        <time>2011-11-06T10:21:08Z</time>
      </trkpt>
      <trkpt lat="50.32126" lon="3.35">
        <ele>26.5736084</ele>
        <time>2011-11-06T10:21:12Z</time>
      </trkpt>
      <trkpt lat="50.32122" lon="3.35012">
        <ele>25.6123047</ele>
        <time>2011-11-06T10:21:14Z</time>
      </trkpt>
      <trkpt lat="50.32105" lon="3.3504">
        <ele>25.6123047</ele>
        <time>2011-11-06T10:21:19Z</time>
      </trkpt>
      <trkpt lat="50.32089" lon="3.35082">
        <ele>24.651001</ele>
        <time>2011-11-06T10:21:25Z</time>
      </trkpt>
      <trkpt lat="50.32084" lon="3.35109">
        <ele>24.651001</ele>
        <time>2011-11-06T10:21:29Z</time>
      </trkpt>
      <trkpt lat="50.32075" lon="3.35134">
        <ele>25.1317139</ele>
        <time>2011-11-06T10:21:33Z</time>
      </trkpt>
      <trkpt lat="50.32067" lon="3.35158">
        <ele>25.6123047</ele>
        <time>2011-11-06T10:21:38Z</time>
      </trkpt>
      <trkpt lat="50.32061" lon="3.35176">
        <ele>27.0543213</ele>
        <time>2011-11-06T10:21:43Z</time>
      </trkpt>
      <trkpt lat="50.32051" lon="3.35176">
        <ele>28.0155029</ele>
        <time>2011-11-06T10:21:47Z</time>
      </trkpt>
      <trkpt lat="50.32025" lon="3.35157">
        <ele>27.5349121</ele>
        <time>2011-11-06T10:21:54Z</time>
      </trkpt>
      <trkpt lat="50.32003" lon="3.3514">
        <ele>27.5349121</ele>
        <time>2011-11-06T10:22:00Z</time>
      </trkpt>
      <trkpt lat="50.31981" lon="3.35131">
        <ele>28.4962158</ele>
        <time>2011-11-06T10:22:05Z</time>
      </trkpt>
      <trkpt lat="50.31967" lon="3.35136">
        <ele>29.9381104</ele>
        <time>2011-11-06T10:22:09Z</time>
      </trkpt>
      <trkpt lat="50.31967" lon="3.35141">
        <ele>30.4188232</ele>
        <time>2011-11-06T10:22:10Z</time>
      </trkpt>
      <trkpt lat="50.31969" lon="3.35164">
        <ele>32.3415527</ele>
        <time>2011-11-06T10:22:16Z</time>
      </trkpt>
      <trkpt lat="50.31971" lon="3.35167">
        <ele>32.3415527</ele>
        <time>2011-11-06T10:22:20Z</time>
      </trkpt>
      <trkpt lat="50.31967" lon="3.3518">
        <ele>37.6286621</ele>
        <time>2011-11-06T10:25:00Z</time>
      </trkpt>
      <trkpt lat="50.31957" lon="3.35208">
        <ele>36.1867676</ele>
        <time>2011-11-06T10:25:03Z</time>
      </trkpt>
      <trkpt lat="50.31948" lon="3.35232">
        <ele>35.2254639</ele>
        <time>2011-11-06T10:25:06Z</time>
      </trkpt>
      <trkpt lat="50.31939" lon="3.35255">
        <ele>34.744873</ele>
        <time>2011-11-06T10:25:09Z</time>
      </trkpt>
      <trkpt lat="50.31931" lon="3.35279">
        <ele>34.744873</ele>
        <time>2011-11-06T10:25:12Z</time>
      </trkpt>
      <trkpt lat="50.31922" lon="3.35302">
        <ele>34.2641602</ele>
        <time>2011-11-06T10:25:15Z</time>
      </trkpt>
      <trkpt lat="50.31897" lon="3.35383">
        <ele>33.7834473</ele>
        <time>2011-11-06T10:25:25Z</time>
      </trkpt>
      <trkpt lat="50.3189" lon="3.35438">
        <ele>32.8222656</ele>
        <time>2011-11-06T10:25:30Z</time>
      </trkpt>
      <trkpt lat="50.31885" lon="3.35541">
        <ele>31.8607178</ele>
        <time>2011-11-06T10:25:39Z</time>
      </trkpt>
      <trkpt lat="50.3189" lon="3.356">
        <ele>30.8995361</ele>
        <time>2011-11-06T10:25:44Z</time>
      </trkpt>
      <trkpt lat="50.31895" lon="3.35684">
        <ele>30.8995361</ele>
        <time>2011-11-06T10:25:51Z</time>
      </trkpt>
      <trkpt lat="50.31898" lon="3.35797">
        <ele>30.8995361</ele>
        <time>2011-11-06T10:26:01Z</time>
      </trkpt>
      <trkpt lat="50.31896" lon="3.35872">
        <ele>30.8995361</ele>
        <time>2011-11-06T10:26:08Z</time>
      </trkpt>
      <trkpt lat="50.31894" lon="3.35882">
        <ele>30.8995361</ele>
        <time>2011-11-06T10:26:09Z</time>
      </trkpt>
      <trkpt lat="50.31901" lon="3.35918">
        <ele>30.4188232</ele>
        <time>2011-11-06T10:26:13Z</time>
      </trkpt>
      <trkpt lat="50.31911" lon="3.35943">
        <ele>29.9381104</ele>
        <time>2011-11-06T10:26:16Z</time>
      </trkpt>
      <trkpt lat="50.31912" lon="3.35964">
        <ele>29.4575195</ele>
        <time>2011-11-06T10:26:18Z</time>
      </trkpt>
      <trkpt lat="50.31912" lon="3.36054">
        <ele>30.4188232</ele>
        <time>2011-11-06T10:26:27Z</time>
      </trkpt>
      <trkpt lat="50.31912" lon="3.36063">
        <ele>30.4188232</ele>
        <time>2011-11-06T10:26:28Z</time>
      </trkpt>
      <trkpt lat="50.31911" lon="3.36082">
        <ele>30.4188232</ele>
        <time>2011-11-06T10:26:30Z</time>
      </trkpt>
      <trkpt lat="50.31917" lon="3.36116">
        <ele>29.4575195</ele>
        <time>2011-11-06T10:26:34Z</time>
      </trkpt>
      <trkpt lat="50.31947" lon="3.36155">
        <ele>29.9381104</ele>
        <time>2011-11-06T10:26:41Z</time>
      </trkpt>
      <trkpt lat="50.31957" lon="3.36161">
        <ele>29.9381104</ele>
        <time>2011-11-06T10:26:43Z</time>
      </trkpt>
      <trkpt lat="50.31968" lon="3.36166">
        <ele>29.9381104</ele>
        <time>2011-11-06T10:26:45Z</time>
      </trkpt>
      <trkpt lat="50.31988" lon="3.36164">
        <ele>30.4188232</ele>
        <time>2011-11-06T10:26:49Z</time>
      </trkpt>
      <trkpt lat="50.32008" lon="3.36159">
        <ele>31.380127</ele>
        <time>2011-11-06T10:26:53Z</time>
      </trkpt>
      <trkpt lat="50.3205" lon="3.3613">
        <ele>31.8607178</ele>
        <time>2011-11-06T10:27:02Z</time>
      </trkpt>
      <trkpt lat="50.32055" lon="3.36126">
        <ele>31.380127</ele>
        <time>2011-11-06T10:27:03Z</time>
      </trkpt>
      <trkpt lat="50.32088" lon="3.36086">
        <ele>30.4188232</ele>
        <time>2011-11-06T10:27:11Z</time>
      </trkpt>
      <trkpt lat="50.32099" lon="3.3607">
        <ele>32.8222656</ele>
        <time>2011-11-06T10:27:14Z</time>
      </trkpt>
      <trkpt lat="50.32114" lon="3.36037">
        <ele>36.1867676</ele>
        <time>2011-11-06T10:27:19Z</time>
      </trkpt>
      <trkpt lat="50.32117" lon="3.36034">
        <ele>36.1867676</ele>
        <time>2011-11-06T10:27:20Z</time>
      </trkpt>
      <trkpt lat="50.32131" lon="3.36021">
        <ele>37.1480713</ele>
        <time>2011-11-06T10:27:24Z</time>
      </trkpt>
      <trkpt lat="50.32148" lon="3.36001">
        <ele>37.6286621</ele>
        <time>2011-11-06T10:27:29Z</time>
      </trkpt>
      <trkpt lat="50.32165" lon="3.35985">
        <ele>36.1867676</ele>
        <time>2011-11-06T10:27:34Z</time>
      </trkpt>
      <trkpt lat="50.32179" lon="3.35975">
        <ele>34.744873</ele>
        <time>2011-11-06T10:27:38Z</time>
      </trkpt>
      <trkpt lat="50.32199" lon="3.35963">
        <ele>34.2641602</ele>
        <time>2011-11-06T10:27:44Z</time>
      </trkpt>
      <trkpt lat="50.32205" lon="3.35945">
        <ele>30.8995361</ele>
        <time>2011-11-06T10:27:48Z</time>
      </trkpt>
      <trkpt lat="50.32206" lon="3.35919">
        <ele>25.1317139</ele>
        <time>2011-11-06T10:27:53Z</time>
      </trkpt>
      <trkpt lat="50.32206" lon="3.35914">
        <ele>24.651001</ele>
        <time>2011-11-06T10:27:54Z</time>
      </trkpt>
      <trkpt lat="50.32213" lon="3.35874">
        <ele>20.3249512</ele>
        <time>2011-11-06T10:28:01Z</time>
      </trkpt>
      <trkpt lat="50.32211" lon="3.35837">
        <ele>25.1317139</ele>
        <time>2011-11-06T10:28:07Z</time>
      </trkpt>
      <trkpt lat="50.32211" lon="3.35805">
        <ele>25.6123047</ele>
        <time>2011-11-06T10:28:14Z</time>
      </trkpt>
      <trkpt lat="50.32212" lon="3.3578">
        <ele>27.0543213</ele>
        <time>2011-11-06T10:28:19Z</time>
      </trkpt>
      <trkpt lat="50.32209" lon="3.35759">
        <ele>28.4962158</ele>
        <time>2011-11-06T10:28:23Z</time>
      </trkpt>
      <trkpt lat="50.32206" lon="3.35754">
        <ele>28.0155029</ele>
        <time>2011-11-06T10:28:24Z</time>
      </trkpt>
      <trkpt lat="50.32207" lon="3.3573">
        <ele>28.4962158</ele>
        <time>2011-11-06T10:28:28Z</time>
      </trkpt>
      <trkpt lat="50.32209" lon="3.35709">
        <ele>28.4962158</ele>
        <time>2011-11-06T10:28:31Z</time>
      </trkpt>
      <trkpt lat="50.32204" lon="3.35665">
        <ele>29.9381104</ele>
        <time>2011-11-06T10:28:39Z</time>
      </trkpt>
      <trkpt lat="50.32205" lon="3.35645">
        <ele>30.4188232</ele>
        <time>2011-11-06T10:28:43Z</time>
      </trkpt>
      <trkpt lat="50.32197" lon="3.35632">
        <ele>30.4188232</ele>
        <time>2011-11-06T10:28:46Z</time>
      </trkpt>
      <trkpt lat="50.32179" lon="3.3562">
        <ele>30.8995361</ele>
        <time>2011-11-06T10:28:50Z</time>
      </trkpt>
      <trkpt lat="50.3217" lon="3.3561">
        <ele>29.9381104</ele>
        <time>2011-11-06T10:28:52Z</time>
      </trkpt>
      <trkpt lat="50.32132" lon="3.35583">
        <ele>28.4962158</ele>
        <time>2011-11-06T10:28:58Z</time>
      </trkpt>
      <trkpt lat="50.32108" lon="3.35567">
        <ele>28.0155029</ele>
        <time>2011-11-06T10:29:02Z</time>
      </trkpt>
      <trkpt lat="50.32093" lon="3.3554">
        <ele>28.4962158</ele>
        <time>2011-11-06T10:29:06Z</time>
      </trkpt>
      <trkpt lat="50.3209" lon="3.35533">
        <ele>28.4962158</ele>
        <time>2011-11-06T10:29:07Z</time>
      </trkpt>
      <trkpt lat="50.32083" lon="3.3551">
        <ele>28.4962158</ele>
        <time>2011-11-06T10:29:10Z</time>
      </trkpt>
      <trkpt lat="50.32061" lon="3.35487">
        <ele>28.4962158</ele>
        <time>2011-11-06T10:29:15Z</time>
      </trkpt>
      <trkpt lat="50.3205" lon="3.35474">
        <ele>28.9769287</ele>
        <time>2011-11-06T10:29:18Z</time>
      </trkpt>
      <trkpt lat="50.32055" lon="3.35451">
        <ele>28.4962158</ele>
        <time>2011-11-06T10:29:22Z</time>
      </trkpt>
      <trkpt lat="50.32058" lon="3.35447">
        <ele>28.0155029</ele>
        <time>2011-11-06T10:29:23Z</time>
      </trkpt>
      <trkpt lat="50.32062" lon="3.35438">
        <ele>28.0155029</ele>
        <time>2011-11-06T10:29:25Z</time>
      </trkpt>
      <trkpt lat="50.32055" lon="3.35419">
        <ele>26.0928955</ele>
        <time>2011-11-06T10:29:29Z</time>
      </trkpt>
      <trkpt lat="50.32047" lon="3.35405">
        <ele>25.1317139</ele>
        <time>2011-11-06T10:29:31Z</time>
      </trkpt>
      <trkpt lat="50.32031" lon="3.35383">
        <ele>25.1317139</ele>
        <time>2011-11-06T10:29:36Z</time>
      </trkpt>
      <trkpt lat="50.32022" lon="3.35379">
        <ele>25.6123047</ele>
        <time>2011-11-06T10:29:38Z</time>
      </trkpt>
      <trkpt lat="50.32011" lon="3.35357">
        <ele>26.5736084</ele>
        <time>2011-11-06T10:29:42Z</time>
      </trkpt>
      <trkpt lat="50.3201" lon="3.35349">
        <ele>26.5736084</ele>
        <time>2011-11-06T10:29:43Z</time>
      </trkpt>
      <trkpt lat="50.32011" lon="3.35324">
        <ele>26.5736084</ele>
        <time>2011-11-06T10:29:46Z</time>
      </trkpt>
      <trkpt lat="50.32005" lon="3.35285">
        <ele>26.5736084</ele>
        <time>2011-11-06T10:29:51Z</time>
      </trkpt>
      <trkpt lat="50.31996" lon="3.35257">
        <ele>27.5349121</ele>
        <time>2011-11-06T10:29:55Z</time>
      </trkpt>
      <trkpt lat="50.31994" lon="3.35225">
        <ele>27.5349121</ele>
        <time>2011-11-06T10:29:59Z</time>
      </trkpt>
      <trkpt lat="50.32006" lon="3.35195">
        <ele>26.5736084</ele>
        <time>2011-11-06T10:30:04Z</time>
      </trkpt>
      <trkpt lat="50.3202" lon="3.35201">
        <ele>25.6123047</ele>
        <time>2011-11-06T10:30:07Z</time>
      </trkpt>
      <trkpt lat="50.32024" lon="3.35206">
        <ele>25.6123047</ele>
        <time>2011-11-06T10:30:08Z</time>
      </trkpt>
      <trkpt lat="50.32038" lon="3.35219">
        <ele>25.1317139</ele>
        <time>2011-11-06T10:30:11Z</time>
      </trkpt>
      <trkpt lat="50.32053" lon="3.35227">
        <ele>24.1702881</ele>
        <time>2011-11-06T10:30:14Z</time>
      </trkpt>
      <trkpt lat="50.32076" lon="3.35228">
        <ele>24.1702881</ele>
        <time>2011-11-06T10:30:18Z</time>
      </trkpt>
      <trkpt lat="50.32094" lon="3.35225">
        <ele>23.6895752</ele>
        <time>2011-11-06T10:30:21Z</time>
      </trkpt>
      <trkpt lat="50.32119" lon="3.35243">
        <ele>24.651001</ele>
        <time>2011-11-06T10:30:26Z</time>
      </trkpt>
      <trkpt lat="50.32153" lon="3.35287">
        <ele>25.6123047</ele>
        <time>2011-11-06T10:30:34Z</time>
      </trkpt>
      <trkpt lat="50.32158" lon="3.35292">
        <ele>26.0928955</ele>
        <time>2011-11-06T10:30:35Z</time>
      </trkpt>
      <trkpt lat="50.32177" lon="3.35315">
        <ele>27.0543213</ele>
        <time>2011-11-06T10:30:40Z</time>
      </trkpt>
      <trkpt lat="50.32205" lon="3.35335">
        <ele>26.5736084</ele>
        <time>2011-11-06T10:30:46Z</time>
      </trkpt>
      <trkpt lat="50.32222" lon="3.35353">
        <ele>27.5349121</ele>
        <time>2011-11-06T10:30:49Z</time>
      </trkpt>
      <trkpt lat="50.32241" lon="3.3537">
        <ele>27.5349121</ele>
        <time>2011-11-06T10:30:53Z</time>
      </trkpt>
      <trkpt lat="50.32256" lon="3.35374">
        <ele>27.5349121</ele>
        <time>2011-11-06T10:30:56Z</time>
      </trkpt>
      <trkpt lat="50.32273" lon="3.35375">
        <ele>26.5736084</ele>
        <time>2011-11-06T10:31:01Z</time>
      </trkpt>
      <trkpt lat="50.32289" lon="3.35384">
        <ele>27.5349121</ele>
        <time>2011-11-06T10:31:04Z</time>
      </trkpt>
      <trkpt lat="50.32295" lon="3.35385">
        <ele>28.9769287</ele>
        <time>2011-11-06T10:31:08Z</time>
      </trkpt>
      <trkpt lat="50.32301" lon="3.35385">
        <ele>29.4575195</ele>
        <time>2011-11-06T10:31:14Z</time>
      </trkpt>
      <trkpt lat="50.32304" lon="3.35381">
        <ele>29.9381104</ele>
        <time>2011-11-06T10:31:18Z</time>
      </trkpt>
      <trkpt lat="50.32313" lon="3.35355">
        <ele>30.8995361</ele>
        <time>2011-11-06T10:31:25Z</time>
      </trkpt>
      <trkpt lat="50.32327" lon="3.35333">
        <ele>31.380127</ele>
        <time>2011-11-06T10:31:31Z</time>
      </trkpt>
      <trkpt lat="50.32337" lon="3.35312">
        <ele>31.380127</ele>
        <time>2011-11-06T10:31:35Z</time>
      </trkpt>
      <trkpt lat="50.32357" lon="3.35256">
        <ele>32.3415527</ele>
        <time>2011-11-06T10:31:43Z</time>
      </trkpt>
      <trkpt lat="50.3236" lon="3.35188">
        <ele>32.3415527</ele>
        <time>2011-11-06T10:31:51Z</time>
      </trkpt>
      <trkpt lat="50.32362" lon="3.35115">
        <ele>30.4188232</ele>
        <time>2011-11-06T10:31:59Z</time>
      </trkpt>
      <trkpt lat="50.32364" lon="3.35031">
        <ele>28.4962158</ele>
        <time>2011-11-06T10:32:08Z</time>
      </trkpt>
      <trkpt lat="50.32366" lon="3.34952">
        <ele>26.5736084</ele>
        <time>2011-11-06T10:32:16Z</time>
      </trkpt>
      <trkpt lat="50.32366" lon="3.34943">
        <ele>26.0928955</ele>
        <time>2011-11-06T10:32:17Z</time>
      </trkpt>
      <trkpt lat="50.32368" lon="3.34922">
        <ele>25.6123047</ele>
        <time>2011-11-06T10:32:21Z</time>
      </trkpt>
      <trkpt lat="50.32371" lon="3.34925">
        <ele>22.7282715</ele>
        <time>2011-11-06T10:32:23Z</time>
      </trkpt>
      <trkpt lat="50.32384" lon="3.34951">
        <ele>16.4797363</ele>
        <time>2011-11-06T10:32:27Z</time>
      </trkpt>
      <trkpt lat="50.32391" lon="3.34966">
        <ele>16.9604492</ele>
        <time>2011-11-06T10:32:29Z</time>
      </trkpt>
      <trkpt lat="50.32406" lon="3.34997">
        <ele>15.9990234</ele>
        <time>2011-11-06T10:32:34Z</time>
      </trkpt>
      <trkpt lat="50.3241" lon="3.35006">
        <ele>17.4411621</ele>
        <time>2011-11-06T10:32:36Z</time>
      </trkpt>
      <trkpt lat="50.32415" lon="3.35017">
        <ele>19.3637695</ele>
        <time>2011-11-06T10:32:38Z</time>
      </trkpt>
      <trkpt lat="50.32426" lon="3.35037">
        <ele>22.2475586</ele>
        <time>2011-11-06T10:32:42Z</time>
      </trkpt>
      <trkpt lat="50.32438" lon="3.35062">
        <ele>24.1702881</ele>
        <time>2011-11-06T10:32:46Z</time>
      </trkpt>
      <trkpt lat="50.32448" lon="3.35084">
        <ele>25.1317139</ele>
        <time>2011-11-06T10:32:49Z</time>
      </trkpt>
      <trkpt lat="50.32468" lon="3.35127">
        <ele>27.0543213</ele>
        <time>2011-11-06T10:32:56Z</time>
      </trkpt>
      <trkpt lat="50.32486" lon="3.35162">
        <ele>28.0155029</ele>
        <time>2011-11-06T10:33:02Z</time>
      </trkpt>
      <trkpt lat="50.32505" lon="3.35205">
        <ele>29.9381104</ele>
        <time>2011-11-06T10:33:09Z</time>
      </trkpt>
      <trkpt lat="50.32515" lon="3.35229">
        <ele>29.9381104</ele>
        <time>2011-11-06T10:33:13Z</time>
      </trkpt>
      <trkpt lat="50.32521" lon="3.35238">
        <ele>29.9381104</ele>
        <time>2011-11-06T10:33:15Z</time>
      </trkpt>
      <trkpt lat="50.32533" lon="3.35271">
        <ele>30.4188232</ele>
        <time>2011-11-06T10:33:21Z</time>
      </trkpt>
      <trkpt lat="50.32538" lon="3.353">
        <ele>31.380127</ele>
        <time>2011-11-06T10:33:27Z</time>
      </trkpt>
      <trkpt lat="50.32539" lon="3.35325">
        <ele>31.8607178</ele>
        <time>2011-11-06T10:33:32Z</time>
      </trkpt>
      <trkpt lat="50.32537" lon="3.35352">
        <ele>32.3415527</ele>
        <time>2011-11-06T10:33:37Z</time>
      </trkpt>
      <trkpt lat="50.32535" lon="3.35382">
        <ele>32.3415527</ele>
        <time>2011-11-06T10:33:43Z</time>
      </trkpt>
      <trkpt lat="50.32533" lon="3.35424">
        <ele>32.3415527</ele>
        <time>2011-11-06T10:33:51Z</time>
      </trkpt>
      <trkpt lat="50.32531" lon="3.35438">
        <ele>32.3415527</ele>
        <time>2011-11-06T10:33:55Z</time>
      </trkpt>
      <trkpt lat="50.32537" lon="3.35441">
        <ele>32.3415527</ele>
        <time>2011-11-06T10:34:00Z</time>
      </trkpt>
      <trkpt lat="50.32545" lon="3.35423">
        <ele>31.8607178</ele>
        <time>2011-11-06T10:34:04Z</time>
      </trkpt>
      <trkpt lat="50.32547" lon="3.35408">
        <ele>32.3415527</ele>
        <time>2011-11-06T10:34:06Z</time>
      </trkpt>
      <trkpt lat="50.3255" lon="3.35374">
        <ele>32.3415527</ele>
        <time>2011-11-06T10:34:10Z</time>
      </trkpt>
      <trkpt lat="50.32553" lon="3.35346">
        <ele>32.3415527</ele>
        <time>2011-11-06T10:34:13Z</time>
      </trkpt>
      <trkpt lat="50.32569" lon="3.35279">
        <ele>32.3415527</ele>
        <time>2011-11-06T10:34:20Z</time>
      </trkpt>
      <trkpt lat="50.32593" lon="3.35195">
        <ele>30.8995361</ele>
        <time>2011-11-06T10:34:28Z</time>
      </trkpt>
      <trkpt lat="50.32613" lon="3.35099">
        <ele>28.0155029</ele>
        <time>2011-11-06T10:34:36Z</time>
      </trkpt>
      <trkpt lat="50.32626" lon="3.34999">
        <ele>26.5736084</ele>
        <time>2011-11-06T10:34:44Z</time>
      </trkpt>
      <trkpt lat="50.32639" lon="3.34926">
        <ele>25.6123047</ele>
        <time>2011-11-06T10:34:50Z</time>
      </trkpt>
      <trkpt lat="50.32656" lon="3.34814">
        <ele>25.1317139</ele>
        <time>2011-11-06T10:34:59Z</time>
      </trkpt>
      <trkpt lat="50.32669" lon="3.34705">
        <ele>24.651001</ele>
        <time>2011-11-06T10:35:08Z</time>
      </trkpt>
      <trkpt lat="50.32674" lon="3.34581">
        <ele>23.6895752</ele>
        <time>2011-11-06T10:35:18Z</time>
      </trkpt>
      <trkpt lat="50.32677" lon="3.3448">
        <ele>23.6895752</ele>
        <time>2011-11-06T10:35:26Z</time>
      </trkpt>
      <trkpt lat="50.3268" lon="3.34433">
        <ele>23.2089844</ele>
        <time>2011-11-06T10:35:30Z</time>
      </trkpt>
      <trkpt lat="50.32697" lon="3.34364">
        <ele>22.7282715</ele>
        <time>2011-11-06T10:35:37Z</time>
      </trkpt>
      <trkpt lat="50.32703" lon="3.34347">
        <ele>23.2089844</ele>
        <time>2011-11-06T10:35:39Z</time>
      </trkpt>
      <trkpt lat="50.3272" lon="3.34322">
        <ele>23.2089844</ele>
        <time>2011-11-06T10:35:43Z</time>
      </trkpt>
      <trkpt lat="50.3273" lon="3.34289">
        <ele>23.6895752</ele>
        <time>2011-11-06T10:35:47Z</time>
      </trkpt>
      <trkpt lat="50.32743" lon="3.34228">
        <ele>24.651001</ele>
        <time>2011-11-06T10:35:53Z</time>
      </trkpt>
      <trkpt lat="50.32762" lon="3.34173">
        <ele>25.1317139</ele>
        <time>2011-11-06T10:35:59Z</time>
      </trkpt>
      <trkpt lat="50.32782" lon="3.34101">
        <ele>25.6123047</ele>
        <time>2011-11-06T10:36:07Z</time>
      </trkpt>
      <trkpt lat="50.32796" lon="3.34037">
        <ele>26.0928955</ele>
        <time>2011-11-06T10:36:14Z</time>
      </trkpt>
      <trkpt lat="50.32811" lon="3.33942">
        <ele>26.5736084</ele>
        <time>2011-11-06T10:36:24Z</time>
      </trkpt>
      <trkpt lat="50.32824" lon="3.33857">
        <ele>27.0543213</ele>
        <time>2011-11-06T10:36:33Z</time>
      </trkpt>
      <trkpt lat="50.3283" lon="3.33831">
        <ele>27.0543213</ele>
        <time>2011-11-06T10:36:36Z</time>
      </trkpt>
      <trkpt lat="50.32848" lon="3.33809">
        <ele>27.5349121</ele>
        <time>2011-11-06T10:36:40Z</time>
      </trkpt>
      <trkpt lat="50.32867" lon="3.33792">
        <ele>28.0155029</ele>
        <time>2011-11-06T10:36:44Z</time>
      </trkpt>
      <trkpt lat="50.32872" lon="3.33776">
        <ele>28.0155029</ele>
        <time>2011-11-06T10:36:46Z</time>
      </trkpt>
      <trkpt lat="50.32874" lon="3.3376">
        <ele>28.0155029</ele>
        <time>2011-11-06T10:36:48Z</time>
      </trkpt>
      <trkpt lat="50.32889" lon="3.33744">
        <ele>27.5349121</ele>
        <time>2011-11-06T10:36:52Z</time>
      </trkpt>
      <trkpt lat="50.32899" lon="3.3375">
        <ele>28.0155029</ele>
        <time>2011-11-06T10:36:54Z</time>
      </trkpt>
      <trkpt lat="50.32942" lon="3.33788">
        <ele>28.0155029</ele>
        <time>2011-11-06T10:37:02Z</time>
      </trkpt>
      <trkpt lat="50.32964" lon="3.33807">
        <ele>27.0543213</ele>
        <time>2011-11-06T10:37:06Z</time>
      </trkpt>
      <trkpt lat="50.33025" lon="3.33856">
        <ele>27.0543213</ele>
        <time>2011-11-06T10:37:17Z</time>
      </trkpt>
      <trkpt lat="50.33076" lon="3.33894">
        <ele>26.5736084</ele>
        <time>2011-11-06T10:37:26Z</time>
      </trkpt>
      <trkpt lat="50.33137" lon="3.33943">
        <ele>26.0928955</ele>
        <time>2011-11-06T10:37:37Z</time>
      </trkpt>
      <trkpt lat="50.33148" lon="3.33954">
        <ele>26.0928955</ele>
        <time>2011-11-06T10:37:40Z</time>
      </trkpt>
      <trkpt lat="50.33148" lon="3.33954">
        <ele>25.1317139</ele>
        <time>2011-11-06T10:37:43Z</time>
      </trkpt>
      <trkpt lat="50.33141" lon="3.33948">
        <ele>25.1317139</ele>
        <time>2011-11-06T10:37:50Z</time>
      </trkpt>
      <trkpt lat="50.33141" lon="3.33949">
        <ele>25.1317139</ele>
        <time>2011-11-06T10:37:51Z</time>
      </trkpt>
      <trkpt lat="50.33146" lon="3.33945">
        <ele>24.1702881</ele>
        <time>2011-11-06T10:39:56Z</time>
      </trkpt>
      <trkpt lat="50.33157" lon="3.33955">
        <ele>24.651001</ele>
        <time>2011-11-06T10:40:00Z</time>
      </trkpt>
      <trkpt lat="50.33177" lon="3.33961">
        <ele>24.651001</ele>
        <time>2011-11-06T10:40:06Z</time>
      </trkpt>
      <trkpt lat="50.33188" lon="3.33948">
        <ele>25.1317139</ele>
        <time>2011-11-06T10:40:10Z</time>
      </trkpt>
      <trkpt lat="50.33197" lon="3.33923">
        <ele>25.1317139</ele>
        <time>2011-11-06T10:40:15Z</time>
      </trkpt>
      <trkpt lat="50.33211" lon="3.33861">
        <ele>25.1317139</ele>
        <time>2011-11-06T10:40:25Z</time>
      </trkpt>
      <trkpt lat="50.33212" lon="3.33855">
        <ele>25.1317139</ele>
        <time>2011-11-06T10:40:26Z</time>
      </trkpt>
      <trkpt lat="50.33223" lon="3.33802">
        <ele>25.1317139</ele>
        <time>2011-11-06T10:40:34Z</time>
      </trkpt>
      <trkpt lat="50.33229" lon="3.33768">
        <ele>24.651001</ele>
        <time>2011-11-06T10:40:40Z</time>
      </trkpt>
      <trkpt lat="50.33236" lon="3.33727">
        <ele>25.1317139</ele>
        <time>2011-11-06T10:40:47Z</time>
      </trkpt>
      <trkpt lat="50.33243" lon="3.3372">
        <ele>25.6123047</ele>
        <time>2011-11-06T10:40:50Z</time>
      </trkpt>
    </trkseg>
  </trk>
</gpx>